     2.10           OBSERVATION DATA    G (GPS)             RINEX VERSION / TYPE
teqc 2005May6 SOPAC 20050707 00:32:11UTC                    PGM / RUN BY / DATE
Linux 2.4.20-8|Pentium IV|gcc|Linux|486/DX+                 COMMENT
BIT 2 OF LLI FLAGS DATA COLLECTED UNDER A/S CONDITION       COMMENT
HPGN CA 02 18                                               MARKER NAME
0218                                                        MARKER NUMBER
Dave Goodman                                                OBSERVER / AGENCY
0220309504 TRIMBLE 5700 2.01                                REC # / TYPE / VERS
12422974 TRM41249.00 NONE                                   ANT # / TYPE
 -2573470.0000 -4119364.0000  4120837.0000                  APPROX POSITION XYZ
        2.0000        0.0000        0.0000                  ANTENNA: DELTA H/E/N
     1     1                                                WAVELENGTH FACT L1/2
     6    L1    L2    C1    P2    P1    D1                  # / TYPES OF OBSERV
    15.0000                                                 INTERVAL
Northern California Height Modernization 2004               COMMENT
                                                            COMMENT
SOPAC - Scripps Orbit and Permanent Array Center            COMMENT
IGPP - Institute of Geophysics and Planetary Physics        COMMENT
SIO - Scripps Institution of Oceanography                   COMMENT
UCSD - University of California, San Diego                  COMMENT
                                                            COMMENT
email: archive@gpsmail.ucsd.edu                             COMMENT
ftp://garner.ucsd.edu                                       COMMENT
http://sopac.ucsd.edu                                       COMMENT
                                                            COMMENT
                                                            COMMENT
Approximate Lat, Lon : 40.501, -121.994                     COMMENT
                                                            COMMENT
SNR is mapped to RINEX snr flag value [0-9]                 COMMENT
L1 & L2: 2-19 dBHz = 1, 20-27 dBHz = 2, 28-31 dBHz = 3      COMMENT
32-35 dBHz = 4, 36-38 dBHz = 5, 39-41 dBHz = 6              COMMENT
42-44 dBHz = 7, 45-48 dBHz = 8, >= 49 dBHz = 9              COMMENT
  2004     9    10    14    58   30.0000000     GPS         TIME OF FIRST OBS
                                                            END OF HEADER
 04  9 10 14 58 30.0000000  0  7G11G14G15G19G22G25G 1
   -862303.40259   -670416.41454  21920381.6484   21920378.0904

   1478142.38759   1139857.56356  20787112.9774   20787110.3164

   2669481.00058   2040170.67253  22955236.0474   22955236.0394

   1959291.11758   1509709.21953  23271630.5864   23271626.6294

   1799015.48458   1385670.90654  22563493.4534   22563489.8054

  -1286585.42658   -989072.07054  22045064.2974   22045063.0004

  -1188870.64858   -922031.18053  22387712.8834   22387711.6524

 04  9 10 14 58 45.0000000  0  7G11G14G15G19G22G25G 1
   -881266.88349   -685193.16844  21916772.6954   21916769.0314
      1264.2324
   1516001.78549   1169358.38346  20794317.4304   20794314.6844
     -2523.9604
   2735966.33648   2091977.37143  22967888.2344   22967888.1564
     -4432.3564
   2008644.30148   1548166.22343  23281022.1414   23281018.0354
     -3290.2124
   1843771.40648   1420545.61744  22572010.5314   22572006.8014
     -2983.7284
  -1316484.23848  -1012369.82444  22039374.3914   22039373.3094
      1993.2544
  -1217367.88348   -944236.81243  22382289.7344   22382288.5474
      1899.8164
 04  9 10 14 59  0.0000000  0  7G11G14G15G19G22G25G 1
   -900125.18449   -699887.95344  21913183.6804   21913180.4184
      1257.2204
   1553941.38749   1198921.68046  20801536.9534   20801534.1374
     -2529.3074
   2802505.16048   2143825.75443  22980550.0554   22980550.5044
     -4435.9224
   2058063.26648   1586674.50043  23290426.0704   23290422.2624
     -3294.5984
   1888565.80148   1455450.29744  22580534.5234   22580531.0824
     -2986.2934
  -1346302.57448  -1035604.86744  22033700.5234   22033699.3954
      1987.8894
  -1245795.73848   -966388.39143  22376880.3674   22376879.5164
      1895.1904
 04  9 10 14 59 15.0000000  0  7G11G14G15G19G22G25G 1
   -918881.06249   -714502.93744  21909614.7894   21909611.7424
      1250.3924
   1591958.00449   1228545.00846  20808771.2424   20808768.7234
     -2534.4414
   2869094.24248   2195713.30143  22993221.9924   22993221.8054
     -4439.2724
   2107544.68448   1625231.41043  23299841.7894   23299838.2704
     -3298.7614
   1933395.65648   1490382.60944  22589065.0784   22589062.1334
     -2988.6574
  -1376042.98048  -1058779.18444  22028040.8834   22028039.8754
      1982.6944
  -1274157.08248   -988488.12943  22371483.0554   22371482.0354
      1890.7564
 04  9 10 14 59 30.0000000  0  7G11G14G15G19G22G25G 1
   -937532.97749   -729036.90644  21906065.2424   21906062.3554
      1243.4614
   1630052.69949   1258229.16446  20816020.4454   20816017.5004
     -2539.6464
   2935734.52048   2247640.75043  23005902.5314   23005902.8324
     -4442.6854
   2157089.41047   1663837.66443  23309269.8204   23309266.6414
     -3302.9824
   1978262.16448   1525343.47744  22597602.8054   22597600.2304
     -2991.1014
  -1405703.90248  -1081891.56644  22022396.6644   22022395.3754
      1977.3954
  -1302450.49648  -1010534.93743  22366099.3594   22366098.2894
      1886.2284
 04  9 10 14 59 45.0000000  0  7G11G14G15G19G22G25G 1
   -956079.85949   -743489.03944  21902536.0864   21902533.4184
      1236.4594
   1668225.91049   1287974.50846  20823284.5394   20823281.8524
     -2544.8814
   3002426.45348   2299608.43843  23018593.8914   23018594.3634
     -4446.1294
   2206697.69948   1702493.43443  23318710.1094   23318707.0664
     -3307.2194
   2023166.16448   1560333.57444  22606147.9224   22606144.9494
     -2993.6004
  -1435284.29348  -1104941.19944  22016767.7274   22016766.1454
      1972.0264
  -1330675.21548  -1032528.22744  22360728.5474   22360727.0634
      1881.6484
 04  9 10 15  0  0.0000000  0  7G11G14G15G19G22G25G 1
   -974522.62549   -757860.03544  21899026.5864   21899023.6764
      1229.5184
   1706476.24649   1317779.94146  20830563.2974   20830560.2624
     -2550.0224
   3069168.68047   2351615.32043  23031294.3754   23031294.9804
     -4449.4824
   2256367.98847   1741197.52343  23328162.0084   23328159.1884
     -3311.3534
   2068106.36748   1595351.88344  22614699.5944   22614697.3284
     -2996.0144
  -1464784.87948  -1127928.65244  22011153.8054   22011152.3914
      1966.7064
  -1358832.27348  -1054468.78144  22355370.2974   22355369.7384
      1877.1374
 04  9 10 15  0 15.0000000  0  7G11G14G15G19G22G25G 1
   -992859.46949   -772148.50444  21895536.9304   21895534.7624
      1222.4564
   1744805.16449   1347646.60546  20837856.9614   20837854.1684
     -2555.2614
   3135962.53547   2403662.42243  23044005.2584   23044005.6484
     -4452.9244
   2306101.66047   1779951.00043  23337625.9384   23337623.2424
     -3315.5784
   2113084.52048   1630399.75044  22623258.4844   22623255.8244
     -2998.5434
  -1494203.80948  -1150852.47744  22005555.5864   22005554.2234
      1961.2624
  -1386919.83648  -1076355.19144  22350025.4924   22350024.6054
      1872.5044
 04  9 10 15  0 30.0000000  0  7G11G14G15G19G22G25G 1
  -1011090.38749   -786354.41445  21892068.2114   21892065.2774
      1215.3954
   1783212.17649   1377574.13346  20845165.7974   20845162.9694
     -2560.4674
   3202807.48848   2455749.34443  23056725.3834   23056725.8094
     -4456.3304
   2355897.96548   1818753.29743  23347102.2034   23347098.2664
     -3319.7544
   2158100.19948   1665476.86744  22631824.3834   22631822.7234
     -3001.0454
  -1523540.97748  -1173712.57444  21999972.7504   21999972.1564
      1955.8114
  -1414938.18048  -1098187.65244  22344693.5394   22344692.4924
      1867.8904
 04  9 10 15  0 45.0000000  0  7G11G14G15G19G22G25G 1
  -1029214.17649   -800476.86344  21888619.2814   21888616.2814
      1208.2534
   1821697.81649   1407562.91446  20852489.3444   20852486.5824
     -2565.7094
   3269704.09847   2507876.52743  23069455.4924   23069455.6174
     -4459.7744
   2405757.44147   1857604.81342  23356589.1174   23356586.4884
     -3323.9654
   2203154.40648   1700583.98044  22640398.6174   22640395.9384
     -3003.6144
  -1552795.32848  -1196508.15244  21994406.2114   21994405.5704
      1950.2904
  -1442886.31248  -1119965.41044  22339375.6804   22339373.9414
      1863.2094
 04  9 10 15  1  0.0000000  0  7G11G14G15G19G22G25G 1
  -1047232.97749   -814517.49644  21885190.4614   21885187.6884
      1201.2534
   1860259.55549   1437611.00446  20859827.3054   20859824.2854
     -2570.7834
   3336649.80547   2560041.94943  23082194.9454   23082194.6804
     -4463.0474
   2455677.52747   1896503.55142  23366089.2664   23366085.7734
     -3328.0064
   2248244.83248   1735719.34044  22648979.0164   22648975.8554
     -3006.0284
  -1581968.83648  -1219240.72744  21988854.5164   21988853.2154
      1944.9014
  -1470766.37948  -1141690.14144  22334070.0784   22334069.1644
      1858.6714
 04  9 10 15  1 15.0000000  0  7G11G14G15G19G22G25G 1
  -1065143.57049   -828473.82044  21881782.1724   21881778.9534
      1194.0404
   1898900.32049   1467720.66846  20867180.5944   20867177.8754
     -2576.0514
   3403647.39147   2612247.82442  23094943.7344   23094944.4804
     -4466.5064
   2505660.80547   1935451.53142  23375600.3984   23375596.4924
     -3332.2184
   2293374.37148   1770885.16444  22657566.9454   22657563.3834
     -3008.6364
  -1611058.09448  -1241907.66044  21983319.3444   21983317.7194
      1939.2844
  -1498575.27048  -1163359.40644  22328778.4924   22328777.1954
      1853.9264
 04  9 10 15  1 30.0000000  0  7G11G14G15G19G22G25G 1
  -1082947.50049   -842347.01244  21878393.9144   21878390.8794
      1186.9294
   1937617.80949   1497890.11746  20874548.2274   20874545.6094
     -2581.1664
   3470694.77347   2664492.48443  23107702.1094   23107702.7774
     -4469.8264
   2555704.98847   1974446.99242  23385123.5394   23385120.2464
     -3336.2794
   2338541.16448   1806080.02744  22666161.8834   22666158.9184
     -3011.1204
  -1640064.62148  -1264510.13344  21977799.2504   21977797.9104
      1933.7684
  -1526314.80948  -1184974.62144  22323499.2194   22323498.4964
      1849.3034
 04  9 10 15  1 45.0000000  0  7G11G14G15G19G22G25G 1
  -1100644.31648   -856136.75844  21875026.3284   21875023.1994
      1179.7884
   1976411.98849   1528119.32446  20881930.7814   20881927.8554
     -2586.2794
   3537791.70347   2716775.75442  23120470.6334   23120470.9104
     -4473.1294
   2605809.79347   2013489.66442  23394658.2734   23394654.9104
     -3340.3204
   2383745.26648   1841303.94944  22674764.2814   22674761.3554
     -3013.6074
  -1668988.00048  -1287047.80944  21972294.8444   21972294.0164
      1928.2254
  -1553984.69548  -1206535.56244  22318234.3524   22318233.6724
      1844.6594
 04  9 10 15  2  0.0000000  0  7G11G14G15G19G22G25G 1
  -1118233.54349   -869842.65244  21871679.4534   21871676.3244
      1172.6154
   2015282.96549   1558408.38346  20889327.6024   20889325.1454
     -2591.3984
   3604938.21948   2769097.67642  23133247.8834   23133248.4494
     -4476.4344
   2655975.27047   2052579.60542  23404204.5704   23404202.7344
     -3344.3654
   2428987.16048   1876557.34444  22683373.4774   22683370.4534
     -3016.1264
  -1697827.75048  -1309520.32844  21966807.5554   21966805.7234
      1922.6504
  -1581584.56248  -1228041.95744  22312982.0474   22312981.2304
      1839.9914
 04  9 10 15  2 15.0000000  0  7G11G14G15G19G22G25G 1
  -1135714.95349   -883464.53544  21868352.9064   21868349.4224
      1165.4274
   2054230.50849   1588757.09846  20896738.7504   20896736.2974
     -2596.5034
   3672134.15648   2821458.09843  23146035.3444   23146035.6604
     -4479.7294
   2706201.04347   2091716.54343  23413762.4924   23413759.7814
     -3348.3854
   2474266.84048   1911840.17244  22691989.7344   22691987.2854
     -3018.6454
  -1726583.32448  -1331927.25044  21961335.0704   21961333.5664
      1917.0384
  -1609114.24248  -1249493.63344  22307743.0944   22307742.5164
      1835.3124
 04  9 10 15  2 30.0000000  0  7G11G14G15G19G22G25G 1
  -1153091.05149   -897004.35945  21865046.2194   21865043.2274
      1158.4074
   2093251.53949   1619163.07846  20904164.2894   20904161.9064
     -2601.4024
   3739376.32448   2873854.55542  23158831.0944   23158831.0004
     -4482.8114
   2756483.82847   2130897.90242  23423330.7424   23423327.9574
     -3352.1864
   2519581.37548   1947150.16044  22700612.7974   22700610.4884
     -3020.9694
  -1755257.32048  -1354270.60544  21955879.1484   21955877.0434
      1911.6004
  -1636576.46948  -1270892.77344  22302517.0864   22302516.5044
      1830.8154
 04  9 10 15  2 45.0000000  0  7G11G14G15G19G22G25G 1
  -1170358.32849   -910459.37944  21861760.1724   21861757.1844
      1151.1524
   2132349.07049   1649628.67246  20911604.4304   20911601.7584
     -2606.5024
   3806667.73847   2926289.39142  23171635.8134   23171636.1214
     -4486.0944
   2806826.46147   2170125.89543  23432910.9384   23432907.7624
     -3356.1764
   2564934.06648   1982489.87544  22709243.6804   22709240.3874
     -3023.5134
  -1783846.02348  -1376547.48044  21950438.7034   21950436.9224
      1905.9144
  -1663967.99648  -1292236.80144  22297305.1484   22297304.5474
      1826.1024
 04  9 10 15  3  0.0000000  0  7G11G14G15G19G22G25G 1
  -1187515.98849   -923828.99244  21858495.1954   21858491.9844
      1143.8444
   2171523.29749   1680154.02746  20919059.1724   20919056.6644
     -2611.6154
   3874008.59447   2978762.75042  23184450.5864   23184450.5594
     -4489.3904
   2857229.14548   2209400.68843  23442502.5704   23442498.8164
     -3360.1794
   2610325.28148   2017859.62144  22717881.3054   22717878.3324
     -3026.0814
  -1812348.69148  -1398757.34844  21945014.9144   21945012.6684
      1900.1784
  -1691288.13748  -1313525.21544  22292106.1484   22292105.8014
      1821.3434
 04  9 10 15  3 15.0000000  0  7G11G14G15G19G22G25G 1
  -1204565.05949   -937114.00444  21855250.9534   21855248.1024
      1136.6054
   2210772.88749   1710738.11346  20926527.8674   20926525.4574
     -2616.6394
   3941397.43047   3031273.47742  23197274.0234   23197274.6414
     -4492.5894
   2907690.31347   2248721.05543  23452104.5864   23452101.4024
     -3364.0784
   2655753.96948   2053258.54744  22726525.9844   22726523.1764
     -3028.5794
  -1840766.32049  -1420900.93044  21939606.8674   21939605.2544
      1894.5094
  -1718538.00448  -1334758.86744  22286920.8134   22286920.0124
      1816.6584
 04  9 10 15  3 30.0000000  0  7G11G14G15G19G22G25G 1
  -1221506.48049   -950315.12944  21852027.2974   21852023.7624
      1129.4284
   2250096.38749   1741379.77746  20934011.1334   20934007.9144
     -2621.5674
   4008832.79347   3083820.46942  23210106.6094   23210107.5824
     -4495.6914
   2958208.44947   2288085.80943  23461718.3284   23461714.5984
     -3367.8764
   2701218.95348   2088685.77044  22735177.7504   22735174.9104
     -3030.9994
  -1869099.68448  -1442978.85244  21934215.1954   21934214.0044
      1888.8914
  -1745718.60248  -1355938.53944  22281748.2274   22281747.2074
      1812.0404
 04  9 10 15  3 45.0000000  0  7G11G14G15G19G22G25G 1
  -1238337.51249   -963430.22344  21848824.2974   21848821.8364
      1122.0694
   2289496.05549   1772080.80146  20941508.6644   20941505.4224
     -2626.6454
   4076316.81347   3136405.36342  23222948.8674   23222949.2814
     -4498.9354
   3008785.44548   2327496.43043  23471342.7274   23471339.6484
     -3371.8004
   2746722.62148   2124143.11744  22743836.7504   22743834.0864
     -3033.5784
  -1897346.15248  -1464989.06244  21928840.1334   21928838.5434
      1883.0984
  -1772827.46949  -1377062.32044  22276589.7194   22276588.4654
      1807.2584
 04  9 10 15  4  0.0000000  0  7G11G14G15G19G22G25G 1
  -1255060.66049   -976461.25445  21845641.9924   21845639.2424
      1114.8774
   2328968.85949   1802838.79746  20949020.0394   20949017.5044
     -2631.5204
   4143846.52748   3189025.88342  23235799.8284   23235799.6094
     -4501.9814
   3059418.27348   2366950.54743  23480978.3524   23480974.8444
     -3375.5224
   2792262.25848   2159628.50844  22752502.5944   22752499.6294
     -3035.9764
  -1925508.00448  -1486933.34444  21923481.0084   21923479.6644
      1877.4574
  -1799867.20748  -1398132.25044  22271443.8524   22271443.3404
      1802.6494
 04  9 10 15  4 15.0000000  0  7G11G14G15G19G22G25G 1
  -1271674.10949   -989406.81245  21842480.4694   21842477.2624
      1107.5634
   2368516.24649   1833654.92246  20956545.5704   20956542.9184
     -2636.4924
   4211423.34848   3241683.11742  23248658.5704   23248658.6254
     -4505.1214
   3110108.23448   2406449.20743  23490624.2504   23490621.0394
     -3379.3314
   2837839.41048   2195143.12544  22761175.2664   22761172.3954
     -3038.4774
  -1953583.31649  -1508810.18044  21918138.6644   21918137.2814
      1871.6884
  -1826836.04748  -1419146.91844  22266311.9844   22266311.3914
      1797.9234
 04  9 10 15  4 30.0000000  0  7G11G14G15G19G22G25G 1
  -1288177.13749  -1002266.31644  21839340.1954   21839337.1644
      1100.2024
   2408138.45749   1864529.35246  20964085.3134   20964082.4264
     -2641.4814
   4279047.34448   3294377.10242  23261527.5944   23261526.9184
     -4508.2664
   3160855.40648   2445992.42243  23500281.0004   23500277.7624
     -3383.1454
   2883454.49648   2230687.30544  22769855.6724   22769853.0274
     -3041.0064
  -1981571.44948  -1530619.09045  21912812.8444   21912810.9694
      1865.8764
  -1853733.44548  -1440105.91844  22261193.6564   22261192.9344
      1793.1604
 04  9 10 15  4 45.0000000  0  7G11G14G15G19G22G25G 1
  -1304569.49649  -1015039.59444  21836220.2274   21836217.9534
      1092.8244
   2447835.09049   1895461.78146  20971639.4534   20971636.6294
     -2646.4424
   4346718.12948   3347107.52043  23274404.8134   23274404.9534
     -4511.3864
   3211659.25448   2485579.81343  23509948.2584   23509945.3914
     -3386.9234
   2929107.45348   2266261.00044  22778543.1884   22778540.9064
     -3043.5304
  -2009472.09448  -1552359.83644  21907502.9614   21907501.1484
      1860.0434
  -1880559.47748  -1461009.30944  22256088.6024   22256087.9774
      1788.4024
 04  9 10 15  5  0.0000000  0  7G11G14G15G19G22G25G 1
  -1320852.11749  -1027727.36744  21833122.1804   21833119.4844
      1085.5084
   2487604.81349   1926451.15646  20979207.0554   20979205.2194
     -2651.3154
   4414434.46948   3399873.44943  23287290.8204   23287291.1254
     -4514.4234
   3262518.32848   2525210.23843  23519626.6254   23519623.7074
     -3390.6054
   2974797.28148   2301863.41444  22787237.6174   22787235.4384
     -3045.9894
  -2037286.07048  -1574033.05144  21902210.4844   21902208.4774
      1854.2654
  -1907315.09448  -1481857.83244  22250997.3674   22250996.0664
      1783.7084
 04  9 10 15  5 15.0000000  0  7G11G14G15G19G22G25G 1
  -1337023.45349  -1040328.41444  21830044.7194   21830041.5124
      1078.0894
   2527448.70349   1957498.32446  20986789.2814   20986786.7504
     -2656.2594
   4482197.36748   3452675.66443  23300185.4694   23300186.3834
     -4517.5274
   3313433.60548   2564884.46143  23529315.7664   23529312.2034
     -3394.3524
   3020525.12948   2337495.45744  22795939.9774   22795936.9494
     -3048.5234
  -2065011.84048  -1595637.53544  21896934.4924   21896932.6134
      1848.3854
  -1933998.84848  -1502650.35944  22245919.5784   22245918.1844
      1778.9174
 04  9 10 15  5 30.0000000  0  7G11G14G15G19G22G25G 1
  -1353083.52049  -1052842.77344  21826988.9454   21826986.3134
      1070.6714
   2567366.38749   1988602.99246  20994385.3914   20994382.4224
     -2661.1794
   4550006.30147   3505513.74243  23313089.2424   23313089.8404
     -4520.5964
   3364404.58248   2604602.07843  23539014.7974   23539011.6564
     -3398.0654
   3066290.92248   2373157.07444  22804648.8204   22804645.1954
     -3051.0534
  -2092649.13349  -1617173.06644  21891675.4844   21891672.9734
      1842.4864
  -1960610.84048  -1523386.98444  22240855.5394   22240853.7704
      1774.1334
 04  9 10 15  5 45.0000000  0  7G11G14G15G19G22G25G 1
  -1369031.38749  -1065269.68045  21823954.2664   21823951.4024
      1063.1914
   2607358.12949   2019765.37546  21001995.8054   21001992.7504
     -2666.1164
   4617861.61747   3558387.95742  23326001.7974   23326002.2624
     -4523.6884
   3415431.34448   2644363.17243  23548725.3754   23548722.4774
     -3401.7844
   3112095.21548   2408848.68444  22813365.0394   22813362.2384
     -3053.6204
  -2120197.05949  -1638638.97744  21886432.9534   21886431.1374
      1836.5284
  -1987150.37148  -1544067.12544  22235805.5234   22235803.6954
      1769.3024
 04  9 10 15  6  0.0000000  0  7G11G14G15G19G22G25G 1
  -1384868.16449  -1077610.04345  21820940.7114   21820937.4924
      1055.7854
   2647422.37149   2050984.25046  21009619.7814   21009617.3284
     -2670.9494
   4685761.64147   3611297.02742  23338922.8134   23338923.1174
     -4526.6684
   3466512.14148   2684166.34843  23558445.4384   23558442.8324
     -3405.3864
   3157936.54748   2444569.16844  22822088.4774   22822085.3324
     -3056.0894
  -2147656.72348  -1660036.09444  21881207.3914   21881205.9494
      1830.6444
  -2013618.69948  -1564691.79744  22230768.3914   22230767.2304
      1764.5554
 04  9 10 15  6 15.0000000  0  7G11G14G15G19G22G25G 1
  -1400593.66049  -1089863.68045  21817948.5084   21817945.4494
      1048.3664
   2687558.79749   2082259.36346  21017257.4454   21017255.1054
     -2675.7624
   4753706.04748   3664240.67642  23351852.2894   23351851.7974
     -4529.6274
   3517646.65647   2724011.39843  23568176.2974   23568173.5164
     -3408.9684
   3203814.96548   2480318.52744  22830819.4534   22830816.1684
     -3058.5614
  -2175027.71948  -1681364.14544  21875999.0234   21875997.5394
      1824.7334
  -2040015.83248  -1585260.98444  22225745.4224   22225743.7424
      1759.8094
 04  9 10 15  6 30.0000000  0  7G11G14G15G19G22G25G 1
  -1416207.38349  -1102030.22345  21814976.9534   21814974.6254
      1040.9154
   2727767.43049   2113590.74646  21024909.0474   21024906.1914
     -2680.5764
   4821694.73447   3717218.83642  23364789.6484   23364790.0944
     -4532.5794
   3568834.62148   2763898.09443  23577916.5554   23577914.3134
     -3412.5314
   3249730.57448   2516096.88344  22839556.2664   22839553.0514
     -3061.0414
  -2202309.64848  -1702622.76244  21870806.7974   21870805.9304
      1818.7954
  -2066341.51248  -1605774.49244  22220735.6884   22220734.4534
      1755.0454
 04  9 10 15  6 45.0000000  0  7G11G14G15G19G22G25G 1
  -1431708.73449  -1114109.20745  21812027.2114   21812024.6134
      1033.4234
   2768048.44949   2144978.52746  21032574.4774   21032571.8714
     -2685.4014
   4889727.91047   3770231.66442  23377736.3364   23377736.6914
     -4535.5454
   3620076.04347   2803826.43843  23587667.2504   23587664.9694
     -3416.0954
   3295683.91448   2551904.63744  22848301.0004   22848297.6134
     -3063.5564
  -2229501.70349  -1723811.35944  21865632.8054   21865631.5124
      1812.8044
  -2092595.09448  -1626231.81244  22215739.5944   22215738.3134
      1750.2394
 04  9 10 15  7  0.0000000  0  7G11G14G15G19G22G25G 1
  -1447098.20749  -1126101.01645  21809098.5864   21809096.0234
      1025.9654
   2808400.87149   2176421.95346  21040253.1644   21040250.6374
     -2690.1614
   4957804.55947   3823278.35242  23390691.0084   23390690.9884
     -4538.4434
   3671369.88747   2843795.64543  23597428.8364   23597425.5744
     -3419.5904
   3341674.14548   2587741.13344  22857052.9454   22857049.9304
     -3066.0154
  -2256604.47749  -1744930.39144  21860475.2274   21860474.0864
      1806.8524
  -2118777.34048  -1646633.55544  22210757.1484   22210756.1174
      1745.4834
 04  9 10 15  7 15.0000000  0  7G11G14G15G19G22G25G 1
  -1462374.60249  -1138004.71145  21806191.5864   21806189.3634
      1018.4264
   2848825.45349   2207921.60546  21047945.8984   21047942.7034
     -2694.9724
   5025925.38347   3876359.46542  23403654.2584   23403654.3594
     -4541.3884
   3722716.64847   2883806.07043  23607199.2974   23607196.9804
     -3423.1174
   3387702.29748   2623607.19544  22865812.1414   22865808.5554
     -3068.5434
  -2283616.71149  -1765978.85944  21855334.9224   21855333.5164
      1800.8164
  -2144887.17248  -1666978.87544  22205788.6334   22205787.6644
      1740.6554
 04  9 10 15  7 30.0000000  0  7G11G14G15G19G22G25G 1
  -1477539.27749  -1149821.34845  21803305.7194   21803303.5554
      1010.9784
   2889320.29749   2239476.01646  21055651.3674   21055648.9224
     -2699.6564
   5094088.47347   3929473.51242  23416625.0784   23416625.4344
     -4544.2064
   3774114.39847   2923856.26243  23616979.9614   23616976.6334
     -3426.5174
   3433766.71548   2659501.48844  22874577.5084   22874574.0274
     -3070.9614
  -2310539.54749  -1786957.68044  21850211.7114   21850210.1454
      1794.8564
  -2170926.08649  -1687268.92244  22200833.8444   22200832.5354
      1735.9284
 04  9 10 15  7 45.0000000  0  7G11G14G15G19G22G25G 1
  -1492590.65249  -1161549.69945  21800441.7424   21800439.0234
      1003.4254
   2929886.57449   2271086.08246  21063370.9224   21063368.8014
     -2704.4184
   5162294.96947   3982621.38742  23429603.8914   23429604.2544
     -4547.1004
   3825564.29347   2963947.04343  23626771.0234   23626767.5984
     -3429.9934
   3479868.76248   2695425.12944  22883350.6564   22883347.3284
     -3073.4704
  -2337371.23849  -1807865.47344  21845105.9844   21845104.0704
      1788.7794
  -2196892.50848  -1707502.49244  22195892.1024   22195891.3484
      1731.0954
 04  9 10 15  8  0.0000000  0  7G11G14G15G19G22G25G 1
  -1507530.41849  -1173191.08245  21797598.8984   21797595.7734
       995.9844
   2970522.11349   2302750.12146  21071103.5944   21071101.4064
     -2709.0364
   5230542.47347   4035801.23442  23442591.0864   23442591.3054
     -4549.8344
   3877063.77747   3004076.48443  23636570.9614   23636567.8324
     -3433.2994
   3526006.47748   2731376.53544  22892130.1414   22892127.1414
     -3075.8484
  -2364113.53149  -1828703.60945  21840016.7034   21840015.3014
      1782.8204
  -2222788.47749  -1727681.15644  22190964.4454   22190964.0904
      1726.3984
 04  9 10 15  8 15.0000000  0  7G11G14G15G19G22G25G 1
  -1522355.75849  -1184743.30145  21794777.7114   21794774.9344
       988.3564
   3011229.29749   2334469.97346  21078849.8674   21078847.5744
     -2713.8124
   5298833.36347   4089014.86342  23455586.6094   23455587.2734
     -4552.7264
   3928615.18447   3044246.35943  23646381.0394   23646378.0474
     -3436.7604
   3572182.33648   2767357.68044  22900917.2734   22900914.5824
     -3078.3914
  -2390763.58649  -1849469.87945  21834945.8444   21834944.1994
      1776.6704
  -2248611.25848  -1747802.78544  22186050.5634   22186049.9304
      1721.5194
 04  9 10 15  8 30.0000000  0  7G11G14G15G19G22G25G 1
  -1537066.89548  -1196206.53545  21791978.0164   21791975.1214
       980.7424
   3052007.34049   2366245.05546  21086609.9454   21086607.4804
     -2718.5364
   5367166.89146   4142261.72342  23468590.1484   23468590.8364
     -4555.5684
   3980217.61347   3084456.03542  23656200.0864   23656197.2384
     -3440.1624
   3618395.94548   2803368.23044  22909710.8524   22909708.2544
     -3080.9074
  -2417321.47749  -1870164.33245  21829891.8284   21829890.5434
      1770.5264
  -2274361.20748  -1767867.67244  22181150.6414   22181149.4804
      1716.6634
 04  9 10 15  8 45.0000000  0  7G11G14G15G19G22G25G 1
  -1551665.60949  -1207582.16045  21789199.7974   21789197.0864
       973.2484
   3092854.18449   2398073.75046  21094383.1254   21094380.3834
     -2723.1234
   5435540.85946   4195540.10942  23481600.6334   23481602.1134
     -4558.2654
   4031868.81647   3124703.69142  23666028.6954   23666026.4924
     -3443.4144
   3664645.45348   2839406.74244  22918512.6884   22918508.5864
     -3083.3014
  -2443788.91449  -1890788.30145  21824855.1954   21824853.9454
      1764.4964
  -2300040.09448  -1787877.18044  22176263.5704   22176263.2194
      1711.9264
 04  9 10 15  9  0.0000000  0  7G11G14G15G19G22G25G 1
  -1566150.12949  -1218868.80945  21786443.8674   21786440.8754
       965.6354
   3133770.92249   2429956.90646  21102168.7344   21102166.9654
     -2727.7834
   5503956.40246   4248850.87542  23494619.9534   23494621.1914
     -4561.0364
   4083569.65647   3164990.03543  23675866.8364   23675864.5634
     -3446.7234
   3710932.18048   2875474.26643  22927320.3914   22927317.1054
     -3085.7824
  -2470164.28949  -1911340.52745  21819836.3364   21819834.6334
      1758.3584
  -2325646.52348  -1807830.22744  22171390.8984   22171390.1054
      1707.0954
 04  9 10 15  9 15.0000000  0  7G11G14G15G19G22G25G 1
  -1580520.93049  -1230066.84445  21783709.1804   21783706.6454
       958.0534
   3174756.68849   2461893.84446  21109968.2894   21109966.0234
     -2732.3844
   5572412.60947   4302193.30142  23507647.2424   23507648.2624
     -4563.7474
   4135319.20747   3205314.32042  23685714.8054   23685712.9104
     -3449.9704
   3757255.39148   2911570.25443  22936135.3444   22936132.8554
     -3088.2144
  -2496447.96949  -1931821.30145  21814834.5164   21814832.8874
      1752.2454
  -2351181.02348  -1827727.24244  22166532.1724   22166531.4304
      1702.3004
 04  9 10 15  9 30.0000000  0  7G11G14G15G19G22G25G 1
  -1594777.74649  -1241176.05545  21780996.2894   21780993.5554
       950.4544
   3215811.31349   2493884.44146  21117780.6254   21117778.3404
     -2736.9754
   5640909.25847   4355567.23842  23520681.7034   23520682.6804
     -4566.4434
   4187117.16447   3245676.30542  23695571.2274   23695569.6994
     -3453.1974
   3803615.27048   2947694.78144  22944957.2734   22944954.7154
     -3090.6594
  -2522639.49249  -1952230.27045  21809850.3444   21809848.4804
      1746.1024
  -2376643.47748  -1847568.10244  22161686.8054   22161686.2154
      1697.4974
 04  9 10 15  9 45.0000000  0  7G11G14G15G19G22G25G 1
  -1608920.91049  -1252196.70745  21778304.8754   21778302.3134
       942.8784
   3256933.97749   2525928.05946  21125605.7894   21125603.2624
     -2741.5114
   5709445.57047   4408972.12142  23533723.8914   23533724.6764
     -4569.0874
   4238962.64546   3286075.35242  23705437.0164   23705435.8594
     -3456.3654
   3850011.21148   2983847.41444  22953786.4924   22953783.0434
     -3093.0634
  -2548739.09049  -1972567.60545  21804883.9454   21804882.4494
      1739.9734
  -2402034.23448  -1867353.09444  22156855.1334   22156854.6724
      1692.7174
 04  9 10 15 10  0.0000000  0  7G11G14G15G19G22G25G 1
  -1622949.29749  -1263127.93045  21775635.1884   21775632.6294
       935.2264
   3298125.27749   2558025.16046  21133444.4384   21133441.9494
     -2746.0874
   5778022.09847   4462408.33642  23546773.5474   23546774.5784
     -4571.7684
   4290856.01646   3326511.69142  23715312.9614   23715310.6684
     -3459.5584
   3896443.98848   3020028.75843  22962622.3914   22962619.3914
     -3095.5184
  -2574745.70349  -1992832.48045  21799934.6484   21799933.2464
      1733.7744
  -2427352.41048  -1887081.53544  22152037.1024   22152036.9304
      1687.8784
 04  9 10 15 10 15.0000000  0  7G11G14G15G19G22G25G 1
  -1636862.79749  -1273969.62545  21772987.3674   21772984.8054
       927.5674
   3339384.91049   2590175.50846  21141295.8524   21141293.3954
     -2750.6424
   5846638.39847   4515875.55142  23559831.0164   23559831.2114
     -4574.4204
   4342796.80947   3366985.02042  23725196.5234   23725193.9024
     -3462.7204
   3942913.60948   3056238.79744  22971465.4774   22971462.1954
     -3097.9754
  -2600659.04349  -2013024.68445  21795003.8134   21795002.3834
      1727.5564
  -2452598.08648  -1906753.48444  22147233.0084   22147232.6804
      1683.0454
 04  9 10 15 10 30.0000000  0  7G11G14G15G19G22G25G 1
  -1650660.83649  -1284721.34845  21770361.8674   21770359.3204
       919.8694
   3380713.06349   2622379.25045  21149160.4694   21149158.2544
     -2755.2104
   5915294.50447   4569373.76242  23572895.1254   23572896.0784
     -4577.0744
   4394785.07047   3407495.33642  23735089.9844   23735087.3134
     -3465.8844
   3989420.36748   3092477.80543  22980315.4304   22980312.2274
     -3100.4514
  -2626478.58249  -2033143.78545  21790090.5944   21790089.1484
      1721.3034
  -2477770.77048  -1926368.54744  22142442.8984   22142442.1254
      1678.1794
 04  9 10 15 10 45.0000000  0  7G11G14G15G19G22G25G 1
  -1664342.25849  -1295382.20745  21767758.5394   21767755.6024
       912.0954
   3422110.39149   2654636.89146  21157038.1254   21157035.8134
     -2759.8224
   5983991.25047   4622903.64142  23585968.2584   23585968.4024
     -4579.7834
   4446821.44147   3448043.11342  23744992.3754   23744989.2934
     -3469.0914
   4035965.28548   3128746.53543  22989172.2114   22989169.6294
     -3102.9954
  -2652203.05149  -2053188.81645  21785194.9844   21785193.5944
      1714.9654
  -2502869.45748  -1945925.95744  22137666.7424   22137665.8594
      1673.2464
 04  9 10 15 11  0.0000000  0  7G11G14G15G19G22G25G 1
  -1677908.93749  -1305953.66045  21765176.7034   21765173.8914
       904.4454
   3463574.46149   2686946.55146  21164928.5474   21164925.6174
     -2764.2714
   6052726.14547   4676463.26642  23599048.1174   23599048.7934
     -4582.3264
   4498903.06646   3488626.18842  23754903.0944   23754899.2934
     -3472.1084
   4082546.08648   3165043.21143  22998036.4924   22998033.4694
     -3105.3874
  -2677834.22349  -2073161.14545  21780317.6954   21780316.0904
      1708.7454
  -2527896.32048  -1965427.39844  22132904.1804   22132903.3874
      1668.4584
 04  9 10 15 11 15.0000000  0  7G11G14G15G19G22G25G 1
  -1691361.91049  -1316436.50045  21762617.0234   21762614.3054
       896.8654
   3505103.93449   2719307.15646  21172831.1484   21172828.5394
     -2768.6324
   6121497.71947   4730051.44942  23612135.1954   23612135.5164
     -4584.7724
   4551028.62147   3529243.44542  23764822.7814   23764817.8674
     -3475.0374
   4129161.53948   3201366.89544  23006907.1254   23006904.0084
     -3107.6974
  -2703372.93449  -2093061.43445  21775457.6804   21775456.3164
      1702.5814
  -2552852.36348  -1984873.66444  22128155.3984   22128154.3284
      1663.7364
 04  9 10 15 11 30.0000000  0  7G11G14G15G19G22G25G 1
  -1704697.94949  -1326828.22745  21760079.3674   21760076.0274
       889.0694
   3546701.43049   2751720.77746  21180747.0164   21180744.3874
     -2773.1664
   6190308.57847   4783670.25442  23625228.8984   23625230.1414
     -4587.3914
   4603200.50047   3569896.85242  23774751.0084   23774746.6334
     -3478.1254
   4175814.52748   3237719.82043  23015784.8204   23015781.2464
     -3110.1994
  -2728816.03549  -2112887.21545  21770616.3674   21770614.6174
      1696.2074
  -2577734.60548  -2004262.40644  22123420.4614   22123419.8134
      1658.8164
 04  9 10 15 11 45.0000000  0  7G11G14G15G19G22G25G 1
  -1717917.69149  -1337129.33245  21757563.5164   21757560.6254
       881.3164
   3588365.96149   2784186.61746  21188675.4534   21188673.2894
     -2777.6354
   6259157.64547   4837318.85542  23638331.1414   23638332.1054
     -4589.9384
   4655417.53148   3610585.41042  23784688.1644   23784683.8014
     -3481.1354
   4222504.38348   3274101.47343  23024669.8204   23024666.3204
     -3112.6574
  -2754164.15649  -2132638.97745  21765792.3444   21765791.1414
      1689.8754
  -2602543.72348  -2023594.18444  22118699.0554   22118698.8794
      1653.9414
 04  9 10 15 12  0.0000000  0  7G11G14G15G19G22G25G 1
  -1731021.73849  -1347340.28145  21755069.9224   21755067.2194
       873.6034
   3630096.46549   2816703.87946  21196616.5084   21196613.8204
     -2782.0344
   6328043.90248   4890996.41042  23651439.7664   23651440.3164
     -4592.4174
   4707678.53948   3651308.25843  23794632.8054   23794629.1454
     -3484.0674
   4269230.13748   3310511.10243  23033561.1254   23033558.6024
     -3115.0504
  -2779417.68749  -2152317.05545  21760986.7664   21760985.7234
      1683.5694
  -2627280.50049  -2042869.57844  22113992.2504   22113991.5234
      1649.1184
 04  9 10 15 12 15.0000000  0  7G11G14G15G19G22G25G 1
  -1744008.01649  -1357459.46945  21752598.6024   21752595.7074
       865.7524
   3671894.52049   2849273.76646  21204570.6724   21204568.4574
     -2786.5374
   6396968.82047   4944704.09842  23664554.9844   23664556.7424
     -4594.9954
   4759985.05148   3692066.54343  23804586.0864   23804582.8754
     -3487.1014
   4315993.73448   3346950.22744  23042460.3834   23042457.4694
     -3117.5734
  -2804574.57449  -2171919.79745  21756199.5944   21756198.4654
      1677.1264
  -2651942.97748  -2062087.07844  22109299.1954   22109298.0434
      1644.1654
 04  9 10 15 12 30.0000000  0  7G11G14G15G19G22G25G 1
  -1756877.30148  -1367487.47345  21750149.7734   21750147.0434
       857.9524
   3713758.91849   2881895.36746  21212537.0164   21212534.8524
     -2790.9604
   6465931.11347   4998440.89842  23677678.9304   23677679.1914
     -4597.4864
   4812335.71548   3732859.25443  23814548.7424   23814544.6134
     -3490.0444
   4362794.14848   3383418.03543  23051366.0944   23051363.1844
     -3120.0284
  -2829635.38349  -2191447.69545  21751430.2274   21751429.5044
      1670.7214
  -2676532.11748  -2081247.43444  22104619.8834   22104619.2234
      1639.2764
 04  9 10 15 12 45.0000000  0  7G11G14G15G19G22G25G 1
  -1769629.49249  -1377424.25445  21747723.4064   21747720.2814
       850.1464
   3755689.22349   2914568.30546  21220516.1334   21220514.0434
     -2795.3544
   6534930.24647   5052206.41442  23690808.5234   23690808.9734
     -4599.9424
   4864729.92248   3773685.90243  23824518.1884   23824515.4144
     -3492.9474
   4409631.10548   3419914.32044  23060278.7734   23060276.4534
     -3122.4644
  -2854600.05949  -2210900.66845  21746680.1484   21746678.6024
      1664.3124
  -2701048.06649  -2100350.77044  22099954.8204   22099953.6884
      1634.3974
 04  9 10 15 13  0.0000000  0  7G11G14G15G19G22G25G 1
  -1782263.82849  -1387269.19145  21745318.7274   21745315.8984
       842.2894
   3797685.91449   2947292.98446  21228507.8524   21228505.7584
     -2799.7794
   6603966.69147   5106000.99642  23703945.6644   23703945.5944
     -4602.4304
   4917167.96548   3814546.69143  23834497.3984   23834494.4924
     -3495.8704
   4456505.35248   3456439.66444  23069198.9224   23069196.5204
     -3124.9504
  -2879467.65649  -2230278.00845  21741948.0234   21741946.7274
      1657.8404
  -2725490.02748  -2119396.44144  22095303.3134   22095302.6374
      1629.4644
 04  9 10 15 13 15.0000000  0  7G11G14G15G19G22G25G 1
  -1794780.91449  -1397022.77345  21742936.8204   21742933.8634
       834.4724
   3839747.87949   2980068.52045  21236511.7194   21236509.8954
     -2804.1314
   6673039.27347   5159823.71942  23717090.2194   23717090.0474
     -4604.8394
   4969648.54748   3855440.62143  23844483.9304   23844481.4734
     -3498.7054
   4503415.93848   3492993.31343  23078125.5944   23078123.0904
     -3127.3724
  -2904238.78549  -2249580.17245  21737234.6564   21737232.8754
      1651.4094
  -2749858.80548  -2138385.09844  22090666.1414   22090665.4654
      1624.5854
 04  9 10 15 13 30.0000000  0  7G11G14G15G19G22G25G 1
  -1807179.51249  -1406684.01645  21740577.3834   21740574.6174
       826.5734
   3881875.84849   3012895.49646  21244528.8914   21244526.2194
     -2808.5314
   6742148.84447   5213675.27342  23730241.3364   23730241.1724
     -4607.3054
   5022172.43448   3896368.28943  23854478.5084   23854476.0984
     -3501.5924
   4550363.94148   3529576.11743  23087059.7894   23087056.2894
     -3129.8674
  -2928912.16449  -2268806.16445  21732539.3444   21732537.5594
      1644.8924
  -2774153.23848  -2157315.82044  22086043.5634   22086042.2034
      1619.6294
 04  9 10 15 13 45.0000000  0  7G11G14G15G19G22G25G 1
  -1819459.50849  -1416252.84845  21738240.7424   21738237.8754
       818.6664
   3924069.51649   3045773.65646  21252558.1954   21252555.8204
     -2812.9114
   6811294.85947   5267555.25442  23743399.5944   23743399.7544
     -4609.7344
   5074739.04347   3937329.23443  23864481.2504   23864479.6174
     -3504.4414
   4597349.26648   3566187.98843  23096000.7894   23095997.7544
     -3132.3554
  -2953487.61749  -2287955.85545  21727862.3754   21727861.3594
      1638.3644
  -2798373.42648  -2176188.68044  22081434.3134   22081433.6604
      1614.6794
 04  9 10 15 14  0.0000000  0  7G11G14G15G19G22G25G 1
  -1831621.33249  -1425729.59845  21735926.5084   21735923.5084
       810.7884
   3966327.91049   3078702.25846  21260599.5164   21260597.4574
     -2817.2264
   6880476.31346   5321462.84842  23756563.4534   23756564.5594
     -4612.0974
   5127347.19948   3978322.58643  23874492.2504   23874490.5164
     -3507.2104
   4644371.07048   3602828.31343  23104948.3754   23104946.8984
     -3134.7874
  -2977965.63349  -2307029.62945  21723204.5784   21723203.2584
      1631.8684
  -2822519.99648  -2195004.17644  22076839.3594   22076838.3674
      1609.7714
 04  9 10 15 14 15.0000000  0  7G11G14G15G19G22G25G 1
  -1843664.83249  -1435114.14545  21733634.9774   21733631.4064
       802.9004
   4008650.75049   3111681.07846  21268653.4454   21268651.6054
     -2821.5234
   6949692.93446   5375397.80542  23769735.6094   23769736.7894
     -4614.4414
   5179996.62547   4019348.05943  23884511.3134   23884509.4654
     -3509.9624
   4691429.38348   3639497.08243  23113903.3984   23113901.9264
     -3137.2214
  -3002345.92649  -2326027.25045  21718565.1564   21718563.5664
      1625.3534
  -2846592.89548  -2213762.27044  22072257.8674   22072257.3594
      1604.8604
 04  9 10 15 14 30.0000000  0  7G11G14G15G19G22G25G 1
  -1855590.17249  -1444406.63745  21731365.2894   21731362.7234
       795.0234
   4051037.39549   3144709.61345  21276719.2034   21276716.9304
     -2825.7764
   7018944.09446   5429359.68042  23782913.7504   23782914.8054
     -4616.7444
   5232686.45347   4060405.03943  23894537.6414   23894535.5004
     -3512.6554
   4738523.83248   3676194.00843  23122865.3444   23122863.1844
     -3139.6304
  -3026628.54349  -2344948.75445  21713944.5314   21713943.4264
      1618.8414
  -2870592.37948  -2232463.15244  22067691.2424   22067690.7894
      1599.9664
 04  9 10 15 14 45.0000000  0  7G11G14G15G19G22G25G 1
  -1867395.79349  -1453605.81645  21729118.4694   21729115.6844
       787.0414
   4093489.15649   3177788.89146  21284797.0314   21284795.4534
     -2830.1174
   7088230.86746   5483349.31642  23796098.5474   23796099.9224
     -4619.1184
   5285417.85947   4101494.41443  23904572.5634   23904570.2734
     -3515.4274
   4785655.82848   3712920.18443  23131834.7034   23131831.4384
     -3142.1334
  -3050811.80149  -2363792.83245  21709342.3754   21709340.8954
      1612.2174
  -2894517.06648  -2251105.75444  22063138.3984   22063137.8404
      1594.9794
 04  9 10 15 15  0.0000000  0  7G11G14G15G19G22G25G 1
  -1879082.02349  -1462711.97345  21726894.8054   21726892.0124
       779.0824
   4136005.21149   3210918.27046  21292887.9694   21292886.0634
     -2834.4044
   7157552.44946   5537366.10242  23809290.0864   23809291.5314
     -4621.4394
   5338189.74648   4142615.33243  23914614.6884   23914612.4534
     -3518.1264
   4832824.62948   3749675.07443  23140809.9384   23140806.7854
     -3144.5874
  -3074896.10949  -2382559.83245  21704759.5474   21704757.9884
      1605.6214
  -2918367.41448  -2269690.43444  22058599.8444   22058599.1454
      1590.0234
 04  9 10 15 15 15.0000000  0  7G11G14G15G19G22G25G 1
  -1890649.19149  -1471725.35545  21724693.6484   21724690.5234
       771.1454
   4178584.82849   3244097.16845  21300990.5004   21300988.0314
     -2838.6414
   7226907.98846   5591409.32842  23822487.8674   23822488.6484
     -4623.7034
   5391001.10947   4183767.00043  23924663.3364   23924661.7584
     -3520.7584
   4880029.78548   3786458.27043  23149793.1644   23149790.1954
     -3147.0104
  -3098881.60549  -2401249.81245  21700194.7814   21700193.4774
      1599.0334
  -2942143.87548  -2288217.53144  22054075.2974   22054074.6884
      1585.0974
 04  9 10 15 15 30.0000000  0  7G11G14G15G19G22G25G 1
  -1902096.31249  -1480645.19145  21722515.3594   21722512.8244
       763.1414
   4221228.47349   3277325.96545  21309105.3754   21309103.1914
     -2842.9104
   7296298.02346   5645479.43842  23835692.4144   23835693.4064
     -4626.0024
   5443852.38747   4224949.80942  23934720.9694   23934719.0164
     -3523.4184
   4927272.03948   3823270.39144  23158782.8594   23158780.6334
     -3149.4844
  -3122767.16449  -2419861.92245  21695649.7584   21695648.2304
      1592.3714
  -2965845.67248  -2306686.46544  22049565.3594   22049564.2664
      1580.1204
 04  9 10 15 15 45.0000000  0  7G11G14G15G19G22G25G 1
  -1913423.28549  -1489471.41045  21720359.8054   21720357.2504
       755.1324
   4263935.66449   3310604.28145  21317232.4064   21317230.1804
     -2847.1464
   7365722.09847   5699576.06342  23848903.5394   23848903.9384
     -4628.2724
   5496743.25447   4266163.42642  23944785.8444   23944783.8524
     -3526.0584
   4974551.28148   3860111.30943  23167779.9924   23167777.7304
     -3151.9494
  -3146552.68749  -2438396.08645  21691123.4844   21691121.8284
      1585.7024
  -2989472.76649  -2325097.18444  22045068.7974   22045068.3444
      1575.1404
 04  9 10 15 16  0.0000000  0  7G11G14G15G19G22G25G 1
  -1924627.79749  -1498202.21145  21718227.8444   21718225.4264
       746.9674
   4306708.55549   3343933.77745  21325371.5554   21325369.2814
     -2851.5264
   7435182.13747   5753700.72342  23862121.1414   23862122.4804
     -4630.6694
   5549675.46947   4307409.27742  23954858.2814   23954855.9804
     -3528.8144
   5021869.65248   3896982.71943  23176784.7974   23176782.3134
     -3154.5584
  -3170235.68049  -2456850.35945  21686616.5784   21686615.1054
      1578.8664
  -3013022.93448  -2343447.95744  22040587.7664   22040586.9804
      1570.0114
 04  9 10 15 16 15.0000000  0  7G11G14G15G19G22G25G 1
  -1935712.26649  -1506839.47345  21716118.5944   21716115.9184
       738.9654
   4349544.18849   3377312.18045  21333522.8754   21333520.4804
     -2855.7094
   7504675.19546   5807851.10542  23875344.8834   23875347.0234
     -4632.8714
   5602645.89146   4348684.91042  23964938.6564   23964936.4144
     -3531.3614
   5069224.59048   3933882.62543  23185796.0944   23185793.3524
     -3156.9964
  -3193818.58249  -2475226.63745  21682129.0474   21682127.5204
      1572.1934
  -3036498.73049  -2361740.78144  22036120.3284   22036119.7704
      1565.0534
 04  9 10 15 16 30.0000000  0  7G11G14G15G19G22G25G 1
  -1946676.43749  -1515382.99245  21714032.2194   21714029.9224
       730.9454
   4392442.42649   3410739.35245  21341686.1954   21341684.1094
     -2859.8834
   7574201.05546   5862027.04342  23888575.5944   23888577.2584
     -4635.0574
   5655654.19946   4389990.04342  23975025.3444   23975023.5864
     -3533.8874
   5116616.03948   3970810.98444  23194814.5314   23194811.6954
     -3159.4304
  -3217301.01649  -2493524.63345  21677659.9844   21677658.5314
      1565.4964
  -3059900.02748  -2379975.56644  22031667.2274   22031666.4414
      1560.0864
 04  9 10 15 16 45.0000000  0  7G11G14G15G19G22G25G 1
  -1957520.47749  -1523832.90245  21711968.4614   21711966.2814
       722.9364
   4435402.44549   3444214.66845  21349861.7034   21349859.0744
     -2864.0014
   7643758.90646   5916227.90642  23901812.4694   23901813.8524
     -4637.1904
   5708699.57046   4431324.04742  23985120.1644   23985117.2344
     -3536.3584
   5164043.52748   4007767.42643  23203839.1484   23203836.4574
     -3161.8334
  -3240683.16049  -2511744.47745  21673211.1174   21673208.9804
      1558.8104
  -3083227.26248  -2398152.62944  22027228.4064   22027227.5664
      1555.1494
 04  9 10 15 17  0.0000000  0  7G11G14G15G19G22G25G 1
  -1968243.59449  -1532188.57845  21709927.9924   21709926.0514
       714.8744
   4478424.73449   3477738.51245  21358048.3594   21358045.6764
     -2868.1534
   7713349.21946   5970454.07842  23915054.6174   23915056.1954
     -4639.3544
   5761782.30546   4472687.18842  23995221.7274   23995219.2384
     -3538.8494
   5211507.80148   4044752.53943  23212871.7504   23212868.7074
     -3164.2854
  -3263964.16049  -2529885.50445  21668780.7344   21668779.0004
      1552.0674
  -3106479.68049  -2416271.39544  22022803.6094   22022802.3364
      1550.1614
 04  9 10 15 17 15.0000000  0  7G11G14G15G19G22G25G 1
  -1978844.55149  -1540449.09045  21707910.8284   21707908.4844
       706.7304
   4521510.00449   3511311.43045  21366247.6644   21366244.5744
     -2872.3514
   7782972.61347   6024705.99242  23928304.0084   23928304.8914
     -4641.5604
   5814902.93046   4514079.85242  24005329.8594   24005327.5394
     -3541.3754
   5259009.60948   4081766.92243  23221910.8134   23221908.1884
     -3166.7874
  -3287142.81649  -2547946.79345  21664369.8444   21664368.4804
      1545.2444
  -3129656.25048  -2434331.05144  22018393.0164   22018392.0084
      1545.1054
 04  9 10 15 17 30.0000000  0  7G11G14G15G19G22G25G 1
  -1989323.95349  -1548614.85945  21705916.2034   21705914.0044
       698.6274
   4564657.44949   3544932.80145  21374457.9064   21374455.6414
     -2876.4964
   7852628.10547   6078982.94542  23941559.0554   23941560.3284
     -4643.6994
   5868060.46146   4555501.25842  24015445.9304   24015442.9574
     -3543.8354
   5306548.40248   4118810.09843  23230957.4224   23230954.6994
     -3169.2534
  -3310219.44549  -2565928.56645  21659978.5784   21659977.4734
      1538.4424
  -3152757.56249  -2452332.08644  22013997.1884   22013996.0394
      1540.0884
 04  9 10 15 17 45.0000000  0  7G11G14G15G19G22G25G 1
  -1999683.68749  -1556687.39145  21703945.1174   21703942.5744
       690.6494
   4607864.62949   3578600.69946  21382680.2584   21382677.8984
     -2880.4794
   7922313.25847   6133283.01642  23954819.1174   23954820.2664
     -4645.6774
   5921252.29346   4596949.41042  24025567.1334   24025565.0864
     -3546.1224
   5354122.08648   4155880.44543  23240010.3914   23240007.6174
     -3171.5794
  -3333196.03149  -2583832.39545  21655606.4304   21655604.9574
      1531.7724
  -3175785.75448  -2470276.12944  22009615.3204   22009614.2154
      1535.2134
 04  9 10 15 18  0.0000000  0  7G11G14G15G19G22G25G 1
  -2009921.73449  -1564665.10545  21701997.1024   21701994.0984
       682.5364
   4651133.10249   3612316.37146  21390913.9144   21390911.5354
     -2884.5654
   7992029.50447   6187607.30542  23968086.2734   23968087.1644
     -4647.7504
   5974479.75446   4638425.29742  24035696.6804   24035694.1804
     -3548.4974
   5401732.19948   4192979.19143  23249070.2194   23249067.8444
     -3174.0084
  -3356070.68749  -2601656.79345  21651253.5784   21651251.9734
      1524.9774
  -3198738.98449  -2488161.76245  22005247.2194   22005246.2894
      1530.2154
 04  9 10 15 18 15.0000000  0  7G11G14G15G19G22G25G 1
  -2020038.20349  -1572548.06245  21700071.5084   21700068.8014
       674.4314
   4694462.32049   3646079.37546  21399159.4064   21399156.7114
     -2888.6154
   8061776.38347   6241955.46142  23981358.9304   23981359.7274
     -4649.7924
   6027742.35946   4679928.60542  24045831.7274   24045829.3164
     -3550.8404
   5449378.52348   4230106.15643  23258136.7734   23258135.1994
     -3176.4224
  -3378843.09449  -2619401.50845  21646919.8364   21646918.4654
      1518.1604
  -3221617.39148  -2505989.09444  22000893.3674   22000892.3794
      1525.2274
 04  9 10 15 18 30.0000000  0  7G11G14G15G19G22G25G 1
  -2030031.10249  -1580334.75045  21698170.2424   21698166.8364
       666.1934
   4737853.85949   3679890.94146  21407416.7424   21407414.0314
     -2892.7694
   8131555.45747   6296328.72342  23994637.6094   23994638.2704
     -4651.9384
   6081041.46945   4721460.33242  24055974.4844   24055971.7894
     -3553.2744
   5497062.98848   4267262.84843  23267210.9694   23267208.9104
     -3178.9644
  -3401511.16848  -2637064.92245  21642606.1954   21642604.7584
      1511.2054
  -3244419.14149  -2523756.68044  21996554.6334   21996553.7774
      1520.1174
 04  9 10 15 18 45.0000000  0  7G11G14G15G19G22G25G 1
  -2039899.99249  -1588024.79745  21696292.6024   21696289.1524
       657.9264
   4781307.70349   3713751.05946  21415685.7814   21415682.7814
     -2896.9234
   8201366.56647   6350726.92242  24007922.5084   24007923.3834
     -4654.0744
   6134376.81646   4763020.27342  24066125.0394   24066121.5204
     -3555.6904
   5544785.64148   4304449.27743  23276292.2274   23276289.9224
     -3181.5104
  -3424074.57049  -2654646.78145  21638312.7034   21638311.0434
      1504.2274
  -3267143.93048  -2541464.31244  21992230.3594   21992228.9574
      1514.9864
 04  9 10 15 19  0.0000000  0  7G11G14G15G19G22G25G 1
  -2049647.66449  -1595620.38745  21694437.6094   21694433.8484
       649.8454
   4824820.85249   3747657.38346  21423965.8284   21423963.3954
     -2900.8774
   8271206.62946   6405147.66442  24021211.8594   24021213.0394
     -4656.0044
   6187745.26646   4804606.06642  24076279.8984   24076278.2234
     -3557.8974
   5592543.72348   4341663.32843  23285380.3754   23285377.6214
     -3183.8724
  -3446535.79749  -2672149.00845  21634038.3204   21634037.0044
      1497.4154
  -3289794.58249  -2559114.16844  21987919.7664   21987919.1334
      1510.0434
 04  9 10 15 19 15.0000000  0  7G11G14G15G19G22G25G 1
  -2059272.14149  -1603119.98445  21692606.2814   21692603.2504
       641.6324
   4868394.67249   3781610.97746  21432257.5634   21432255.4804
     -2904.9214
   8341077.11746   6459592.14542  24034507.9774   24034509.2704
     -4658.0334
   6241148.16446   4846218.68842  24086442.0234   24086439.9614
     -3560.1934
   5640338.87548   4378906.24643  23294475.6644   23294473.4104
     -3186.3434
  -3468892.84849  -2689570.07845  21629784.2734   21629782.6024
      1490.4704
  -3312369.27048  -2576704.83244  21983623.9224   21983623.1214
      1504.9794
 04  9 10 15 19 30.0000000  0  8G20G11G14G15G19G22G25G 1
    -81334.33657    -58666.02052  24233717.3364   24233715.3834

  -2068774.38349  -1610524.33245  21690797.7034   21690794.4494
       633.4834
   4912027.89549   3815610.87146  21440560.5004   21440558.4064
     -2908.8824
   8410976.61347   6514059.21542  24047809.5944   24047811.1804
     -4659.9664
   6294583.97747   4887856.95342  24096611.3984   24096607.9414
     -3562.3874
   5688169.98848   4416177.20343  23303578.0944   23303575.3914
     -3188.7414
  -3491146.64849  -2706910.68745  21625549.1174   21625548.0594
      1483.5874
  -3334869.07448  -2594237.14544  21979342.5474   21979341.5784
      1499.9874
 04  9 10 15 19 45.0000000  0  8G20G11G14G15G19G22G25G 1
   -114433.54747    -84457.62142  24227418.7424   24227417.7774
      2206.6144
  -2078154.34449  -1617833.40245  21689012.9384   21689009.8714
       625.3314
   4955720.04749   3849656.67245  21448875.1024   21448872.8554
     -2912.8104
   8480904.57847   6568548.48442  24061117.1564   24061118.0704
     -4661.8644
   6348052.05547   4929520.37542  24106786.5084   24106782.6804
     -3564.5394
   5736036.78548   4453475.96943  23312686.4144   23312683.8094
     -3191.1204
  -3513297.19949  -2724170.84045  21621333.8054   21621332.4734
      1476.7034
  -3357294.23048  -2611711.27744  21975074.9774   21975074.2814
      1495.0104
 04  9 10 15 20  0.0000000  0  7G20G11G14G19G22G25G 1
   -147531.11347   -110247.93742  24221120.5864   24221118.4224
      2206.5044
  -2087411.91449  -1625047.09845  21687251.1884   21687248.6334
       617.1714
   4999470.80149   3883748.14545  21457200.4384   21457198.2304
     -2916.7174
   6401551.93446   4971208.53142  24116966.9614   24116963.5944
     -3566.6594
   5783939.24248   4490802.49243  23321802.2504   23321800.0274
     -3193.4974
  -3535344.43049  -2741350.48445  21617138.2664   21617137.3714
      1469.8154
  -3379644.78948  -2629127.29744  21970821.9844   21970820.9574
      1490.0374
 04  9 10 15 20 15.0000000  0  7G20G11G14G19G22G25G 1
   -180629.12547   -136038.60542  24214821.6484   24214819.5554
      2206.5344
  -2096548.96949  -1632166.88745  21685512.4924   21685509.8674
       609.1374
   5043277.76649   3917883.42245  21465536.4384   21465534.4884
     -2920.4644
   6455081.01646   5012919.50443  24127152.1484   24127150.6334
     -3568.6054
   5831875.10248   4528155.07443  23330923.9224   23330921.6914
     -3195.7244
  -3557290.15649  -2758451.03145  21612962.4064   21612961.2894
      1463.0484
  -3401922.85548  -2646486.80545  21966582.3984   21966581.3794
      1485.2044
 04  9 10 15 20 30.0000000  0  7G20G11G14G19G22G25G 1
   -213725.19146   -161827.73442  24208523.6024   24208522.6094
      2206.4044
  -2105563.34049  -1639191.07845  21683797.0394   21683794.4024
       600.9584
   5087142.93049   3952064.04745  21473883.8054   21473881.5274
     -2924.3444
   6508641.21146   5054654.66042  24137345.0084   24137342.9384
     -3570.6804
   5879846.51648   4565535.35543  23340052.9224   23340050.5634
     -3198.0944
  -3579131.82449  -2775470.50445  21608805.9614   21608804.4884
      1456.1114
  -3424126.03149  -2663787.97344  21962357.1254   21962356.1334
      1480.2124
 04  9 10 15 20 45.0000000  0  7G20G11G14G19G22G25G 1
   -246817.83247   -187614.18442  24202226.3754   24202225.5234
      2206.1764
  -2114453.33649  -1646118.35245  21682105.4694   21682102.8754
       592.6664
   5131067.51649   3986290.96945  21482242.5314   21482240.3204
     -2928.3064
   6562233.59447   5096414.91843  24147543.8754   24147541.4884
     -3572.8264
   5927855.00848   4602944.52743  23349188.3524   23349185.8284
     -3200.5664
  -3600867.75049  -2792407.57045  21604669.6564   21604668.7504
      1449.0624
  -3446252.86348  -2681029.64844  21958146.5704   21958145.5044
      1475.1224
 04  9 10 15 21  0.0000000  0  7G20G11G14G19G22G25G 1
   -279908.09447   -213398.80542  24195929.9694   24195928.0314
      2206.0174
  -2123219.84849  -1652949.40645  21680437.1564   21680434.3524
       584.4344
   5175050.07449   4020563.08245  21490611.9064   21490609.9384
     -2932.1714
   6615856.48847   5138198.94942  24157747.1094   24157744.4884
     -3574.8604
   5975899.41448   4640381.67243  23358331.4454   23358329.1024
     -3202.9604
  -3622498.85549  -2809262.96145  21600553.6804   21600552.1644
      1442.0744
  -3468304.48449  -2698212.72344  21953950.8134   21953949.2274
      1470.1084
 04  9 10 15 21 15.0000000  0  7G20G11G14G19G22G25G 1
   -312993.18447   -239179.40242  24189633.6334   24189631.6294
      2205.6734
  -2131859.91849  -1659681.93745  21678793.0474   21678790.3914
       576.0054
   5219093.19949   4054882.37145  21498993.2734   21498991.1094
     -2936.2084
   6669512.50847   5180008.78542  24167958.0004   24167954.9264
     -3577.0684
   6023982.29748   4677848.80543  23367481.0314   23367478.6374
     -3205.5264
  -3644022.22349  -2826034.39845  21596457.8054   21596456.2974
      1434.8914
  -3490278.07849  -2715334.98045  21949768.9924   21949768.2034
      1464.9064
 04  9 10 15 21 30.0000000  0  7G20G11G14G19G22G25G 1
   -346073.39847   -264956.19142  24183339.1094   24183336.2974
      2205.3484
  -2140373.86749  -1666316.18745  21677172.6804   21677170.1054
       567.5974
   5263196.17249   4089248.31345  21507385.7894   21507383.7344
     -2940.1984
   6723200.67646   5221843.71942  24178174.3674   24178171.6094
     -3579.2114
   6072103.36348   4715345.70344  23376638.6414   23376636.6214
     -3208.0714
  -3665437.76649  -2842721.82445  21592382.3524   21592380.8984
      1427.7034
  -3512174.01249  -2732396.73445  21945602.7034   21945601.2974
      1459.7294
 04  9 10 15 21 45.0000000  0  7G20G11G14G19G22G25G 1
   -379147.88347   -290728.51242  24177045.9774   24177042.5824
      2204.9664
  -2148760.80949  -1672851.46945  21675576.7894   21675574.2504
       559.1294
   5307359.60249   4123661.35245  21515789.4454   21515787.7664
     -2944.2294
   6776921.48446   5263704.04342  24188396.8054   24188393.8484
     -3581.3874
   6120263.39148   4752872.96144  23385802.7274   23385800.9964
     -3210.6684
  -3686744.41849  -2859324.39845  21588327.8984   21588326.5314
      1420.4434
  -3533991.45349  -2749397.33245  21941450.8984   21941449.5864
      1454.4964
 04  9 10 15 22  0.0000000  0  7G20G11G14G19G22G25G 1
   -412218.10547   -316497.50042  24170752.1414   24170750.2464
      2204.6824
  -2157021.98049  -1679288.76645  21674004.6484   21674002.2624
       550.7454
   5351581.68849   4158120.09845  21524205.0944   21524202.9734
     -2948.1394
   6830672.84046   5305588.18842  24198625.4774   24198622.9264
     -3583.4244
   6168460.79748   4790429.33644  23394974.4224   23394972.4964
     -3213.1604
  -3707943.82849  -2875843.40645  21584293.6334   21584292.5784
      1413.2944
  -3555731.91449  -2766337.93445  21937313.4614   21937312.4494
      1449.3644
 04  9 10 15 22 15.0000000  0  7G20G11G14G19G22G25G 1
   -445281.99247   -342261.57442  24164460.1174   24164456.9304
      2204.2594
  -2165155.19149  -1685626.34845  21672456.9064   21672454.9064
       542.2144
   5395864.23449   4192625.95745  21532631.7194   21532629.6884
     -2952.1704
   6884456.41446   5347497.41442  24208860.4064   24208856.5664
     -3585.5724
   6216697.44948   4828016.29344  23404153.9384   23404151.2304
     -3215.7774
  -3729033.70749  -2892277.05945  21580280.5864   21580279.2704
      1405.9924
  -3577393.32049  -2783216.93745  21933191.7274   21933190.9414
      1444.0944
 04  9 10 15 22 30.0000000  0  7G20G11G14G19G22G25G 1
   -478342.28146   -368022.87142  24158168.9614   24158165.7344
      2204.0194
  -2173163.30949  -1691866.43045  21670933.2114   21670930.7504
       533.8744
   5440204.05949   4227176.44945  21541069.4144   21541067.5944
     -2955.9884
   6938268.84046   5389429.14542  24219100.3134   24219097.1214
     -3587.4954
   6264970.42248   4865631.55143  23413340.1174   23413337.8874
     -3218.1984
  -3750016.70349  -2908627.43045  21576287.4774   21576286.5554
      1398.8664
  -3598978.67649  -2800036.68445  21929083.8054   21929083.2464
      1439.0244
 04  9 10 15 22 45.0000000  0  7G20G11G14G19G22G25G 1
   -511399.46546   -393781.72342  24151878.6334   24151876.0474
      2203.8124
  -2181046.59449  -1698009.26245  21669433.2664   21669430.3444
       525.5524
   5484600.36349   4261770.94945  21549517.6414   21549515.8054
     -2959.7544
   6992109.25846   5431382.69942  24229346.1954   24229343.1724
     -3589.3614
   6313279.28548   4903274.77343  23422532.0944   23422531.4224
     -3220.5914
  -3770892.92249  -2924894.59845  21572314.9064   21572313.3444
      1391.7484
  -3620488.36349  -2816797.47345  21924990.6564   21924989.8484
      1433.9794
 04  9 10 15 23  0.0000000  0  7G20G11G14G19G22G25G 1
   -544451.24646   -419536.34842  24145588.5394   24145586.7464
      2203.4524
  -2188802.78549  -1704053.05545  21667956.8834   21667954.4184
       517.0794
   5529055.17649   4296411.04345  21557977.1024   21557974.6214
     -2963.6544
   7045979.57047   5473359.52342  24239596.7114   24239593.7584
     -3591.3544
   6361626.13748   4940947.60943  23431732.5004   23431731.0554
     -3223.1234
  -3791659.96149  -2941076.68445  21568363.1334   21568361.7274
      1384.4694
  -3641920.01249  -2833497.45345  21920912.5314   21920911.6484
      1428.7774
 04  9 10 15 23 15.0000000  0  7G20G11G14G19G22G25G 1
   -577498.86746   -445287.74642  24139299.3594   24139298.2734
      2203.1754
  -2196432.92649  -1709998.62145  21666505.4384   21666502.5664
       508.6764
   5573566.85249   4331095.44945  21566447.2274   21566445.1174
     -2967.4454
   7099877.91846   5515358.21542  24249853.5944   24249849.8014
     -3593.2234
   6410009.64848   4978648.98043  23440939.9614   23440937.8324
     -3225.5674
  -3812319.01649  -2957174.63745  21564432.4224   21564430.2934
      1377.2704
  -3663275.02748  -2850137.71545  21916848.3204   21916847.8094
      1423.6684
 04  9 10 15 23 30.0000000  0  6G20G11G14G22G25G 1
   -610543.10547   -471036.48442  24133012.4144   24133010.9574
      2202.9494
  -2203937.80149  -1715846.58245  21665077.0634   21665074.4534
       500.3254
   5618134.25849   4365823.27345  21574928.0474   21574926.8364
     -2971.1604
   6458428.82848   5016378.17243  23450153.7194   23450151.4924
     -3227.9454
  -3832870.72749  -2973188.94145  21560521.0784   21560519.5944
      1370.1144
  -3684554.30548  -2866718.94945  21912799.0784   21912798.0434
      1418.6184
 04  9 10 15 23 45.0000000  0  6G20G11G14G22G25G 1
   -643583.13347   -496781.92642  24126724.4454   24126723.3874
      2202.6684
  -2211316.49249  -1721596.23045  21663672.8594   21663670.2304
       491.9134
   5662758.02049   4400595.00445  21583419.7584   21583418.2734
     -2974.9174
   6506884.51248   5054135.79343  23459374.7734   23459372.8324
     -3230.3794
  -3853313.94949  -2989118.71545  21556631.1024   21556629.4064
      1362.8824
  -3705756.92648  -2883240.46545  21908764.3444   21908763.4964
      1413.5084
 04  9 10 15 24  0.0000000  0  6G20G11G14G22G25G 1
   -676617.78146   -522523.19142  24120438.0784   24120437.4494
      2202.3104
  -2218567.67249  -1727246.52045  21662292.9924   21662290.6414
       483.4124
   5707438.97749   4435411.32045  21591922.4224   21591920.5004
     -2978.7304
   6555377.61348   5091922.60543  23468602.3674   23468600.3094
     -3232.8734
  -3873647.51649  -3004963.03945  21552761.3054   21552759.6334
      1355.5714
  -3726881.85549  -2899701.43745  21904744.8984   21904743.8954
      1408.3294
 04  9 10 15 24 15.0000000  0  6G20G11G14G22G25G 1
   -709646.33647   -548259.71142  24114153.2974   24114151.6684
      2201.9044
  -2225690.65649  -1732796.90645  21660937.5164   21660935.1764
       474.8664
   5752177.48449   4470272.46545  21600435.5314   21600433.8834
     -2982.5674
   6603908.78948   5129739.05943  23477837.9064   23477835.1024
     -3235.4124
  -3893870.54349  -3020721.22745  21548913.5784   21548911.4224
      1348.2024
  -3747928.45749  -2916101.36745  21900739.3914   21900738.6954
      1403.1074
 04  9 10 15 24 30.0000000  0  6G20G11G14G22G25G 1
   -742668.59046   -573991.32042  24107869.4144   24107867.9734
      2201.4844
  -2232685.14549  -1738247.16845  21659606.9614   21659603.8054
       466.2994
   5796973.35549   4505178.31645  21608960.1884   21608958.0744
     -2986.3914
   6652478.13748   5167585.27043  23487079.8594   23487077.9414
     -3237.9574
  -3913982.64849  -3036392.98845  21545086.0234   21545084.1764
      1340.8074
  -3768896.55548  -2932440.14544  21896749.2734   21896748.2894
      1397.8734
 04  9 10 15 24 45.0000000  0  6G20G11G14G22G25G 1
   -775683.66047   -599717.34842  24101586.9844   24101584.8714
      2201.0054
  -2239550.21549  -1743596.58645  21658300.6254   21658297.8634
       457.6714
   5841827.21549   4540129.35245  21617495.8364   21617494.1804
     -2990.2574
   6701086.38748   5205461.79743  23496330.3524   23496327.8444
     -3240.5504
  -3933982.78949  -3051977.50445  21541280.2974   21541278.4024
      1333.3434
  -3789785.26648  -2948717.05545  21892774.3834   21892773.1054
      1392.5814
 04  9 10 15 25  0.0000000  0  6G20G11G14G22G25G 1
   -808692.45747   -625438.50042  24095305.3204   24095304.3204
      2200.5864
  -2246286.62948  -1748845.75045  21657018.7194   21657015.8204
       449.0944
   5886737.77749   4575124.56345  21626041.8594   21626040.2624
     -2994.0374
   6749732.49648   5243367.79743  23505587.3364   23505584.8954
     -3243.0744
  -3953871.93449  -3067475.51646  21537495.2034   21537493.5354
      1325.9434
  -3810595.61748  -2964932.90245  21888814.4774   21888813.0784
      1387.3574
 04  9 10 15 25 15.0000000  0  6G20G11G14G22G25G 1
   -841694.95347   -651154.71942  24089024.9384   24089024.4804
      2200.1664
  -2252894.35949  -1753994.63345  21655760.7504   21655758.3984
       440.5154
   5931704.82449   4610163.79345  21634598.7584   21634596.8594
     -2997.8034
   6798416.40248   5281303.25443  23514851.3754   23514849.1724
     -3245.5944
  -3973649.75449  -3082886.80145  21533731.9304   21533729.9844
      1318.5214
  -3831327.63748  -2981087.69945  21884869.0234   21884867.7734
      1382.1354
 04  9 10 15 25 30.0000000  0  6G20G11G14G22G25G 1
   -874690.60947   -676865.59842  24082746.5554   24082745.1454
      2199.7104
  -2259372.67248  -1759042.67645  21654528.4064   21654525.5004
       431.8884
   5976728.42649   4645247.09445  21643166.7424   21643164.5164
     -3001.5734
   6847138.60248   5319268.56343  23524122.8134   23524120.1174
     -3248.1474
  -3993315.58249  -3098210.79745  21529989.6884   21529987.6764
      1311.0554
  -3851980.77748  -2997181.05145  21880938.9384   21880938.1764
      1376.8764
 04  9 10 15 25 45.0000000  0  6G20G11G14G22G25G 1
   -907680.59847   -702572.07442  24076468.4534   24076467.6954
      2199.3334
  -2265722.71548  -1763990.77345  21653320.2584   21653317.5354
       423.3364
   6021807.24649   4680373.42645  21651745.0314   21651742.4304
     -3005.2554
   6895897.80948   5357262.70343  23533401.3204   23533399.1994
     -3250.6144
  -4012870.23049  -3113448.19146  21526268.3444   21526266.3674
      1303.6434
  -3872556.23448  -3013213.85545  21877023.7974   21877022.7384
      1371.6974
 04  9 10 15 26  0.0000000  0  6G20G11G14G22G25G 1
   -940664.84046   -728274.07042  24070191.9774   24070190.4024
      2198.9494
  -2271944.55549  -1768838.95745  21652135.8754   21652133.0474
       414.7894
   6066941.00849   4715542.56345  21660333.8284   21660330.8444
     -3008.9174
   6944693.77048   5395285.48843  23542687.2814   23542684.9414
     -3253.0644
  -4032313.77349  -3128598.99246  21522568.3284   21522566.7734
      1296.2364
  -3893054.08248  -3029186.18745  21873123.5004   21873122.1684
      1366.5234
 04  9 10 15 26 15.0000000  0  6G20G11G14G22G25G 1
   -973643.77347   -753971.96542  24063915.6884   24063914.7234
      2198.5964
  -2278038.28149  -1773587.32845  21650976.4384   21650973.7114
       406.2484
   6112128.97349   4750753.94945  21668932.3284   21668929.6134
     -3012.5314
   6993526.13348   5433336.63743  23551979.8834   23551977.1524
     -3255.4914
  -4051646.25449  -3143663.24646  21518889.7664   21518887.7664
      1288.8324
  -3913474.69548  -3045098.33245  21869236.9614   21869236.3404
      1361.3744
 04  9 10 15 26 30.0000000  0  6G20G11G14G22G25G 1
  -1006616.86747   -779665.27742  24057641.0314   24057639.6374
      2198.2064
  -2284003.59448  -1778235.62545  21649841.1414   21649838.8984
       397.6884
   6157371.25449   4786007.65645  21677542.0944   21677540.0234
     -3016.1524
   7042395.28148   5471416.45743  23561279.4454   23561276.5784
     -3257.9434
  -4070867.22749  -3158640.61345  21515231.7114   21515229.9654
      1281.3984
  -3933817.73848  -3060950.03145  21865365.8754   21865365.2424
      1356.2034
 04  9 10 15 26 45.0000000  0  6G20G11G14G22G25G 1
  -1039583.87147   -805353.84442  24051368.1174   24051366.8204
      2197.8004
  -2289840.00048  -1782783.47745  21648730.5164   21648728.1484
       389.0944
   6202667.65649   4821303.52745  21686161.9064   21686159.6454
     -3019.7604
   7091301.23848   5509524.96143  23570585.8834   23570583.3484
     -3260.3974
  -4089976.30549  -3173530.78545  21511595.2814   21511593.4804
      1273.9394
  -3954083.02348  -3076741.15245  21861509.8914   21861508.7704
      1351.0194
 04  9 10 15 27  0.0000000  0  6G20G11G14G22G25G 1
  -1072544.24647   -831037.24242  24045096.1024   24045094.8324
      2197.3584
  -2295546.91049  -1787230.42245  21647644.4384   21647642.0434
       380.4614
   6248018.47349   4856641.80945  21694791.8524   21694789.7304
     -3023.3884
   7140244.45748   5547662.49643  23579899.2734   23579896.8204
     -3262.8814
  -4108972.75049  -3188333.19945  21507980.5394   21507978.9184
      1266.4304
  -3974270.06248  -3092471.28945  21857668.1024   21857667.1724
      1345.8034
 04  9 10 15 27 15.0000000  0  6G20G11G14G22G25G 1
  -1105499.52046   -856716.69542  24038824.7034   24038823.2584
      2197.0184
  -2301125.86349  -1791577.66446  21646582.8364   21646580.4184
       371.9304
   6293421.90649   4892021.07445  21703431.7664   21703429.6374
     -3026.8964
   7189223.27048   5585827.75443  23589219.5474   23589217.5824
     -3265.2544
  -4127857.99649  -3203048.96145  21504386.7194   21504384.9304
      1259.0164
  -3994380.39148  -3108141.65645  21853841.4384   21853840.3714
      1340.6894
 04  9 10 15 27 30.0000000  0  6G20G11G14G22G25G 1
  -1138448.53946   -882391.24642  24032555.0474   24032552.9104
      2196.6014
  -2306575.54749  -1795824.18045  21645545.6334   21645543.4574
       363.3124
   6338878.85949   4927442.07045  21712081.9614   21712078.9804
     -3030.4644
   7238238.74248   5624021.58643  23598547.1174   23598544.0594
     -3267.6984
  -4146630.73049  -3217677.05146  21500814.4924   21500812.5314
      1251.5164
  -4014412.90248  -3123751.38345  21850029.1954   21850028.5124
      1335.5014
 04  9 10 15 27 45.0000000  0  6G20G11G14G22G25G 1
  -1171391.89146   -908061.38742  24026285.5474   24026284.9064
      2196.2234
  -2311896.62549  -1799970.48445  21644533.0634   21644530.8674
       354.7394
   6384388.34449   4962903.99645  21720742.0004   21720739.3484
     -3033.9664
   7287290.19948   5662243.46142  23607881.0554   23607878.3014
     -3270.0974
  -4165291.46549  -3232217.85945  21497263.1564   21497261.8524
      1244.0494
  -4034368.32848  -3139301.04745  21846232.1724   21846231.0434
      1330.3624
 04  9 10 15 28  0.0000000  0  6G20G11G14G22G25G 1
  -1204328.88346   -933726.58242  24020017.9304   24020016.2814
      2195.7994
  -2317088.38749  -1804016.02345  21643544.8984   21643542.9884
       346.1174
   6429950.64849   4998407.07445  21729412.3204   21729410.1724
     -3037.4874
   7336378.15248   5700493.77742  23617222.5084   23617219.2234
     -3272.5304
  -4183839.42649  -3246670.80145  21493733.8674   21493731.7704
      1236.5314
  -4054246.08648  -3154790.18745  21842448.8984   21842448.6374
      1325.1844
 04  9 10 15 28 15.0010000  0  6G20G11G14G22G25G 1
  -1237260.36746   -959387.43742  24013751.2554   24013749.3454
      2195.4324
  -2322149.69949  -1807959.91845  21642582.2084   21642579.4384
       337.4214
   6475569.94149   5033954.53945  21738092.9894   21738091.2514
     -3041.2864
   7385507.02748   5738775.97743  23626571.1854   23626569.4814
     -3275.2584
  -4202274.35249  -3261035.66445  21490225.4584   21490223.5714
      1228.9954
  -4074046.12148  -3170218.78945  21838681.4114   21838680.2434
      1320.0024
 04  9 10 15 28 30.0010000  0  6G20G11G14G22G25G 1
  -1270183.41046   -985041.78942  24007486.4744   24007483.6574
      2194.8704
  -2327081.23849  -1811802.69145  21641644.0364   21641641.0404
       328.7694
   6521238.41449   5069540.34845  21746783.8254   21746781.5174
     -3044.5654
   7434668.78548   5777083.79343  23635926.5524   23635924.8174
     -3277.4514
  -4220595.05549  -3275311.52345  21486739.2474   21486737.5754
      1221.3804
  -4093767.35948  -3185585.96945  21834928.3254   21834926.9464
      1314.7494
 04  9 10 15 28 45.0010000  0  6G20G11G14G22G25G 1
  -1303099.59846  -1010690.74642  24001222.7554   24001219.7864
      2194.4134
  -2331882.69949  -1815544.09845  21640729.9894   21640727.5484
       320.0974
   6566959.33649   5105167.02045  21755484.1534   21755482.0444
     -3048.0614
   7483867.23447   5815420.19142  23645288.5994   23645286.9274
     -3279.8974
  -4238802.02049  -3289498.75045  21483274.6854   21483272.8924
      1213.7984
  -4113410.43748  -3200892.22745  21831190.4664   21831189.5834
      1309.5394
 04  9 10 15 29  0.0010000  0  6G20G11G14G22G25G 1
  -1336009.73846  -1036335.03142  23994960.0214   23994956.9114
      2194.0094
  -2336554.90249  -1819184.78545  21639841.4114   21639838.4814
       311.4804
   6612731.51649   5140833.62545  21764194.4114   21764192.2394
     -3051.4794
   7533101.29347   5853784.34042  23654657.5674   23654655.3024
     -3282.2714
  -4256896.12149  -3303598.03946  21479831.5834   21479829.5214
      1206.2734
  -4132976.40648  -3216138.43045  21827467.3804   21827466.3964
      1304.3984
 04  9 10 15 29 15.0010000  0  6G20G11G14G22G25G 1
  -1368914.19546  -1061974.87542  23988698.9354   23988696.1814
      2193.6304
  -2341098.27349  -1822725.08645  21638976.5524   21638973.8644
       302.8914
   6658554.12949   5176539.54345  21772914.2864   21772912.3454
     -3054.8414
   7582370.39147   5892175.77342  23664033.5524   23664030.8534
     -3284.6074
  -4274877.57849  -3317609.55546  21476409.9194   21476408.1034
      1198.7644
  -4152465.77048  -3231324.91445  21823757.9504   21823757.9114
      1299.2914
 04  9 10 15 29 30.0010000  0  6G20G11G14G22G25G 1
  -1401810.88746  -1087608.65242  23982438.5444   23982436.0054
      2193.1134
  -2345510.49249  -1826163.19145  21638136.9584   21638134.4424
       294.1484
   6704429.19549   5212286.32045  21781643.6384   21781641.9744
     -3058.3384
   7631676.62147   5930596.15243  23673416.3334   23673414.0604
     -3287.0824
  -4292743.91449  -3331531.36346  21473009.5754   21473007.5214
      1191.0894
  -4171876.32849  -3246450.00845  21820064.8884   21820064.1344
      1294.0374
 04  9 10 15 29 45.0010000  0  6G20G11G14G22G25G 1
  -1434701.30147  -1113237.52342  23976180.0994   23976177.3604
      2192.6944
  -2349793.14149  -1829500.32045  21637321.5754   21637319.4114
       285.5104
   6750354.81349   5248072.48445  21790383.3174   21790381.2354
     -3061.7084
   7681018.35547   5969044.19943  23682805.2474   23682804.3684
     -3289.4494
  -4310496.59449  -3345364.60545  21469631.6064   21469629.8684
      1183.5124
  -4191209.61348  -3261514.88345  21816385.6614   21816385.1104
      1288.8864
 04  9 10 15 30  0.0010000  0  6G20G11G14G22G25G 1
  -1467583.89547  -1138860.32842  23969922.8414   23969920.6224
      2192.1734
  -2353944.59049  -1832735.23045  21636531.8564   21636529.0794
       276.7634
   6796332.14849   5283898.95345  21799132.1694   21799129.9854
     -3065.1564
   7730396.99647   6007521.00843  23692201.9504   23692200.6734
     -3291.9094
  -4328134.07849  -3359108.08246  21466275.0134   21466273.4424
      1175.8324
  -4210464.25848  -3276518.48045  21812721.5284   21812720.6104
      1283.6434
 04  9 10 15 30 15.0010000  0  6G20G11G14G22G25G 1
  -1500460.39847  -1164478.36742  23963666.8174   23963664.6694
      2191.7674
  -2357966.77349  -1835869.40645  21635766.4664   21635763.1734
       268.1464
   6842359.10249   5319764.09845  21807891.2714   21807888.8104
     -3068.4644
   7779810.66448   6046025.10943  23701605.0524   23701604.3884
     -3294.2454
  -4345657.92249  -3372763.00845  21462940.5364   21462939.1814
      1168.2564
  -4229642.02348  -3291462.16445  21809072.2864   21809071.2164
      1278.5184
 04  9 10 15 30 30.0010000  0  6G20G11G14G22G25G 1
  -1533329.24647  -1190090.44942  23957411.3564   23957409.8414
      2191.2574
  -2361857.80949  -1838901.39145  21635025.6694   21635023.2044
       259.4024
   6888436.87549   5355668.84845  21816659.5284   21816657.4784
     -3071.8524
   7829260.74248   6084557.55943  23711015.1774   23711014.0834
     -3296.6724
  -4363066.62149  -3386328.21146  21459627.2554   21459626.1534
      1160.5804
  -4248741.57048  -3306344.92645  21805437.8334   21805436.4704
      1273.3034
 04  9 10 15 30 45.0010000  0  6G20G11G14G22G25G 1
  -1566189.60247  -1215695.92242  23951159.0284   23951157.4584
      2190.6904
  -2365616.85949  -1841830.52345  21634310.3024   21634307.8334
       250.6034
   6934566.18849   5391613.73445  21825437.4274   21825435.6694
     -3075.2874
   7878748.01648   6123119.02743  23720432.5524   23720431.3024
     -3299.1524
  -4380359.11749  -3399802.86346  21456337.3024   21456335.7044
      1152.8334
  -4267762.01248  -3321166.03545  21801818.0214   21801817.1534
      1268.0294
 04  9 10 15 31  0.0010000  0  6G20G11G14G22G25G 1
  -1599044.16447  -1241296.86742  23944906.3024   23944904.2554
      2190.3044
  -2369246.53148  -1844658.84845  21633619.6924   21633616.8414
       241.9784
   6980743.97749   5427596.41045  21834225.0134   21834222.9814
     -3078.5194
   7928269.71148   6161707.32043  23729855.5674   23729854.5214
     -3301.4464
  -4397537.78549  -3413188.82446  21453067.9744   21453066.9354
      1145.2454
  -4286706.09448  -3335927.62945  21798213.2474   21798212.1734
      1262.9394
 04  9 10 15 31 15.0010000  0  6G20G11G14G22G25G 1
  -1631890.48047  -1266891.39542  23938655.5054   23938653.7714
      2189.7544
  -2372744.37148  -1847384.45745  21632954.4424   21632951.9114
       233.1894
   7026972.19949   5463618.37945  21843021.6464   21843019.5754
     -3081.8824
   7977828.05548   6200324.14543  23739285.9814   23739284.6464
     -3303.8904
  -4414600.26649  -3426484.23846  21449821.3964   21449820.2124
      1137.4994
  -4305571.48848  -3350627.93445  21794623.2784   21794622.3334
      1257.6934
 04  9 10 15 31 30.0010000  0  6G20G11G14G22G25G 1
  -1664727.92246  -1292478.99242  23932406.7634   23932405.7204
      2189.1634
  -2376109.59848  -1850006.71145  21632313.9504   21632311.5014
       224.3484
   7073251.27349   5499679.98045  21851828.5524   21851825.8254
     -3085.2724
   8027423.57848   6238969.94943  23748724.0134   23748722.5484
     -3306.3684
  -4431545.85949  -3439688.58246  21446596.5054   21446595.3134
      1129.7064
  -4324357.60248  -3365266.44945  21791048.2474   21791047.3254
      1252.4084
 04  9 10 15 31 45.0010000  0  6G20G11G14G22G25G 1
  -1697558.98846  -1318061.61342  23926159.1384   23926157.7124
      2188.7384
  -2379344.96148  -1852527.79345  21631698.5444   21631696.0604
       215.6914
   7119578.28549   5535778.93845  21860644.2004   21860641.7084
     -3088.4674
   8077053.62948   6277642.66443  23758168.3884   23758167.0954
     -3308.6704
  -4448377.00849  -3452803.74646  21443393.5524   21443392.2864
      1122.0774
  -4343067.04748  -3379845.21145  21787488.0674   21787486.7944
      1247.2964
 04  9 10 15 32  0.0010000  0  6G20G11G14G22G25G 1
  -1730381.35246  -1343637.49242  23919914.0054   23919912.1534
      2188.1584
  -2382448.07848  -1854945.81245  21631108.0364   21631105.6654
       206.8744
   7165955.36349   5571916.89845  21869469.3644   21869467.8924
     -3091.8054
   8126720.42248   6316344.00843  23767619.7004   23767618.6104
     -3311.1204
  -4465091.23049  -3465827.80146  21440212.9114   21440211.7314
      1114.2824
  -4361697.57848  -3394362.49645  21783942.7244   21783941.2984
      1242.0354
 04  9 10 15 32 15.0010000  0  6G20G11G14G22G25G 1
  -1763198.24246  -1369209.07442  23913669.1304   23913666.2864
      2187.7934
  -2385422.02049  -1857263.18745  21630542.4274   21630539.3454
       198.2634
   7212378.83649   5608091.01245  21878303.8334   21878301.7434
     -3094.8984
   8176420.42648   6355071.19943  23777077.2474   23777076.5134
     -3313.3344
  -4481691.49249  -3478763.04746  21437054.1384   21437052.5324
      1106.6844
  -4380252.53948  -3408820.89145  21780411.6774   21780410.8684
      1236.9974
 04  9 10 15 32 30.0010000  0  6G20G11G14G22G25G 1
  -1796004.12946  -1394772.14142  23907426.1224   23907423.5834
      2187.0594
  -2388261.33649  -1859475.64546  21630001.9814   21629999.2944
       189.2884
   7258853.97349   5644305.37545  21887147.5754   21887145.5014
     -3098.3424
   8226159.23847   6393828.64843  23786542.4194   23786541.2394
     -3315.9214
  -4498172.22349  -3491605.16046  21433917.7864   21433916.6224
      1098.7154
  -4398726.40248  -3423216.09445  21776896.3024   21776895.4424
      1231.5914
 04  9 10 15 32 45.0010000  0  6G20G11G14G22G25G 1
  -1828800.22746  -1420327.50442  23901185.1064   23901183.7944
      2186.4074
  -2390967.16848  -1861584.09445  21629486.8724   21629484.3564
       180.3894
   7305379.18449   5680558.76245  21896000.9354   21895999.1654
     -3101.6814
   8275935.40248   6432615.19943  23796014.9664   23796013.6734
     -3318.4114
  -4514534.59849  -3504355.04746  21430804.2634   21430802.5524
      1090.8254
  -4417120.54348  -3437549.18445  21773396.5834   21773395.1424
      1226.2764
 04  9 10 15 33  0.0010000  0  6G20G11G14G22G25G 1
  -1861587.30146  -1445875.87542  23894946.1774   23894945.0874
      2185.8054
  -2393540.37949  -1863589.19145  21628997.3644   21628994.7784
       171.5474
   7351953.31349   5716850.27045  21904863.5914   21904861.3104
     -3104.9424
   8325748.02748   6471430.18443  23805493.8564   23805492.5364
     -3320.8424
  -4530779.21949  -3517013.18446  21427712.8964   21427711.5054
      1082.9754
  -4435435.81648  -3451820.81645  21769911.2084   21769909.6574
      1221.0184
 04  9 10 15 33 15.0010000  0  6G20G11G14G22G25G 1
  -1894368.36346  -1471419.56242  23888707.4354   23888706.4814
      2185.4044
  -2395983.86349  -1865493.21945  21628532.6384   21628529.8334
       162.8994
   7398573.03549   5753177.30545  21913735.3174   21913733.0634
     -3107.9824
   8375593.96148   6510271.10243  23814979.1534   23814977.8174
     -3323.0624
  -4546909.16449  -3529581.95746  21424643.6854   21424642.0914
      1075.3304
  -4453675.38748  -3466033.44945  21766440.2784   21766438.9274
      1215.9714
 04  9 10 15 33 30.0010000  0  6G20G11G14G22G25G 1
  -1927139.08646  -1496955.18042  23882471.6534   23882470.5014
      2184.7154
  -2398293.27749  -1867292.75845  21628092.5834   21628090.4464
       153.9614
   7445242.48849   5789543.08245  21922616.0214   21922614.1424
     -3111.2974
   8425477.35947   6549141.23443  23824471.4664   23824470.3334
     -3325.5604
  -4562919.98449  -3542057.91046  21421597.2164   21421595.3104
      1067.3884
  -4471834.94948  -3480183.76245  21762984.4894   21762983.3564
      1210.6384
 04  9 10 15 33 45.0010000  0  6G20G11G14G22G25G 1
  -1959901.54746  -1522484.36342  23876237.2164   23876236.2004
      2184.1644
  -2400470.68049  -1868989.44545  21627678.3104   21627675.9584
       145.1604
   7491959.16449   5825945.66445  21931505.6614   21931504.4384
     -3114.4454
   8475396.04748   6588038.84842  23833971.7864   23833969.1774
     -3327.9124
  -4578813.72749  -3554442.63346  21418572.4744   21418570.7124
      1059.5834
  -4489916.60248  -3494273.34045  21759543.5364   21759542.6854
      1205.4434
 04  9 10 15 34  0.0010000  0  6G20G11G14G22G25G 1
  -1992656.34046  -1548007.58642  23870004.1694   23870003.4354
      2183.6534
  -2402516.66449  -1870583.72345  21627289.1224   21627286.4854
       136.3994
   7538722.16049   5862384.33244  21940405.0214   21940402.7984
     -3117.5334
   8525349.23048   6626963.35943  23843477.0134   23843474.8064
     -3330.2124
  -4594590.78949  -3566736.43446  21415570.4194   21415568.4114
      1051.8044
  -4507921.06248  -3508302.78145  21756117.0834   21756116.3994
      1200.2974
 04  9 10 15 34 15.0010000  0  6G20G11G14G22G25G 1
  -2025401.42647  -1573523.21142  23863773.1924   23863772.1614
      2183.0064
  -2404429.22749  -1872074.02345  21626925.1464   21626922.5444
       127.5044
   7585533.18849   5898860.43445  21949312.9034   21949310.5524
     -3120.7354
   8575338.82048   6665916.22742  23852990.0444   23852987.8454
     -3332.6394
  -4610248.92249  -3578937.57446  21412590.4194   21412588.9504
      1043.8764
  -4525846.41848  -3522270.57445  21752706.0284   21752705.5244
      1195.0244
 04  9 10 15 34 30.0010000  0  6G20G11G14G22G25G 1
  -2058137.48046  -1599031.80942  23857543.7394   23857543.0404
      2182.4044
  -2406208.98849  -1873460.86745  21626586.3724   21626583.6104
       118.6514
   7632391.23448   5935373.16045  21958229.5444   21958227.1104
     -3123.8704
   8625364.08648   6704896.89543  23862509.2244   23862507.3064
     -3335.0184
  -4625788.77049  -3591046.54346  21409633.5524   21409631.3064
      1035.9904
  -4543693.44949  -3536177.34445  21749309.9354   21749309.3804
      1189.8024
 04  9 10 15 34 45.0010000  0  6G20G11G14G22G25G 1
  -2090864.47746  -1624533.35542  23851315.7084   23851315.1614
      2181.8004
  -2407856.02749  -1874744.28145  21626272.9274   21626270.4504
       109.8034
   7679296.00049   5971922.30545  21967155.5134   21967153.3964
     -3126.9844
   8675424.83648   6743905.20742  23872035.8494   23872033.7824
     -3337.3834
  -4641210.32449  -3603063.32446  21406698.6464   21406696.9464
      1028.1044
  -4561462.21549  -3550023.12145  21745928.5364   21745927.9314
      1184.5844
 04  9 10 15 35  0.0010000  0  6G20G11G14G22G25G 1
  -2123584.03547  -1650029.09043  23845089.9584   23845088.7944
      2181.3044
  -2409371.84849  -1875925.45345  21625984.3174   21625981.7084
       101.0554
   7726245.49249   6008506.30945  21976089.4114   21976087.3374
     -3129.9664
   8725519.32048   6782939.81642  23881568.6694   23881566.1814
     -3339.6324
  -4656515.11349  -3614989.12546  21403786.1854   21403784.4274
      1020.3194
  -4579154.41449  -3563809.23045  21742561.6304   21742560.9504
      1179.4804
 04  9 10 15 35 15.0010000  0  6G20G11G14G22G25G 1
  -2156292.64147  -1675516.34842  23838865.6694   23838863.4784
      2180.5744
  -2410753.00449  -1877001.69145  21625721.6144   21625718.5604
        92.0774
   7773242.88749   6045127.62544  21985032.8884   21985030.7744
     -3133.1604
   8775650.82448   6822003.27742  23891108.4114   23891106.1964
     -3342.1004
  -4671699.61349  -3626821.19546  21400896.8024   21400894.9974
      1012.3004
  -4596766.68449  -3577533.07445  21739210.2474   21739209.6694
      1174.1514
 04  9 10 15 35 30.0010000  0  6G20G11G14G22G25G 1
  -2188991.45747  -1700995.92642  23832642.9034   23832642.0564
      2179.9214
  -2412000.60949  -1877973.85545  21625484.2634   21625480.7714
        83.1744
   7820286.79349   6081785.19945  21993984.6384   21993982.5714
     -3136.2604
   8825818.22348   6861094.69543  23900655.1144   23900652.4624
     -3344.4934
  -4686764.71949  -3638560.23446  21398029.8564   21398028.1144
      1004.3404
  -4614300.13349  -3591195.49245  21735874.3644   21735872.7244
      1168.8974
 04  9 10 15 35 45.0010000  0  6G20G11G14G22G25G 1
  -2221681.47347  -1726468.64542  23826421.7084   23826421.0794
      2179.3344
  -2413115.62149  -1878842.70345  21625272.3254   21625269.4894
        74.3344
   7867375.87149   6118477.96144  22002945.9034   22002943.6304
     -3139.2724
   8876020.30148   6900213.13343  23910208.2944   23910206.0994
     -3346.8054
  -4701711.40249  -3650206.98846  21395185.5214   21395184.0014
       996.4464
  -4631755.89149  -3604797.36345  21732552.6144   21732551.1654
      1163.7174
 04  9 10 15 36  0.0010000  0  6G20G11G14G22G25G 1
  -2254360.46947  -1751932.80142  23820203.9584   23820201.9974
      2178.6004
  -2414095.73049  -1879606.42645  21625085.6304   21625082.7124
        65.3414
   7914512.00049   6155207.38745  22011915.6774   22011912.7784
     -3142.4094
   8926259.07048   6939360.16842  23919767.8644   23919765.6034
     -3349.2514
  -4716537.55149  -3661759.82446  21392364.3174   21392362.6884
       988.4104
  -4649131.94549  -3618337.12945  21729245.5994   21729244.7434
      1158.4044
 04  9 10 15 36 15.0010000  0  6G20G11G14G22G25G 1
  -2287028.41446  -1777388.34042  23813987.0214   23813986.7004
      2177.8634
  -2414941.09049  -1880265.15645  21624924.8174   21624922.3724
        56.3574
   7961694.80549   6191973.17645  22020894.4814   22020891.8844
     -3145.5204
   8976534.48048   6978535.75442  23929335.4274   23929332.8134
     -3351.6944
  -4731242.90649  -3673218.52746  21389566.0994   21389564.5564
       980.3574
  -4666428.30149  -3631814.79345  21725954.4974   21725953.1384
      1153.0904
 04  9 10 15 36 30.0010000  0  6G20G11G14G22G25G 1
  -2319688.24247  -1802837.53542  23807771.3884   23807770.7634
      2177.3224
  -2415654.56649  -1880821.13345  21624789.0214   21624786.4584
        47.5654
   8008921.08249   6228772.85544  22029880.6534   22029878.8884
     -3148.4184
   9026843.38747   7017737.46942  23938908.7944   23938906.3804
     -3353.9274
  -4745830.30149  -3684585.32046  21386790.0444   21386788.2314
       972.4934
  -4683648.03149  -3645232.75845  21722677.3494   21722676.6344
      1147.9824
 04  9 10 15 36 45.0010000  0  6G20G11G14G22G25G 1
  -2352336.03546  -1828277.36342  23801559.3804   23801558.3924
      2176.5204
  -2416232.30149  -1881271.32445  21624679.2164   21624676.6694
        38.5164
   8056194.41449   6265609.18045  22038877.0994   22038874.7084
     -3151.5554
   9077189.51648   7056968.17642  23948489.2944   23948487.7244
     -3356.4094
  -4760295.84049  -3695857.16046  21384037.3024   21384035.5674
       964.3694
  -4700787.27349  -3658588.01645  21719415.9664   21719415.2314
      1142.6164
 04  9 10 15 37  0.0010000  0  6G20G11G14G22G25G 1
  -2384974.35247  -1853709.82042  23795348.4424   23795347.8414
      2175.8884
  -2416676.87949  -1881617.75045  21624594.4894   21624591.9154
        29.6394
   8103511.83649   6302479.87545  22047881.3804   22047879.1424
     -3154.4954
   9127570.24647   7096225.83642  23958075.7864   23958074.4034
     -3358.7154
  -4774641.98049  -3707035.96145  21381307.5524   21381305.4624
       956.4094
  -4717848.72749  -3671882.64145  21716169.4424   21716168.2674
      1137.4304
 04  9 10 15 37 15.0010000  0  6G20G11G14G22G25G 1
  -2417603.20347  -1879134.89543  23789139.4274   23789138.6694
      2175.2574
  -2416988.27749  -1881860.40646  21624535.2084   21624533.0284
        20.7604
   8150873.11349   6339384.74644  22056893.4504   22056891.2084
     -3157.4184
   9177985.45347   7135510.37142  23967670.0604   23967668.2434
     -3361.0144
  -4788868.55949  -3718121.60246  21378600.3494   21378598.2594
       948.4394
  -4734832.44549  -3685116.69145  21712937.0834   21712936.4194
      1132.2484
 04  9 10 15 37 30.0010000  0  6G20G11G14G22G25G 1
  -2450220.25446  -1904550.78542  23782933.0054   23782931.9814
      2174.4704
  -2417164.11749  -1881997.42245  21624502.0754   21624499.6104
        11.7234
   8198280.25048   6376325.32845  22065915.0834   22065912.5634
     -3160.4764
   9228437.36747   7174823.50042  23977270.6464   23977269.1774
     -3363.4614
  -4802973.38749  -3729112.35946  21375916.0214   21375914.2784
       940.3224
  -4751736.15249  -3698288.39845  21709721.0834   21709720.1654
      1126.9144
 04  9 10 15 37 45.0010000  0  6G20G11G14G22G25G 1
  -2482827.19947  -1929958.77742  23776727.8644   23776726.3534
      2173.7964
  -2417206.19149  -1882030.21945  21624493.3804   21624491.4624
         2.8054
   8245731.20749   6413300.07445  22074944.7944   22074942.1854
     -3163.3974
   9278923.91047   7214163.59442  23986878.1694   23986876.7984
     -3365.7704
  -4816957.94549  -3740009.41845  21373254.9194   21373253.2904
       932.3044
  -4768561.68449  -3711399.18445  21706518.8564   21706518.1064
      1121.7024
 04  9 10 15 38  0.0010000  0  6G20G11G14G22G25G 1
  -2515422.35547  -1955357.59443  23770525.4814   23770525.0214
      2173.0104
  -2417112.76649  -1881957.42645  21624511.8494   21624509.1184
        -6.2284
   8293227.19949   6450309.90645  22083982.9194   22083980.4154
     -3166.3994
   9329446.64547   7253531.89542  23996491.8174   23996491.0324
     -3368.1824
  -4830820.49649  -3750811.39145  21370617.0134   21370615.2314
       924.1704
  -4785307.47749  -3724447.84045  21703332.3804   21703331.2204
      1116.3864
 04  9 10 15 38 15.0010000  0  6G20G11G14G22G25G 1
  -2548005.84047  -1980747.33243  23764325.1064   23764323.9234
      2172.2324
  -2416883.94949  -1881779.14145  21624554.9194   21624552.3964
       -15.2544
   8340767.89149   6487354.57445  22093029.8254   22093027.3884
     -3169.3794
   9380005.39847   7292928.29342  24006112.2944   24006111.9384
     -3370.5844
  -4844561.13349  -3761518.37545  21368002.5994   21368000.3214
       916.0424
  -4801973.75049  -3737434.52345  21700160.9274   21700160.1384
      1111.0854
 04  9 10 15 38 30.0010000  0  6G20G11G14G22G25G 1
  -2580578.36346  -2006128.52342  23758126.4664   23758125.7984
      2171.5024
  -2416520.65249  -1881496.05945  21624624.1774   21624621.4854
       -24.2204
   8388352.20348   6524433.23045  22102084.6384   22102082.5444
     -3172.2874
   9430599.35547   7332352.07042  24015740.1384   24015740.5444
     -3372.9304
  -4858180.53949  -3772130.88346  21365410.5134   21365408.7314
       907.9604
  -4818561.35249  -3750359.91845  21697003.9584   21697003.3254
      1105.8404
 04  9 10 15 38 45.0010000  0  6G20G11G14G22G25G 1
  -2613139.41047  -2031500.74242  23751930.5524   23751929.1884
      2170.7364
  -2416022.27048  -1881107.71145  21624718.7864   21624716.2984
       -33.2264
   8435980.44149   6561546.10945  22111147.9814   22111146.2354
     -3175.2164
   9481228.75847   7371803.50042  24025375.0364   24025374.7554
     -3375.2934
  -4871678.05148  -3782648.40646  21362841.8644   21362840.1144
       899.8344
  -4835069.83649  -3763223.64145  21693862.8804   21693861.9544
      1100.5664
 04  9 10 15 39  0.0010000  0  6G20G11G14G22G25G 1
  -2645688.28947  -2056863.52042  23745736.4814   23745735.5244
      2169.9254
  -2415388.18449  -1880613.61745  21624839.8964   21624837.0754
       -42.2724
   8483652.84048   6598693.40244  22120219.9744   22120217.7634
     -3178.1604
   9531894.28947   7411283.06642  24035017.2474   24035016.1034
     -3377.7024
  -4885052.88749  -3793070.35546  21360296.9894   21360294.9784
       891.6564
  -4851498.68749  -3776025.32845  21690736.5284   21690735.5674
      1095.2574
 04  9 10 15 39 15.0010000  0  6G20G11G14G22G25G 1
  -2678225.00047  -2082216.80942  23739545.3494   23739543.3024
      2169.1144
  -2414618.30149  -1880013.71945  21624985.9274   21624983.6494
       -51.3264
   8531369.20748   6635874.96544  22129300.0994   22129298.0914
     -3181.0914
   9582595.77047   7450790.66442  24044664.7394   24044663.9584
     -3380.0994
  -4898305.07049  -3803396.71946  21357775.0754   21357772.9704
       883.4794
  -4867847.95349  -3788765.00445  21687625.3494   21687624.0444
      1089.9514
 04  9 10 15 39 30.0010000  0  6G20G11G14G22G25G 1
  -2710748.35247  -2107559.67242  23733356.1694   23733355.1854
      2168.2234
  -2413711.53549  -1879307.16046  21625158.8724   21625155.8804
       -60.4514
   8579130.18048   6673091.29745  22138388.3494   22138386.7674
     -3184.0654
   9633334.10547   7490326.96542  24054320.2634   24054318.8724
     -3382.5564
  -4911433.39549  -3813626.58246  21355276.7554   21355274.6534
       875.2224
  -4884116.61749  -3801441.86745  21684529.5674   21684528.0444
      1084.5784
 04  9 10 15 39 45.0010000  0  6G20G11G14G22G25G 1
  -2743263.38747  -2132896.07042  23727168.5604   23727166.5014
      2167.6694
  -2412672.72749  -1878497.70745  21625356.4894   21625353.9234
       -69.2544
   8626930.48848   6710338.27344  22147484.4194   22147482.5994
     -3186.6874
   9684104.07047   7529887.93442  24063982.1924   24063980.0524
     -3384.6644
  -4924442.70348  -3823763.69146  21352801.0674   21352798.5994
       867.2874
  -4900309.77349  -3814059.89145  21681448.2864   21681446.7084
      1079.5444
 04  9 10 15 40  0.0010000  0  6G20G11G14G22G25G 1
  -2775765.60947  -2158222.48042  23720983.7944   23720982.0714
      2166.8154
  -2411497.86749  -1877582.24645  21625579.7554   21625577.3604
       -78.3244
   8674774.25048   6747619.10544  22156588.6384   22156587.0794
     -3189.5844
   9734909.94948   7569476.90642  24073649.8564   24073648.0604
     -3387.0594
  -4937328.54349  -3833804.60246  21350349.1774   21350346.5994
       859.0564
  -4916423.13749  -3826615.74645  21678381.6774   21678380.4934
      1074.2244
 04  9 10 15 40 15.0010000  0  6G20G11G14G22G25G 1
  -2808254.73447  -2183538.68742  23714801.0364   23714799.3024
      2165.9424
  -2410186.57449  -1876560.46545  21625829.7244   21625827.1034
       -87.4204
   8722661.52348   6784933.82844  22165701.5834   22165700.0914
     -3192.4854
   9785752.09848   7609094.07442  24083325.1854   24083323.0484
     -3389.4774
  -4950090.61749  -3843749.06246  21347920.4894   21347918.4114
       850.8054
  -4932456.52049  -3839109.27745  21675330.8104   21675329.3334
      1068.8924
 04  9 10 15 40 30.0010000  0  6G20G11G14G22G25G 1
  -2840729.72347  -2208843.85942  23708621.1464   23708619.1854
      2164.9994
  -2408737.71548  -1875431.48845  21626105.3644   21626102.3064
       -96.5914
   8770592.99248   6822282.99645  22174822.4814   22174820.9504
     -3195.4314
   9836631.23048   7648740.10242  24093006.9114   24093005.0174
     -3391.9424
  -4962727.96548  -3853596.34046  21345515.8024   21345513.6854
       842.4904
  -4948408.99649  -3851539.75445  21672294.7864   21672294.0324
      1063.4984
 04  9 10 15 40 45.0010000  0  6G20G11G14G22G25G 1
  -2873193.16447  -2234140.05142  23702444.0214   23702441.5524
      2164.2294
  -2407153.97749  -1874197.41045  21626406.8884   21626403.3844
      -105.5834
   8818565.70748   6859664.30945  22183951.0674   22183949.6774
     -3198.1814
   9887544.58248   7688412.79743  24102696.0284   24102694.1614
     -3394.2234
  -4975243.04749  -3863348.34846  21343134.4894   21343132.2204
       834.3394
  -4964283.26649  -3863909.29745  21669273.8724   21669272.9424
      1058.2854
 04  9 10 15 41  0.0010000  0  6G20G11G14G22G25G 1
  -2905645.75847  -2259427.74242  23696268.6774   23696266.4784
      2163.5064
  -2405436.01248  -1872858.75045  21626733.8724   21626730.9154
      -114.5314
   8866578.63348   6897076.94545  22193087.9584   22193086.1924
     -3200.8624
   9938491.45748   7728111.60542  24112389.9584   24112388.4704
     -3396.4584
  -4987636.41848  -3873005.50446  21340775.7554   21340773.9784
       826.2254
  -4980080.02349  -3876218.43445  21666268.1144   21666266.8534
      1053.1174
 04  9 10 15 41 15.0010000  0  6G20G11G14G22G25G 1
  -2938086.94547  -2284706.59042  23690094.8104   23690093.8214
      2162.7464
  -2403583.30949  -1871415.08245  21627086.5134   21627083.7824
      -123.5144
   8914632.02748   6934521.12545  22202232.3884   22202230.6224
     -3203.5604
   9989472.27748   7767836.86742  24122091.4274   24122088.9354
     -3398.7214
  -4999907.49249  -3882567.37146  21338440.6924   21338438.9074
       818.0724
  -4995798.82849  -3888466.84045  21663276.8724   21663275.8534
      1047.9204
 04  9 10 15 41 30.0010000  0  6G20G11G14G22G25G 1
  -2970514.31647  -2309974.64542  23683924.1304   23683922.9854
      2161.8254
  -2401593.59049  -1869864.66045  21627464.8334   21627462.2284
      -132.6484
   8962727.87548   6971998.37945  22211384.4894   22211383.1344
     -3206.3904
  10040489.05948   7807590.16443  24131800.2554   24131798.7044
     -3401.1194
  -5012053.91449  -3892032.10546  21336129.2474   21336127.7714
       809.7614
  -5011437.53549  -3900652.83245  21660300.9354   21660299.9384
      1042.5804
 04  9 10 15 41 45.0010000  0  6G20G11G14G22G25G 1
  -3002928.26647  -2335232.27742  23677755.9974   23677753.5324
      2160.9304
  -2399467.26249  -1868207.79345  21627869.2784   21627866.6774
      -141.7554
   9010865.50848   7009508.20345  22220544.9894   22220543.3564
     -3209.1764
  10091541.35548   7847371.10943  24141515.0134   24141513.8294
     -3403.4864
  -5024076.05549  -3901399.98846  21333841.4584   21333839.8174
       801.4764
  -5026996.64849  -3912776.80545  21657339.9974   21657338.5914
      1037.2744
 04  9 10 15 42  0.0010000  0  6G20G11G14G22G25G 1
  -3035330.81247  -2360480.97343  23671589.4974   23671587.8724
      2160.1704
  -2397206.41448  -1866446.09445  21628299.7164   21628297.4354
      -150.7234
   9059042.66448   7047048.82044  22229712.6144   22229711.3644
     -3211.8104
  10142626.97348   7887178.05543  24151236.4504   24151234.3924
     -3405.7084
  -5035975.71149  -3910672.44546  21331577.0754   21331575.4034
       793.3104
  -5042478.24249  -3924840.35545  21654393.9274   21654393.2044
      1032.1064
 04  9 10 15 42 15.0010000  0  6G20G11G14G22G25G 1
  -3067718.93447  -2385718.46942  23665426.6464   23665424.5244
      2159.2084
  -2394807.87948  -1864577.11746  21628756.2864   21628753.3964
      -159.9024
   9107262.00048   7084622.29744  22238888.6614   22238887.4624
     -3214.6224
  10193748.98448   7927013.33643  24160964.2084   24160962.8604
     -3408.1344
  -5047749.75449  -3919847.00846  21329336.5754   21329334.7984
       784.9364
  -5057879.31649  -3936841.17245  21651463.5054   21651462.3214
      1026.7384
 04  9 10 15 42 30.0010000  0  6G20G11G14G22G25G 1
  -3100093.83247  -2410945.64142  23659266.0214   23659263.8844
      2158.3274
  -2392272.93448  -1862601.84445  21629238.5994   21629235.9034
      -168.9964
   9155521.94948   7122227.41445  22248072.5054   22248071.0214
     -3217.3304
  10244905.68048   7966875.64143  24170699.3964   24170698.7824
     -3410.4464
  -5059399.68749  -3928924.86346  21327119.6614   21327117.7904
       776.6624
  -5073201.42249  -3948780.46945  21648547.4194   21648546.3964
      1021.4744
 04  9 10 15 42 45.0010000  0  6G20G11G14G22G25G 1
  -3132455.27348  -2436162.33642  23653107.9504   23653105.4624
      2157.4294
  -2389601.67248  -1860520.33645  21629746.7554   21629744.1224
      -178.0844
   9203822.21548   7159863.96545  22257264.0214   22257262.3994
     -3220.0184
  10296097.16448   8006765.06643  24180440.8024   24180439.8684
     -3412.7664
  -5070925.25849  -3937905.81246  21324926.2864   21324924.7554
       768.3714
  -5088444.41449  -3960658.10545  21645647.0284   21645645.9274
      1016.1994
 04  9 10 15 43  0.0010000  0  6G20G11G14G22G25G 1
  -3164804.85248  -2461369.80942  23646951.8254   23646949.1224
      2156.6394
  -2386795.77748  -1858333.91845  21630280.9744   21630278.2674
      -187.0604
   9252161.05548   7197530.55945  22266462.3174   22266461.4194
     -3222.5894
  10347321.80148   8046680.30542  24190188.5604   24190186.7004
     -3414.9764
  -5082327.85548  -3946790.94546  21322756.7634   21322754.5834
       760.1734
  -5103609.96149  -3972475.40245  21642761.1224   21642759.8964
      1011.0364
 04  9 10 15 43 15.0010000  0  6G20G11G14G22G25G 1
  -3197140.94547  -2486566.73843  23640798.6224   23640795.9814
      2155.7404
  -2383853.32849  -1856041.10945  21630840.7944   21630838.3644
      -196.1634
   9300539.87948   7235228.32045  22275668.5754   22275666.7474
     -3225.2554
  10398581.13348   8086622.60243  24199942.7944   24199941.6144
     -3417.2894
  -5093605.60548  -3955578.79346  21320610.4894   21320608.6144
       751.8504
  -5118696.44949  -3984231.10245  21639890.0914   21639889.3174
      1005.7664
 04  9 10 15 43 30.0010000  0  6G20G11G14G22G25G 1
  -3229462.64547  -2511752.48043  23634647.8024   23634645.3884
      2154.7804
  -2380773.71549  -1853641.41045  21631426.6924   21631424.1304
      -205.3084
   9348959.02748   7272957.51244  22284882.3104   22284880.9074
     -3227.9434
  10449875.65648   8126592.29343  24209703.8104   24209703.5524
     -3419.6354
  -5104757.96149  -3964268.92646  21318488.2164   21318486.5874
       743.4904
  -5133703.32849  -3995924.76245  21637034.6384   21637033.1614
      1000.4594
 04  9 10 15 43 45.0010000  0  6G20G11G14G22G25G 1
  -3261768.83248  -2536926.13342  23628500.6774   23628497.6464
      2153.7464
  -2377555.81248  -1851133.96545  21632038.5524   21632036.2714
      -214.5274
   9397419.43048   7310718.82844  22294103.9194   22294102.2244
     -3230.6934
  10501206.46548   8166590.26242  24219471.7554   24219470.7984
     -3422.0544
  -5115783.59848  -3972860.31646  21316389.8804   21316388.2204
       735.0424
  -5148629.41449  -4007555.46945  21634194.3414   21634192.9624
       995.0724
 04  9 10 15 44  0.0010000  0  6G20G11G14G22G25G 1
  -3294059.63348  -2562087.78142  23622355.2944   23622352.8454
      2152.7204
  -2374199.87148  -1848518.95745  21632677.5674   21632675.1964
      -223.7294
   9445920.60248   7348511.93444  22303333.4894   22303331.8494
     -3233.4114
  10552573.23447   8206616.27342  24229246.8024   24229245.7434
     -3424.4514
  -5126682.69948  -3981353.11346  21314316.2944   21314314.2944
       726.6074
  -5163475.04749  -4019123.48045  21631369.0444   21631368.1884
       989.7094
 04  9 10 15 44 15.0010000  0  6G20G11G14G22G25G 1
  -3326336.43448  -2587238.53543  23616213.3724   23616212.2354
      2151.7874
  -2370707.30148  -1845797.48446  21633342.3964   21633340.1264
      -232.8384
   9494460.89548   7386335.51244  22312570.3724   22312568.8804
     -3236.0204
  10603974.45748   8246669.10943  24239028.1144   24239027.4154
     -3426.7484
  -5137456.61348  -3989748.35246  21312265.8414   21312264.0014
       718.2614
  -5178241.68749  -4030629.93445  21628558.9034   21628557.9234
       984.4434
 04  9 10 15 44 30.0010000  0  6G20G11G14G22G25G 1
  -3358599.50048  -2612378.57042  23610073.8644   23610072.3684
      2150.8714
  -2367078.24648  -1842969.65646  21634032.9424   21634030.3534
      -241.9374
   9543039.63348   7424189.05944  22321814.1304   22321812.9504
     -3238.5834
  10655409.68047   8286748.46943  24248815.3724   24248815.2984
     -3429.0154
  -5148105.57848  -3998046.22746  21310239.2634   21310237.4234
       709.9314
  -5192929.71949  -4042075.13745  21625763.5364   21625762.9624
       979.2024
 04  9 10 15 44 45.0010000  0  6G20G11G14G22G25G 1
  -3390847.84847  -2637507.15243  23603937.3494   23603935.2004
      2149.8904
  -2363311.99248  -1840034.92245  21634750.2314   21634747.5754
      -251.0844
   9591657.40648   7462073.00844  22331065.7314   22331064.8964
     -3241.1854
  10706879.70747   8326854.93043  24258609.9274   24258609.4784
     -3431.3354
  -5158628.67248  -4006246.03146  21308236.9034   21308235.3174
       701.5404
  -5207538.45349  -4053458.54745  21622983.7084   21622982.8254
       973.9164
 04  9 10 15 45  0.0010000  0  6G20G11G14G22G25G 1
  -3423082.92247  -2662625.38342  23597803.1614   23597802.0324
      2149.0054
  -2359409.96149  -1836994.37946  21635492.3104   21635489.7084
      -260.1354
   9640312.54748   7499986.06644  22340325.0284   22340323.5954
     -3243.6764
  10758382.91847   8366987.26643  24268411.0524   24268410.4584
     -3433.5474
  -5169027.26648  -4014348.81246  21306258.3724   21306256.2984
       693.2404
  -5222069.35949  -4064781.32045  21620218.5754   21620217.2434
       968.7274
 04  9 10 15 45 15.0010000  0  6G20G11G14G22G25G 1
  -3455302.91047  -2687731.87142  23591671.8174   23591670.6814
      2147.9994
  -2355370.53548  -1833846.77746  21636261.0364   21636258.2594
      -269.2954
   9689006.48448   7537929.37944  22349591.1854   22349589.6384
     -3246.2624
  10809920.84447   8407146.64143  24278218.4974   24278218.0714
     -3435.8624
  -5179299.43448  -4022353.09046  21304303.5284   21304301.8644
       684.8114
  -5236520.75049  -4076042.14545  21617468.7634   21617467.6034
       963.4264
 04  9 10 15 45 30.0010000  0  6G20G11G14G22G25G 1
  -3487507.73447  -2712826.53542  23585543.2784   23585541.8174
      2146.9884
  -2351193.68048  -1830592.08245  21637055.7314   21637053.2784
      -278.4574
   9737738.85548   7575902.62944  22358864.8174   22358862.9744
     -3248.8254
  10861493.46547   8447333.05143  24288032.3024   24288031.2904
     -3438.1754
  -5189445.05148  -4030258.74646  21302372.5754   21302371.0794
       676.3744
  -5250892.69149  -4087241.04746  21614734.3414   21614732.7354
       958.1294
 04  9 10 15 45 45.0010000  0  6G20G11G14G22G25G 1
  -3519695.72347  -2737908.08642  23579418.0754   23579416.1534
      2145.8664
  -2346877.53148  -1827228.85545  21637877.0994   21637874.6534
      -287.7434
   9786511.20348   7613907.02744  22368145.9504   22368144.3024
     -3251.4904
  10913102.39147   8487547.76243  24297853.7164   24297852.3924
     -3440.5954
  -5199462.53148  -4038064.57046  21300466.6774   21300464.6104
       667.8324
  -5265183.54749  -4098376.77046  21612014.8104   21612013.2394
       952.7244
 04  9 10 15 46  0.0010000  0  6G20G11G14G22G25G 1
  -3551867.70347  -2762977.14842  23573296.1064   23573294.2394
      2144.7994
  -2342423.18049  -1823757.94145  21638724.8964   21638722.0874
      -296.9574
   9835322.28148   7651941.60544  22377434.3254   22377432.1814
     -3254.0724
  10964746.51647   8527789.90642  24307680.8334   24307680.1694
     -3442.9424
  -5209352.73849  -4045771.21146  21298584.5054   21298582.4934
       659.3474
  -5279394.41849  -4109450.16446  21609310.5604   21609309.2204
       947.3914
 04  9 10 15 46 15.0010000  0  6G20G11G14G22G25G 1
  -3584026.83247  -2788036.19942  23567176.2474   23567174.2824
      2143.9424
  -2337833.78148  -1820181.79745  21639598.0524   21639595.9584
      -305.9604
   9884168.67248   7690003.72344  22386729.4034   22386727.8024
     -3256.4264
  11016422.55947   8568056.91442  24317514.9744   24317514.1534
     -3445.0704
  -5219118.64549  -4053380.98846  21296726.2314   21296724.3414
       651.0604
  -5293528.52749  -4120463.75046  21606620.9424   21606619.3534
       942.2744
 04  9 10 15 46 30.0010000  0  6G20G11G14G22G25G 1
  -3616171.01247  -2813083.60242  23561059.4744   23561057.6654
      2142.9454
  -2333107.49248  -1816498.97745  21640497.6694   21640495.2244
      -315.0864
   9933052.10248   7728094.68044  22396031.7244   22396030.2944
     -3258.8954
  11068132.38748   8608350.21542  24327354.9114   24327353.4384
     -3447.3224
  -5228758.30948  -4060892.40246  21294891.5134   21294889.9504
       642.6444
  -5307583.97349  -4131416.04346  21603946.1144   21603944.9194
       937.0304
 04  9 10 15 46 45.0010000  0  6G20G11G14G22G25G 1
  -3648298.44947  -2838117.95742  23554945.4974   23554944.1614
      2141.8294
  -2328242.52048  -1812708.10546  21641423.1924   21641420.8884
      -324.3324
   9981973.82048   7766215.47744  22405341.5444   22405339.5564
     -3261.4484
  11119877.54747   8648671.08242  24337201.5054   24337200.2474
     -3449.6774
  -5238269.94148  -4068304.05946  21293081.5994   21293079.5054
       634.1094
  -5321559.13349  -4142305.77046  21601286.8644   21601285.3604
       931.6774
 04  9 10 15 47  0.0010000  0  6G20G11G14G22G25G 1
  -3680410.07047  -2863139.98443  23548834.6534   23548833.7004
      2140.7754
  -2323240.07049  -1808810.09046  21642375.1694   21642372.3994
      -333.4974
  10030932.72748   7804365.23844  22414658.2084   22414656.1924
     -3263.9274
  11171656.94947   8689018.60542  24347055.0054   24347054.3604
     -3451.9604
  -5247654.37149  -4075616.58646  21291296.0674   21291294.1264
       625.6294
  -5335455.03949  -4153133.73446  21598642.6304   21598640.8764
       926.3944
 04  9 10 15 47 15.0010000  0  6G20G11G14G22G25G 1
  -3712505.69948  -2888149.56643  23542727.7474   23542725.5634
      2139.7094
  -2318099.82048  -1804804.70346  21643353.0524   21643350.6304
      -342.6834
  10079928.71148   7842543.91044  22423981.7474   22423979.4384
     -3266.3994
  11223470.69547   8729392.90242  24356914.7084   24356914.1534
     -3454.2504
  -5256911.62548  -4082830.01646  21289534.3174   21289532.7394
       617.1504
  -5349271.70349  -4163899.96546  21596013.2244   21596012.0634
       921.1114
 04  9 10 15 47 30.0010000  0  6G20G11G14G22G25G 1
  -3744581.94548  -2913144.05143  23536623.4274   23536622.0954
      2138.4164
  -2312818.52348  -1800689.40645  21644358.1854   21644355.5754
      -352.0864
  10128964.73448   7880753.77744  22433313.0834   22433310.8254
     -3269.0684
  11275321.92246   8769796.41042  24366781.3494   24366780.5874
     -3456.7484
  -5266038.30148  -4089941.69946  21287797.3334   21287795.5564
       608.4454
  -5363005.84449  -4174601.88345  21593399.6064   21593398.3804
       915.6094
 04  9 10 15 47 45.0010000  0  6G20G11G14G22G25G 1
  -3776642.87148  -2938126.58643  23530522.5214   23530521.1774
      2137.3954
  -2307400.23848  -1796467.37145  21645388.9274   21645386.7044
      -361.2194
  10178036.43448   7918991.42244  22442651.0444   22442649.4854
     -3271.4474
  11327206.43447   8810225.85242  24376654.5214   24376654.3534
     -3458.9674
  -5275038.29748  -4096954.66846  21286084.7714   21286082.7944
       600.0004
  -5376661.66849  -4185242.77345  21590800.9664   21590799.6854
       910.3884
 04  9 10 15 48  0.0010000  0  6G20G11G14G22G25G 1
  -3808688.27048  -2963097.03143  23524425.3724   23524423.4704
      2136.3604
  -2301844.90249  -1792138.53545  21646446.5994   21646444.0364
      -370.3564
  10227143.64848   7957256.75444  22451995.5994   22451994.2514
     -3273.8144
  11379124.21546   8850681.20342  24386533.9974   24386534.5214
     -3461.1854
  -5283911.44549  -4103868.79346  21284396.0604   21284394.3134
       591.5434
  -5390239.10249  -4195822.58645  21588217.4584   21588216.1184
       905.1624
 04  9 10 15 48 15.0010000  0  6G20G11G14G22G25G 1
  -3840716.32848  -2988053.93043  23518329.5674   23518328.7714
      2135.2044
  -2296150.61748  -1787701.43745  21647530.3254   21647527.3294
      -379.6194
  10276288.04748   7995551.05944  22461347.6534   22461345.6494
     -3276.2934
  11431076.96546   8891163.80142  24396420.9034   24396420.4664
     -3463.5174
  -5292655.83248  -4110682.59846  21282731.9504   21282730.5244
       582.9594
  -5403736.37149  -4206339.93046  21585648.8804   21585647.6734
       899.8184
 04  9 10 15 48 30.0010000  0  6G20G11G14G22G25G 1
  -3872727.59847  -3012997.76643  23512238.3024   23512237.3334
      2134.0854
  -2290318.22749  -1783156.72746  21648640.0524   21648637.5714
      -388.8264
  10325468.63348   8033873.55544  22470706.4894   22470704.7554
     -3278.7064
  11483063.84046   8931673.01242  24406314.0134   24406312.2714
     -3465.7924
  -5301272.12948  -4117396.59446  21281092.3884   21281090.5094
       574.4204
  -5417154.28149  -4216795.43445  21583095.3964   21583094.0794
       894.5274
 04  9 10 15 48 45.0010000  0  6G20G11G14G22G25G 1
  -3904721.60248  -3037928.14843  23506149.8024   23506148.8334
      2132.9344
  -2284347.43748  -1778504.16846  21649776.0054   21649773.6344
      -398.0534
  10374685.39548   8072224.25044  22480072.0754   22480070.0604
     -3281.1174
  11535085.08646   8972209.02742  24416213.2634   24416211.7904
     -3468.0834
  -5309759.94549  -4124010.47346  21279477.3884   21279475.3214
       565.8544
  -5430492.55549  -4227188.89846  21580557.2784   21580555.9354
       889.2184
 04  9 10 15 49  0.0010000  0  6G20G11G14G22G25G 1
  -3936699.81647  -3062846.25443  23500064.7784   23500063.6694
      2131.8814
  -2278239.72348  -1773744.92645  21650938.6144   21650936.0174
      -407.1814
  10423936.75848   8110601.92644  22489443.8174   22489442.1614
     -3283.4244
  11587139.21946   9012770.62942  24426118.9354   24426117.5714
     -3470.2764
  -5318120.67248  -4130525.31646  21277886.3804   21277884.3884
       557.3824
  -5443752.80949  -4237521.55146  21578033.9504   21578032.9354
       884.0174
 04  9 10 15 49 15.0010000  0  6G20G11G14G22G25G 1
  -3968660.46548  -3087750.63343  23493982.8104   23493981.7904
      2130.7104
  -2271993.38749  -1768877.66045  21652126.7784   21652124.5404
      -416.4224
  10473224.14148   8149007.64144  22498823.2084   22498821.0284
     -3285.8264
  11639227.80146   9053359.10542  24436030.8964   24436030.0134
     -3472.5724
  -5326352.51249  -4136939.73046  21276319.9664   21276317.9854
       548.7894
  -5456933.27349  -4247792.04346  21575525.9814   21575524.3414
       878.6984
 04  9 10 15 49 30.0010000  0  6G20G11G14G22G25G 1
  -4000603.48847  -3112641.30943  23487904.3174   23487903.1144
      2129.5354
  -2265608.59449  -1763902.50845  21653341.8724   21653339.1654
      -425.6534
  10522547.06348   8187441.05944  22508209.0914   22508207.2004
     -3288.1954
  11691350.61345   9093974.20742  24445949.5994   24445948.2944
     -3474.8544
  -5334455.50849  -4143253.74646  21274777.9114   21274776.0954
       540.2004
  -5470034.15649  -4258000.51646  21573032.5284   21573031.1614
       873.3924
 04  9 10 15 49 45.0010000  0  6G20G11G14G22G25G 1
  -4032528.64148  -3137518.05143  23481829.3804   23481827.4354
      2128.3434
  -2259085.00848  -1758819.20345  21654583.0914   21654580.8414
      -434.9064
  10571905.55948   8225902.20344  22517601.3964   22517599.8924
     -3290.5664
  11743507.77345   9134616.10242  24455874.3644   24455873.4464
     -3477.1444
  -5342429.40649  -4149467.17246  21273260.7554   21273259.0284
       531.5934
  -5483055.34449  -4268146.88746  21570554.8724   21570553.1734
       868.0794
 04  9 10 15 50  0.0010000  0  6G20G11G14G22G25G 1
  -4064436.19548  -3162381.07043  23475757.3564   23475755.7554
      2127.1704
  -2252423.18048  -1753628.17645  21655850.9974   21655848.3924
      -444.1224
  10621299.08648   8264390.63744  22527000.9584   22526998.9354
     -3292.9024
  11795698.77746   9175284.40642  24465806.3414   24465804.9234
     -3479.4004
  -5350274.57449  -4155580.28146  21271767.6614   21271766.1654
       523.0114
  -5495997.24649  -4278231.47346  21568092.1384   21568090.6424
       862.7934
 04  9 10 15 50 15.0010000  0  6G20G11G14G22G25G 1
  -4096324.83648  -3187229.37143  23469689.7714   23469687.7394
      2125.9094
  -2245621.76648  -1748328.37945  21657145.5214   21657142.6854
      -453.4284
  10670728.58648   8302907.10244  22536407.2164   22536405.0444
     -3295.3004
  11847924.77045   9215979.89842  24475745.1224   24475743.2354
     -3481.7334
  -5357989.62948  -4161592.00846  21270299.6534   21270297.9784
       514.3374
  -5508858.75449  -4288253.41446  21565644.4584   21565643.4274
       857.4344
 04  9 10 15 50 30.0010000  0  6G20G11G14G22G25G 1
  -4128196.17648  -3212064.16843  23463624.5834   23463622.6264
      2124.7564
  -2238682.49649  -1742921.17245  21658466.0214   21658463.2554
      -462.6184
  10720192.00048   8341449.99644  22545819.3414   22545817.6264
     -3297.5614
  11900183.92246   9256701.28542  24485690.1694   24485688.4074
     -3483.9434
  -5365576.24649  -4167503.64846  21268855.9584   21268854.2944
       505.7744
  -5521641.62549  -4298214.09046  21563211.8104   21563210.6734
       852.1914
 04  9 10 15 50 45.0010000  0  6G20G11G14G22G25G 1
  -4160050.15248  -3236885.44943  23457562.8104   23457560.4974
      2123.5984
  -2231605.63349  -1737406.73045  21659812.8644   21659810.3024
      -471.7914
  10769689.03948   8380019.10244  22555238.9664   22555236.8844
     -3299.8034
  11952476.11746   9297448.42242  24495640.5364   24495639.0874
     -3486.1464
  -5373034.55149  -4173315.30146  21267436.2864   21267434.9074
       497.2204
  -5534346.05549  -4308113.62946  21560794.2634   21560793.2634
       846.9624
 04  9 10 15 51  0.0010000  0  6G20G11G14G22G25G 1
  -4191884.77348  -3261691.67643  23451505.2944   23451502.8294
      2122.3084
  -2224389.06248  -1731783.44546  21661185.8494   21661183.7084
      -481.1054
  10819221.60548   8418615.89544  22564665.0444   22564662.7124
     -3302.1714
  12004803.16045   9338222.69542  24505598.2394   24505596.6694
     -3488.4704
  -5380362.15648  -4179025.11746  21266042.0754   21266040.4744
       488.5074
  -5546970.04349  -4317950.50046  21558392.1854   21558390.9894
       841.5994
 04  9 10 15 51 15.0010000  0  6G20G11G14G22G25G 1
  -4223701.49248  -3286483.91043  23445450.3414   23445448.7044
      2121.1154
  -2217034.35249  -1726052.50446  21662585.3024   21662582.9074
      -490.3144
  10868787.75448   8457238.84044  22574096.6224   22574095.0914
     -3304.4104
  12057163.50046   9379022.94142  24515562.2474   24515560.2474
     -3490.6894
  -5387560.71949  -4184634.38346  21264672.0134   21264670.7244
       479.9044
  -5559515.18749  -4327725.94546  21556004.6774   21556003.7284
       836.3434
 04  9 10 15 51 30.0010000  0  6G20G11G14G22G25G 1
  -4255499.44147  -3311261.54342  23439399.5284   23439397.1614
      2119.8634
  -2209540.89548  -1720213.46146  21664011.5994   21664009.2744
      -499.5644
  10918387.90649   8495888.28144  22583535.8174   22583532.8884
     -3306.6774
  12109557.54346   9419849.44142  24525531.3024   24525530.6344
     -3492.9364
  -5394629.60549  -4190142.59046  21263327.0914   21263325.6424
       471.2594
  -5571981.05149  -4337439.59446  21553632.7944   21553631.5324
       831.0584
 04  9 10 15 51 45.0010000  0  6G20G11G14G22G25G 1
  -4287278.19948  -3336024.18743  23433351.8804   23433350.0364
      2118.5844
  -2201908.21949  -1714265.93446  21665463.4664   21665461.6814
      -508.8454
  10968022.34849   8534564.45344  22592980.6534   22592978.1774
     -3308.9634
  12161985.78946   9460702.57442  24535508.6224   24535507.7864
     -3495.2164
  -5401568.19949  -4195549.27346  21262006.7864   21262005.3564
       462.5734
  -5584367.09049  -4347091.04746  21551276.2164   21551274.4784
       825.7364
 04  9 10 15 52  0.0010000  0  6G20G11G14G22G25G 1
  -4319039.39148  -3360773.16443  23427308.2784   23427305.1344
      2117.4134
  -2194138.19149  -1708211.37546  21666942.6064   21666940.1464
      -518.0024
  11017689.02749   8573265.75044  22602431.6064   22602429.4424
     -3311.1124
  12214446.36346   9501580.91042  24545492.0284   24545490.7164
     -3497.3724
  -5408378.25849  -4200855.80546  21260710.9664   21260709.1384
       454.0044
  -5596675.18749  -4356681.77046  21548933.3884   21548932.6184
       820.5404
 04  9 10 15 52 15.0010000  0  6G20G11G14G22G25G 1
  -4350781.23448  -3385507.06243  23421267.5994   23421265.1534
      2116.1234
  -2186229.05548  -1702048.42245  21668447.4194   21668444.5484
      -527.2764
  11067389.51648   8611993.37944  22611889.4194   22611887.8764
     -3313.3664
  12266940.87946   9542485.69142  24555481.3494   24555479.9624
     -3499.6344
  -5415058.01648  -4206060.80946  21259439.5994   21259438.0954
       445.3174
  -5608903.65649  -4366210.43046  21546606.6694   21546605.3844
       815.2314
 04  9 10 15 52 30.0010000  0  6G20G11G14G22G25G 1
  -4382503.33248  -3410225.57443  23415231.7784   23415229.0564
      2114.8074
  -2178180.52048  -1695776.84445  21669979.0994   21669976.2434
      -536.5694
  11117123.89848   8650747.40244  22621353.7554   22621352.0364
     -3315.6264
  12319469.46546   9583417.01642  24565476.2084   24565475.6304
     -3501.9064
  -5421607.11748  -4211163.98846  21258193.7944   21258191.6964
       436.6074
  -5621052.25049  -4375676.87145  21544294.7314   21544293.6964
       809.9064
 04  9 10 15 52 45.0010000  0  6G20G11G14G22G25G 1
  -4414206.11748  -3434929.04743  23409198.5284   23409196.2124
      2113.5194
  -2169993.32049  -1689397.21945  21671537.3804   21671534.4034
      -545.8134
  11166891.17648   8689527.08244  22630824.0214   22630822.2474
     -3317.8184
  12372031.52346   9624374.40642  24575479.4114   24575477.6464
     -3504.1374
  -5428026.12549  -4216165.81246  21256971.9744   21256970.2394
       427.9344
  -5633121.65649  -4385081.59445  21541998.1694   21541996.8964
       804.6274
 04  9 10 15 53  0.0010000  0  5G20G11G14G25G 1
  -4445889.44948  -3459617.35543  23403169.2634   23403166.8374
      2112.2224
  -2161667.32848  -1682909.43446  21673121.3254   21673118.5914
      -555.0664
  11216691.20748   8728332.27744  22640300.4664   22640299.2204
     -3320.0024
  -5434314.86749  -4221066.11746  21255775.2394   21255773.5014
       419.2494
  -5645111.88749  -4394424.62546  21539716.5604   21539715.6494
       799.3494
 04  9 10 15 53 15.0010000  0  5G20G11G14G25G 1
  -4477553.46148  -3484290.62143  23397144.0674   23397141.0364
      2110.9344
  -2153202.87149  -1676313.77345  21674732.3724   21674729.6034
      -564.2974
  11266523.62148   8767162.69544  22649782.9114   22649782.1224
     -3322.1614
  -5440473.64149  -4225865.16446  21254603.4274   21254601.2204
       410.5854
  -5657023.24249  -4403706.19146  21537450.0214   21537448.8214
       794.0904
 04  9 10 15 53 30.0010000  0  5G20G11G14G25G 1
  -4509196.84048  -3508947.79343  23391122.3804   23391119.8294
      2109.5594
  -2144598.71949  -1669609.25045  21676369.4974   21676367.1064
      -573.6104
  11316389.35548   8806019.08244  22659272.4424   22659270.7634
     -3324.3824
  -5446501.02049  -4230561.80546  21253456.1224   21253454.1304
       401.8254
  -5668854.53549  -4412925.37946  21535198.3024   21535196.7674
       788.7534
 04  9 10 15 53 45.0010000  0  5G20G11G14G25G 1
  -4540820.05148  -3533589.25843  23385104.4974   23385102.3374
      2108.2144
  -2135855.41448  -1662796.29745  21678033.3414   21678030.8684
      -582.8874
  11366287.59848   8844900.82044  22668767.6774   22668765.7394
     -3326.5494
  -5452397.37549  -4235156.36346  21252334.2714   21252332.1854
       393.0904
  -5680606.41449  -4422082.68446  21532962.0364   21532960.8334
       783.4594
 04  9 10 15 54  0.0010000  0  5G20G11G14G25G 1
  -4572420.96548  -3558213.30542  23379090.5914   23379088.5014
      2106.7284
  -2126970.85249  -1655873.27345  21679724.0754   21679721.5524
      -592.3044
  11416220.19548   8883809.30944  22678269.4424   22678267.5954
     -3328.8404
  -5458160.75449  -4239647.29746  21251237.5524   21251235.5994
       384.2254
  -5692276.88349  -4431176.54346  21530741.1534   21530739.8964
       778.0314
 04  9 10 15 54 15.0010000  0  5G20G11G14G25G 1
  -4603999.09448  -3582819.66843  23373082.3564   23373079.1614
      2105.2094
  -2117944.78549  -1648839.99645  21681441.4504   21681439.3414
      -601.7384
  11466187.20348   8922744.61344  22687778.1774   22687776.9624
     -3331.1344
  -5463790.64149  -4244034.21946  21250166.1224   21250164.2314
       375.3264
  -5703865.71949  -4440206.80546  21528535.7314   21528534.7124
       772.5894
 04  9 10 15 54 30.0010000  0  5G20G11G14G25G 1
  -4635554.55548  -3607408.34443  23367077.4664   23367074.3414
      2103.6974
  -2108777.52749  -1641696.69546  21683186.2944   21683183.6304
      -611.1514
  11516188.32048   8961706.48844  22697293.1064   22697291.6774
     -3333.4084
  -5469287.36349  -4248317.36346  21249120.1694   21249118.4974
       366.4484
  -5715373.16849  -4449173.63746  21526346.2394   21526345.0994
       767.1634
 04  9 10 15 54 45.0010000  0  5G20G11G14G25G 1
  -4667087.23448  -3631979.25443  23361076.5284   23361074.1424
      2102.1794
  -2099469.12549  -1634443.39846  21684957.7944   21684955.0174
      -620.5604
  11566223.22748   9000694.69544  22706814.8964   22706812.8454
     -3335.6604
  -5474650.85549  -4252496.70346  21248099.5834   21248097.6574
       357.5664
  -5726799.25849  -4458077.09046  21524172.0834   21524169.9384
       761.7394
 04  9 10 15 55  0.0010000  0  5G20G11G14G25G 1
  -4698597.77348  -3656532.92643  23355080.2864   23355077.8534
      2100.7034
  -2090020.50049  -1627080.84446  21686755.5134   21686752.9704
      -629.9084
  11616290.91048   9039708.44944  22716342.1304   22716340.2554
     -3337.8464
  -5479881.94949  -4256572.87946  21247104.2554   21247102.4114
       348.7404
  -5738144.92249  -4466917.85246  21522012.8024   21522011.1384
       756.3784
 04  9 10 15 55 15.0010000  0  5G20G11G14G25G 1
  -4730087.37148  -3681070.26643  23349088.5364   23349086.3494
      2099.3074
  -2080432.83248  -1619609.94545  21688580.2164   21688576.9814
      -639.1784
  11666389.84449   9078746.55544  22725875.8334   22725874.3604
     -3339.9294
  -5484981.80149  -4260546.78546  21246133.6224   21246131.9274
       339.9904
  -5749411.39149  -4475696.91446  21519869.0444   21519867.2824
       751.0984
 04  9 10 15 55 30.0010000  0  5G20G11G14G25G 1
  -4761555.64548  -3705590.98843  23343100.4584   23343099.1034
      2097.8854
  -2070705.78548  -1612030.43445  21690430.8174   21690428.1884
      -648.4704
  11716520.18048   9117809.12144  22735414.8564   22735413.7394
     -3342.0224
  -5489949.90649  -4264418.03146  21245188.3104   21245186.3294
       331.2074
  -5760598.42249  -4484414.07846  21517739.9584   21517738.6464
       745.8024
 04  9 10 15 55 45.0010000  0  5G20G11G14G25G 1
  -4793002.25048  -3730094.84443  23337116.4974   23337114.4664
      2096.4404
  -2060839.19949  -1604342.19946  21692308.6304   21692305.7594
      -657.7724
  11766681.88748   9156896.12144  22744960.6854   22744958.9274
     -3344.1144
  -5494786.08248  -4268186.47346  21244267.3804   21244265.6184
       322.4124
  -5771705.86349  -4493069.23846  21515626.4194   21515625.0484
       740.4964
 04  9 10 15 56  0.0010000  0  5G20G11G14G25G 1
  -4824426.44948  -3754581.23843  23331136.0914   23331135.0524
      2094.9474
  -2050832.54749  -1596544.80945  21694212.6854   21694209.9704
      -667.1104
  11816875.29348   9196007.84044  22754511.7314   22754510.8844
     -3346.2274
  -5499489.76648  -4271851.67246  21243372.5754   21243370.7204
       313.5794
  -5782733.28149  -4501662.01646  21513527.5754   21513526.6964
       735.1614
 04  9 10 15 56 15.0010000  0  5G20G11G14G25G 1
  -4855828.84048  -3779050.62543  23325160.6464   23325159.2044
      2093.4934
  -2040686.59849  -1588638.89145  21696143.7944   21696140.9894
      -676.3974
  11867099.53148   9235143.58644  22764069.1774   22764068.3064
     -3348.2834
  -5504061.43049  -4275414.01246  21242502.6304   21242500.6964
       304.7784
  -5793681.46149  -4510193.06246  21511444.5054   21511443.4384
       729.8794
 04  9 10 15 56 30.0010000  0  5G20G11G14G25G 1
  -4887206.88748  -3803501.03143  23319189.1304   23319187.6574
      2091.8704
  -2030398.87549  -1580622.50046  21698101.0054   21698098.6224
      -685.8484
  11917356.85248   9274305.08244  22773633.1384   22773632.3534
     -3350.4884
  -5508498.71149  -4278871.61346  21241658.5364   21241656.5054
       295.8194
  -5804547.93749  -4518660.44946  21509376.5754   21509375.2984
       724.4324
 04  9 10 15 56 45.0010000  0  5G20G11G14G25G 1
  -4918562.57848  -3827934.04343  23313222.7314   23313220.8134
      2090.3794
  -2019971.74249  -1572497.47346  21700085.6144   21700083.0634
      -695.1424
  11967644.79348   9313490.45344  22783202.4744   22783201.0914
     -3352.5294
  -5512803.69149  -4282226.14146  21240839.1224   21240837.2354
       286.9994
  -5815334.88349  -4527065.84446  21507324.1224   21507322.6534
       719.1304
 04  9 10 15 57  0.0010000  0  5G20G11G14G25G 1
  -4949897.78948  -3852351.06243  23307259.9974   23307258.8214
      2089.0144
  -2009407.04349  -1564265.24646  21702095.8564   21702093.3104
      -704.3134
  12017961.18048   9352698.00444  22792777.3724   22792776.2084
     -3354.4264
  -5516978.27749  -4285479.06246  21240044.9814   21240043.5874
       278.3064
  -5826044.44149  -4535410.94546  21505285.7864   21505284.8214
       713.9714
 04  9 10 15 57 15.0010000  0  5G20G11G14G25G 1
  -4981210.72348  -3876750.74643  23301301.0054   23301299.8684
      2087.5294
  -1998703.18749  -1555924.58246  21704132.3174   21704130.2904
      -713.5904
  12068307.59848   9391928.94144  22802358.2474   22802357.0994
     -3356.4284
  -5521020.68449  -4288628.98846  21239275.8104   21239273.5484
       269.4944
  -5836674.87549  -4543694.39146  21503263.2714   21503261.8844
       708.6964
 04  9 10 15 57 30.0010000  0  5G20G11G14G25G 1
  -5012499.48448  -3901131.59043  23295346.9974   23295345.5714
      2085.9174
  -1987858.40249  -1547474.11346  21706196.3104   21706193.9544
      -722.9864
  12118685.54748   9431184.45744  22811944.8334   22811943.5324
     -3358.5304
  -5524929.20349  -4291674.58246  21238532.0834   21238530.2044
       260.5684
  -5847224.53949  -4551914.88346  21501255.2944   21501254.2944
       703.3114
 04  9 10 15 57 45.0010000  0  5G20G11G14G25G 1
  -5043766.55548  -3925495.52743  23289396.2554   23289395.4274
      2084.4714
  -1976875.41049  -1538915.95745  21708286.4034   21708284.2674
      -732.1994
  12169092.13748   9470462.27744  22821536.6464   22821535.3994
     -3360.4394
  -5528706.34049  -4294617.80546  21237813.1614   21237810.8994
       251.8094
  -5857696.06649  -4560074.52046  21499262.9504   21499261.4744
       698.1024
 04  9 10 15 58  0.0010000  0  5G20G11G14G25G 1
  -5075011.98448  -3949842.58243  23283450.7394   23283449.2864
      2083.0294
  -1965754.43749  -1530250.26245  21710402.7784   21710400.0714
      -741.3984
  12219526.93448   9509762.09844  22831134.3024   22831132.7354
     -3362.3204
  -5532352.22749  -4297458.75446  21237119.2784   21237117.5174
       243.0594
  -5868089.77349  -4568173.50446  21497284.7244   21497283.3764
       692.9144
 04  9 10 15 58 15.0010000  0  5G20G11G14G25G 1
  -5106233.78948  -3974171.27343  23277510.0914   23277508.2004
      2081.4544
  -1954493.53148  -1521475.53945  21712545.3414   21712542.8764
      -750.7274
  12269991.69948   9549085.26244  22840737.5914   22840735.9424
     -3364.3184
  -5535865.00849  -4300195.97746  21236451.0284   21236449.1224
       234.1854
  -5878403.85249  -4576210.43046  21495322.2164   21495320.8294
       687.6054
 04  9 10 15 58 30.0010000  0  6G20G11G14G23G25G 1
  -5137431.52748  -3998481.18743  23271573.2084   23271570.9464
      2079.8494
  -1943092.55949  -1512591.66846  21714715.0994   21714713.0284
      -760.0654
  12320486.55148   9588431.86744  22850346.7004   22850345.5404
     -3366.3234
    -81872.68756    -58902.83653  24557094.0604   24557090.9854

  -5539244.23849  -4302829.13746  21235807.6464   21235805.8134
       225.2824
  -5888637.98049  -4584185.06246  21493374.7784   21493373.1464
       682.2754
 04  9 10 15 58 45.0010000  0  6G20G11G14G23G25G 1
  -5168608.83248  -4022775.18043  23265640.4354   23265638.0174
      2078.4874
  -1931555.21949  -1503601.54746  21716910.7474   21716908.4704
      -769.1564
  12371007.46148   9627798.78944  22859960.3884   22859958.9854
     -3368.0614
   -115202.66845    -84874.24242  24550750.8254   24550748.4314
      2221.9994
  -5542493.67249  -4305361.16446  21235189.2474   21235187.1924
       216.6294
  -5898795.92249  -4592100.34046  21491441.9194   21491440.3764
       677.1964
 04  9 10 15 59  0.0010000  0  6G20G11G14G23G25G 1
  -5199763.83648  -4047051.81643  23259712.1464   23259708.9544
      2077.0004
  -1919879.80949  -1494503.82446  21719132.1534   21719130.0674
      -778.3614
  12421556.05148   9667187.27044  22869579.7244   22869578.0994
     -3369.9064
   -148499.59046   -110819.86342  24544415.2394   24544412.5444
      2219.7954
  -5545611.41849  -4307790.56646  21234595.9584   21234594.2984
       207.8504
  -5908876.03549  -4599954.96546  21489523.9034   21489522.3064
       672.0084
 04  9 10 15 59 15.0010000  0  6G20G11G14G23G25G 1
  -5230897.08248  -4071311.49243  23253787.2164   23253784.3844
      2075.5504
  -1908067.02749  -1485299.05946  21721379.9274   21721378.0324
      -787.5194
  12472131.44548   9706596.63343  22879203.2394   22879202.1924
     -3371.6934
   -181764.00845   -136740.16443  24538084.8644   24538082.7164
      2217.6284
  -5548598.24649  -4310117.96146  21234027.7864   21234026.1184
       199.1224
  -5918879.07849  -4607749.53946  21487620.0284   21487618.7864
       666.8704
 04  9 10 15 59 30.0010000  0  6G20G11G14G23G25G 1
  -5262008.95748  -4095554.50843  23247867.0754   23247864.7904
      2074.1254
  -1896117.71149  -1475987.91446  21723654.3254   21723651.8764
      -796.6214
  12522732.74248   9746026.19143  22888832.6774   22888830.7514
     -3373.4204
   -214996.41445   -162635.52743  24531761.0994   24531758.8414
      2215.4944
  -5551454.66849  -4312343.73046  21233484.0754   21233482.1614
       190.4284
  -5928805.68049  -4615484.54346  21485730.9744   21485730.1464
       661.7734
 04  9 10 15 59 45.0010000  0  6G20G11G14G23G25G 1
  -5293098.96548  -4119780.48843  23241951.0604   23241947.9784
      2072.6674
  -1884031.28149  -1466569.92246  21725954.2474   21725951.9384
      -805.7624
  12573360.30548   9785476.21943  22898466.5674   22898465.2634
     -3375.1714
   -248196.27745   -188505.53542  24525443.0674   24525441.0794
      2213.3244
  -5554180.18449  -4314467.50846  21232965.5524   21232963.7674
       181.7014
  -5938655.39149  -4623159.64146  21483856.7944   21483855.4584
       656.6474
 04  9 10 16  0  0.0010000  0  6G20G11G14G23G25G 1
  -5324165.86748  -4143988.46943  23236038.9274   23236036.5524
      2071.1274
  -1871806.71549  -1457044.30145  21728280.7474   21728278.2634
      -814.9714
  12624014.98048   9824947.34844  22908106.0284   22908104.3964
     -3376.9784
   -281362.62545   -214349.41842  24519131.0524   24519129.8644
      2211.0904
  -5556773.66849  -4316488.41046  21232471.9504   21232470.4154
       172.8994
  -5948427.30149  -4630774.10946  21481997.1774   21481996.0054
       651.4614
 04  9 10 16  0 15.0010000  0  6G20G11G14G23G25G 1
  -5355209.32848  -4168178.16443  23230131.5994   23230129.4424
      2069.5644
  -1859443.81249  -1447410.88745  21730632.9274   21730630.3494
      -824.1934
  12674696.73448   9864439.59044  22917749.7084   22917749.2864
     -3378.7844
   -314495.03545   -240166.88742  24512826.7084   24512824.2244
      2208.8274
  -5559234.84049  -4318406.19546  21232003.8334   21232001.7984
       164.0784
  -5958121.26649  -4638327.83646  21480152.5754   21480151.1344
       646.2644
 04  9 10 16  0 30.0010000  0  6G20G11G14G23G25G 1
  -5386229.50048  -4192349.72343  23224228.4974   23224226.9504
      2068.0114
  -1846942.89849  -1437669.92645  21733011.6534   21733009.2554
      -833.3944
  12725405.07848   9903952.55944  22927399.1384   22927398.8644
     -3380.5564
   -347593.88345   -265958.16842  24506527.7714   24506525.5524
      2206.5904
  -5561563.97749  -4320221.10246  21231560.4354   21231558.5134
       155.2764
  -5967737.59449  -4645821.07846  21478322.9424   21478321.4544
       641.0894
 04  9 10 16  0 45.0010000  0  6G20G11G14G23G25G 1
  -5417224.25448  -4216501.47743  23218330.7554   23218329.0094
      2066.3174
  -1834302.40649  -1427820.21145  21735417.6694   21735414.8724
      -842.6994
  12776141.73847   9943487.59443  22937054.9354   22937054.0214
     -3382.4444
   -380657.17646   -291721.73442  24500236.0754   24500233.4234
      2204.2204
  -5563759.19149  -4321931.64846  21231142.7944   21231140.5324
       146.3484
  -5977274.43749  -4653252.36746  21476507.8414   21476506.8134
       635.7904
 04  9 10 16  1  0.0010000  0  6G20G11G14G23G25G 1
  -5448194.08248  -4240633.81643  23212437.1224   23212435.1104
      2064.6554
  -1821522.70749  -1417862.01645  21737849.0914   21737846.0444
      -851.9804
  12826906.01648   9983044.13743  22946715.0214   22946713.8334
     -3384.2854
   -413685.33645   -317457.93742  24493950.8334   24493948.0794
      2201.8774
  -5565820.90649  -4323538.18046  21230750.3414   21230748.3534
       137.4484
  -5986732.39149  -4660622.19946  21474707.7314   21474706.8494
       630.5304
 04  9 10 16  1 15.0010000  0  6G20G11G14G23G25G 1
  -5479137.78548  -4264745.78943  23206548.8644   23206546.7904
      2062.9144
  -1808602.77349  -1407794.55545  21740307.8334   21740304.9854
      -861.3294
  12877698.72748  10022622.83244  22956380.2714   22956380.1384
     -3386.1814
   -446677.41446   -343166.03542  24487672.8804   24487669.6694
      2199.4724
  -5567748.00849  -4325039.81246  21230383.6464   21230381.5674
       128.4734
  -5996110.40249  -4667929.74246  21472923.5214   21472922.3334
       625.2014
 04  9 10 16  1 30.0010000  0  6G20G11G14G23G25G 1
  -5510056.79347  -4288838.52743  23200664.8414   23200662.8174
      2061.2674
  -1795544.41449  -1397619.22345  21742792.9584   21742790.1034
      -870.5574
  12928518.06648  10062222.28144  22966051.0214   22966050.7674
     -3387.9564
   -479634.90646   -368847.16842  24481401.0054   24481398.9974
      2197.1664
  -5569542.07449  -4326437.77746  21230042.2784   21230039.9384
       119.6044
  -6005410.15649  -4675176.29746  21471153.7314   21471152.4034
       619.9844
 04  9 10 16  1 45.0010000  0  6G20G11G14G23G25G 1
  -5540950.64847  -4312911.63343  23194785.8724   23194784.2164
      2059.5904
  -1782347.17649  -1387335.66845  21745304.0834   21745301.3994
      -879.8164
  12979364.26648  10101842.66044  22975726.6064   22975725.7904
     -3389.7474
   -512557.39846   -394501.06242  24475136.6304   24475133.0634
      2194.8334
  -5571202.81649  -4327731.85946  21229726.2634   21229724.2784
       110.7164
  -6014631.35249  -4682361.62546  21469398.8494   21469397.9354
       614.7464
 04  9 10 16  2  0.0010000  0  6G20G11G14G23G25G 1
  -5571818.31647  -4336964.36343  23188911.7004   23188910.3414
      2057.8454
  -1769010.19549  -1376943.23045  21747842.0994   21747839.3924
      -889.1324
  13030237.93848  10141484.43843  22985407.7634   22985406.1814
     -3391.5784
   -545444.09847   -420127.05142  24468877.7714   24468874.6574
      2192.4474
  -5572729.39849  -4328921.40246  21229435.8254   21229433.6884
       101.7724
  -6023773.24249  -4689485.17246  21467659.6064   21467658.0444
       609.4594
 04  9 10 16  2 15.0010000  0  6G20G11G14G23G25G 1
  -5602660.62947  -4360997.31243  23183043.0214   23183040.9114
      2056.1544
  -1755534.35249  -1366442.58645  21750406.4354   21750403.5914
      -898.3904
  13081137.91448  10181146.71943  22995094.0754   22995092.3294
     -3393.3324
   -578295.71946   -445725.69142  24462626.7314   24462623.4114
      2190.1084
  -5574122.56249  -4330006.98046  21229170.5674   21229168.5014
        92.8784
  -6032836.66849  -4696547.57446  21465934.5444   21465933.2434
       604.2284
 04  9 10 16  2 30.0010000  0  6G20G11G14G23G25G 1
  -5633477.78947  -4385010.68443  23177178.4814   23177176.0174
      2054.4774
  -1741920.34849  -1355834.27345  21752997.2394   21752994.6424
      -907.6004
  13132063.61348  10220829.05944  23004784.7944   23004783.6574
     -3395.0474
   -611112.70747   -471297.36742  24456381.6774   24456378.3174
      2187.7994
  -5575382.60249  -4330988.82446  21228930.5754   21228928.9934
        84.0034
  -6041822.22349  -4703549.30146  21464224.9114   21464223.2594
       599.0374
 04  9 10 16  2 45.0010000  0  6G20G11G14G23G25G 1
  -5664267.88747  -4409002.96543  23171319.2714   23171317.1224
      2052.6734
  -1728166.43049  -1345116.93746  21755614.3494   21755611.7284
      -916.9284
  13183016.78548  10260532.78544  23014481.0054   23014479.7394
     -3396.8784
   -643893.07847   -496840.50442  24450144.1224   24450139.4424
      2185.3584
  -5576507.71949  -4331865.53946  21228716.8254   21228714.9274
        75.0084
  -6050728.14849  -4710488.98046  21462530.1464   21462528.2864
       593.7284
 04  9 10 16  3  0.0020000  0  6G20G11G14G23G25G 1
  -5695033.23047  -4432975.96143  23165465.2994   23165462.8384
      2051.0234
  -1714272.03949  -1334290.14846  21758258.4794   21758255.9284
      -926.2934
  13234000.10548  10300260.01643  23024182.3224   23024181.0214
     -3398.8884
   -676639.57847   -522357.25842  24443912.8614   24443908.6824
      2183.1004
  -5577498.52749  -4332637.59446  21228528.1974   21228526.3654
        66.0544
  -6059555.55949  -4717367.48446  21460850.5574   21460848.7994
       588.4944
 04  9 10 16  3 15.0020000  0  6G20G11G14G23G25G 1
  -5725769.08647  -4456925.96143  23159616.2134   23159615.0334
      2049.0574
  -1700238.67649  -1323355.07046  21760928.8614   21760926.7484
      -935.5584
  13285007.12548  10340005.71543  23033888.8384   23033887.3304
     -3400.4684
   -709347.29347   -547843.79342  24437689.0024   24437684.4244
      2180.5144
  -5578354.24249  -4333304.37546  21228365.4084   21228363.4364
        57.0484
  -6068302.69149  -4724183.42646  21459185.7914   21459184.1934
       583.1424
 04  9 10 16  3 30.0020000  0  6G20G11G14G23G25G 1
  -5756479.61347  -4480856.23843  23153772.0184   23153770.0764
      2047.3684
  -1686067.75049  -1312312.80145  21763625.4794   21763622.6234
      -944.7284
  13336038.69148  10379770.53543  23043600.3144   23043598.3424
     -3402.1044
   -742020.60547   -573303.50442  24431470.9244   24431467.4474
      2178.2214
  -5579077.17649  -4333867.68746  21228227.6744   21228226.1434
        48.1964
  -6076972.59049  -4730939.17646  21457536.0414   21457534.6664
       577.9934
 04  9 10 16  3 45.0020000  0  6G20G11G14G23G25G 1
  -5787162.94547  -4504765.31643  23147933.0574   23147931.1314
      2045.5554
  -1671757.54349  -1301161.99646  21766348.3694   21766346.0024
      -954.0144
  13387096.40248  10419555.72743  23053315.6274   23053314.4434
     -3403.8474
   -774657.73447   -598735.03542  24425260.8544   24425256.9594
      2175.8094
  -5579665.50049  -4334326.12146  21228115.8074   21228113.5724
        39.2224
  -6085563.53949  -4737633.42246  21455901.1504   21455899.9474
       572.7304
 04  9 10 16  4  0.0020000  0  6G20G11G14G23G25G 1
  -5817818.78548  -4528652.99643  23142099.8544   23142097.3734
      2043.7234
  -1657308.10549  -1289902.70745  21769098.0964   21769095.6624
      -963.2964
  13438180.16448  10459361.23043  23063037.0414   23063035.2794
     -3405.5844
   -807258.55547   -624138.27342  24419056.7914   24419053.7364
      2173.3884
  -5580119.26649  -4334679.69546  21228029.7054   21228027.8464
        30.2514
  -6094075.55949  -4744266.15246  21454281.0884   21454279.8114
       567.4684
 04  9 10 16  4 15.0020000  0  6G20G11G14G23G25G 1
  -5848448.33648  -4552520.17243  23136271.1664   23136269.1434
      2041.9704
  -1642720.55549  -1278535.80145  21771874.1974   21771871.6394
      -972.5034
  13489288.61348  10499185.95743  23072762.2914   23072760.2484
     -3407.2304
   -839824.22747   -649514.11742  24412859.6824   24412857.1114
      2171.0454
  -5580439.67249  -4334929.36346  21227968.6044   21227966.6544
        21.3604
  -6102509.85549  -4750838.32846  21452676.1434   21452675.1664
       562.2864
 04  9 10 16  4 30.0020000  0  6G20G11G14G23G25G 1
  -5879049.14847  -4576364.96143  23130448.0724   23130445.8384
      2040.0544
  -1627992.82449  -1267059.64546  21774676.6274   21774674.2214
      -981.8494
  13540423.69147  10539031.46143  23082493.1744   23082491.0574
     -3409.0054
   -872352.51647   -674860.82442  24406669.2914   24406667.2714
      2168.5534
  -5580624.32849  -4335073.23846  21227933.1584   21227931.3034
        12.3104
  -6110864.25449  -4757348.24646  21451086.6824   21451085.0764
       556.9604
 04  9 10 16  4 45.0020000  0  6G20G11G14G23G25G 1
  -5909622.07447  -4600188.03543  23124630.0104   23124628.2324
      2038.1954
  -1613126.01649  -1255475.12946  21777506.1274   21777503.5454
      -991.1214
  13591584.35247  10578896.86343  23092228.6584   23092227.1434
     -3410.7114
   -904844.27348   -700179.07842  24400487.1044   24400484.3264
      2166.1174
  -5580674.27349  -4335112.16846  21227924.0644   21227922.1074
         3.3304
  -6119139.84449  -4763796.74646  21449511.7994   21449510.5534
       551.7064
 04  9 10 16  5  0.0020000  0  6G20G11G14G23G25G 1
  -5940167.01648  -4623989.28144  23118818.1744   23118815.4204
      2036.3294
  -1598120.34849  -1243782.40646  21780361.2524   21780358.6114
     -1000.3784
  13642770.12148  10618781.83643  23101969.3774   23101968.0924
     -3412.3854
   -937299.70347   -725469.01242  24394310.6894   24394307.1544
      2163.6954
  -5580589.61749  -4335046.19146  21227939.9864   21227938.2564
        -5.6444
  -6127336.85249  -4770184.02046  21447952.0644   21447950.9474
       546.4674
 04  9 10 16  5 15.0020000  0  6G20G11G14G23G25G 1
  -5970685.03147  -4647769.55544  23113010.2994   23113008.0374
      2034.5344
  -1582976.89849  -1231982.33246  21783242.9634   21783240.8424
     -1009.5634
  13693979.87948  10658685.50443  23111713.9714   23111713.0454
     -3413.9844
   -969719.83648   -750731.44142  24388141.5024   24388137.2794
      2161.3424
  -5580371.48849  -4334876.21946  21227981.8464   21227979.6624
       -14.5424
  -6135456.43449  -4776510.95746  21446406.6974   21446405.6744
       541.3054
 04  9 10 16  5 30.0020000  0  6G20G11G14G23G25G 1
  -6001174.62947  -4671527.67244  23107208.2914   23107207.3814
      2032.6404
  -1567694.55549  -1220074.02046  21786151.3074   21786148.9434
     -1018.8234
  13745214.68047  10698608.69943  23121463.7444   23121462.4364
     -3415.6534
  -1002103.39548   -775965.38342  24381979.1044   24381975.3344
      2158.9044
  -5580018.57049  -4334601.21546  21228048.5494   21228047.1114
       -23.5284
  -6143497.24249  -4782776.52046  21444876.7754   21444875.6464
       536.0544
 04  9 10 16  5 45.0020000  0  6G20G11G14G23G25G 1
  -6031634.20748  -4695262.41444  23101412.2684   23101410.7604
      2030.6394
  -1552271.89149  -1208056.36745  21789086.1114   21789083.4944
     -1028.1784
  13796475.74647  10738552.35943  23131218.7994   23131217.6274
     -3417.4044
  -1034448.80948   -801169.61742  24375824.0804   24375820.0844
      2156.3614
  -5579529.48849  -4334220.11746  21228141.8774   21228139.9674
       -32.6054
  -6151457.96549  -4788979.66846  21443361.6434   21443360.8424
       530.7154
 04  9 10 16  6  0.0020000  0  6G20G11G14G23G25G 1
  -6062066.47748  -4718975.85544  23095621.2754   23095619.6744
      2028.8184
  -1536711.65649  -1195931.52045  21792046.9244   21792044.5024
     -1037.3494
  13847760.09847  10778514.14543  23140977.5644   23140976.3654
     -3418.9574
  -1066758.86748   -826346.29742  24369675.4474   24369672.2444
      2154.0044
  -5578906.92249  -4333734.98846  21228260.3074   21228258.4474
       -41.5044
  -6159341.50449  -4795122.68046  21441861.4394   21441860.3074
       525.5694
 04  9 10 16  6 15.0020000  0  6G20G11G14G23G25G 1
  -6092469.01248  -4742666.13744  23089835.9714   23089834.2214
      2026.8364
  -1521011.74649  -1183697.83645  21795034.2684   21795031.9634
     -1046.6614
  13899069.81647  10818495.70343  23150741.5644   23150740.0534
     -3420.6484
  -1099031.24647   -851493.60242  24363534.5724   24363531.0254
      2151.4924
  -5578148.54349  -4333144.04346  21228404.7054   21228402.5374
       -50.5594
  -6167145.60949  -4801203.79346  21440376.4244   21440375.3304
       520.2744
 04  9 10 16  6 30.0020000  0  6G20G11G14G23G25G 1
  -6122842.05148  -4766333.43444  23084055.5414   23084054.0374
      2024.8694
  -1505172.74649  -1171355.76645  21798048.8544   21798046.6974
     -1055.9334
  13950404.35247  10858496.60543  23160510.3774   23160508.8264
     -3422.3024
  -1131266.32048   -876611.82842  24357400.5574   24357396.9674
      2149.0054
  -5577254.81249  -4332447.62146  21228574.6664   21228572.9794
       -59.5824
  -6174870.73449  -4807223.37146  21438906.7054   21438905.2954
       515.0084
 04  9 10 16  6 45.0020000  0  6G20G11G14G23G25G 1
  -6153186.65248  -4789978.58643  23078281.3384   23078278.7134
      2022.9734
  -1489196.02049  -1158906.37945  21801088.6194   21801086.4674
     -1065.1154
  14001762.20748  10898515.68443  23170283.3144   23170281.8774
     -3423.8574
  -1163465.23848   -901701.89142  24351273.5644   24351269.7214
      2146.5954
  -5576226.81249  -4331646.57846  21228769.9714   21228768.0414
       -68.5334
  -6182518.20349  -4813182.43046  21437451.1114   21437449.6784
       509.8314
 04  9 10 16  7  0.0020000  0  6G20G11G14G23G25G 1
  -6183502.46548  -4813601.29743  23072512.4164   23072510.0454
      2021.0544
  -1473081.23849  -1146349.42245  21804155.3464   21804153.3504
     -1074.3194
  14053143.51248  10938553.02743  23180060.8224   23180060.1864
     -3425.4204
  -1195627.75448   -926763.58242  24345152.9004   24345149.3854
      2144.1684
  -5575064.39149  -4330740.78946  21228991.1974   21228989.4324
       -77.4954
  -6190087.79349  -4819080.81246  21436010.9244   21436009.4364
       504.6394
 04  9 10 16  7 15.0020000  0  6G20G11G14G23G25G 1
  -6213788.69548  -4837200.96143  23066749.2994   23066747.0724
      2019.0824
  -1456827.94149  -1133684.53545  21807248.2604   21807246.3854
     -1083.5534
  14104548.57448  10978608.88343  23189842.4084   23189841.9394
     -3427.0044
  -1227753.35248   -951796.51642  24339039.1824   24339035.6044
      2141.7074
  -5573767.10549  -4329729.91446  21229238.1354   21229236.4204
       -86.4864
  -6197579.05549  -4824918.15646  21434585.2524   21434583.7484
       499.4174
 04  9 10 16  7 30.0020000  0  6G20G11G14G23G25G 1
  -6244044.30548  -4860776.75044  23060992.0334   23060989.5294
      2017.0414
  -1440435.28549  -1120911.05145  21810367.8074   21810365.2174
     -1092.8444
  14155978.14848  11018683.84043  23199629.7294   23199629.1194
     -3428.6384
  -1259840.99647   -976799.87542  24332932.5574   24332930.6044
      2139.1764
  -5572333.91449  -4328613.14546  21229510.9634   21229509.5764
       -95.5464
  -6204991.08649  -4830693.76246  21433174.8074   21433173.3074
       494.1354
 04  9 10 16  7 45.0020000  0  6G20G11G14G23G25G 1
  -6274270.31648  -4884329.50043  23055240.1354   23055237.2564
      2015.0674
  -1423904.55549  -1108029.96945  21813513.1824   21813511.1784
     -1102.0494
  14207431.01248  11058776.94143  23209421.0644   23209419.8504
     -3430.1914
  -1291891.87947  -1001774.55942  24326833.8464   24326831.1784
      2136.7264
  -5570765.98849  -4327391.37546  21229809.3304   21229807.8264
      -104.5284
  -6212325.14549  -4836408.60546  21431779.3774   21431777.8114
       488.9374
 04  9 10 16  8  0.0020000  0  6G20G11G14G23G25G 1
  -6304465.40248  -4907858.13743  23049493.8774   23049491.7794
      2013.0064
  -1407234.70749  -1095040.50046  21816685.8934   21816683.4004
     -1111.3234
  14258908.03148  11098888.85943  23219217.0574   23219215.6004
     -3431.8014
  -1323904.70347  -1026719.60242  24320741.9794   24320739.7094
      2134.1884
  -5569062.10249  -4326063.68046  21230133.6584   21230131.9004
      -113.5924
  -6219580.15649  -4842061.85246  21430398.6044   21430396.8894
       483.6674
 04  9 10 16  8 15.0020000  0  6G20G11G14G23G25G 1
  -6334631.60548  -4931364.27344  23043753.3544   23043751.3074
      2011.0804
  -1390428.05149  -1081944.41845  21819884.0644   21819881.5334
     -1120.4444
  14310406.80948  11139017.74643  23229016.9634   23229015.2644
     -3433.2524
  -1355881.66847  -1051636.73042  24314657.0184   24314654.5684
      2131.7984
  -5567224.50849  -4324631.78946  21230482.9474   21230481.4124
      -122.5064
  -6226758.34849  -4847655.25046  21429032.7994   21429031.3304
       478.5464
 04  9 10 16  8 30.0020000  0  6G20G11G14G23G25G 1
  -6364767.03148  -4954846.41043  23038018.9004   23038017.2174
      2009.0284
  -1373482.87949  -1068740.40646  21823108.5574   21823106.2604
     -1129.6784
  14361928.98848  11179164.86743  23238820.7214   23238819.6044
     -3434.8124
  -1387821.13347  -1076524.59443  24308579.4714   24308576.9364
      2129.2984
  -5565251.40649  -4323094.30146  21230858.7684   21230856.5964
      -131.5404
  -6233858.10549  -4853187.52046  21427681.4714   21427680.2874
       473.3174
 04  9 10 16  8 45.0020000  0  6G20G11G14G23G25G 1
  -6394873.07848  -4978305.66843  23032289.6114   23032287.7404
      2007.0704
  -1356400.88749  -1055429.77746  21826359.3144   21826356.9904
     -1138.7994
  14413472.84448  11219328.85543  23248629.6434   23248628.0574
     -3436.2574
  -1419724.42647  -1101384.26642  24302507.3384   24302505.1274
      2126.8864
  -5563144.40649  -4321452.48046  21231259.3224   21231257.6584
      -140.4674
  -6240880.91049  -4858659.83646  21426345.0964   21426343.8934
       468.1874
 04  9 10 16  9  0.0020000  0  6G20G11G14G23G25G 1
  -6424949.52348  -5001741.85943  23026566.0964   23026564.5924
      2005.0964
  -1339182.10249  -1042012.55545  21829636.2214   21829633.6744
     -1147.9194
  14465038.17648  11259509.61743  23258442.2134   23258440.3384
     -3437.6894
  -1451591.32047  -1126215.59842  24296443.6504   24296441.3224
      2124.4604
  -5560903.52749  -4319706.33246  21231685.7684   21231683.9124
      -149.3924
  -6247826.92249  -4864072.30546  21425023.3304   21425022.0024
       463.0674
 04  9 10 16  9 15.0020000  0  6G20G11G14G23G25G 1
  -6454995.87548  -5025154.59843  23020848.5804   23020846.9674
      2003.0904
  -1321826.22749  -1028488.51246  21832938.6974   21832936.2834
     -1157.0584
  14516625.12548  11299707.21543  23268258.6744   23268257.5644
     -3439.1304
  -1483421.65647  -1151018.43442  24290387.1044   24290383.5804
      2122.0224
  -5558528.42649  -4317855.60946  21232137.6504   21232135.9824
      -158.3404
  -6254695.82049  -4869424.68746  21423715.9394   21423714.6744
       457.9274
 04  9 10 16  9 30.0020000  0  6G20G11G14G23G25G 1
  -6485011.24648  -5048543.19143  23015136.4554   23015135.6784
      2001.0254
  -1304332.59049  -1014857.12946  21836267.2054   21836265.1234
     -1166.2424
  14568234.39548  11339922.18443  23278079.8144   23278078.8934
     -3440.6184
  -1515214.69947  -1175792.23042  24284337.4474   24284333.9754
      2119.5364
  -5556018.12149  -4315899.52346  21232615.8774   21232613.9124
      -167.3544
  -6261486.83649  -4874716.38746  21422423.6354   21422422.0644
       452.7344
 04  9 10 16  9 45.0020000  0  6G20G11G14G23G25G 1
  -6514995.28548  -5071907.37143  23009431.2524   23009429.5964
      1998.9364
  -1286701.18049  -1001118.38346  21839622.7524   21839620.6664
     -1175.4274
  14619865.86748  11380154.47343  23287904.7054   23287903.6974
     -3442.0984
  -1546970.19547  -1200536.76642  24278294.1744   24278291.7294
      2117.0334
  -5553372.73449  -4313838.17646  21233118.9004   21233117.4864
      -176.3594
  -6268200.04749  -4879947.45746  21421146.3544   21421144.9794
       447.5474
 04  9 10 16 10  0.0020000  0  6G20G11G14G23G25G 1
  -6544946.92648  -5095246.31643  23003731.7444   23003729.7254
      1996.7764
  -1268931.10949   -987271.59846  21843003.7684   21843002.1394
     -1184.6714
  14671520.37948  11420404.70343  23297735.1044   23297733.1354
     -3443.6344
  -1578687.12147  -1225251.21543  24272258.3384   24272256.2524
      2114.4624
  -5550591.30149  -4311670.82447  21233648.6974   21233646.3034
      -185.4294
  -6274834.51249  -4885117.17246  21419883.7914   21419882.5494
       442.2984
 04  9 10 16 10 15.0020000  0  6G20G11G14G23G25G 1
  -6574867.93748  -5118561.38344  22998037.5724   22998036.2874
      1994.7344
  -1251024.43049   -973318.34846  21846411.6974   21846409.3654
     -1193.7794
  14723195.75448  11460671.20743  23307568.0334   23307566.3894
     -3445.0254
  -1610367.48047  -1249937.18742  24266230.0334   24266227.6744
      2112.0244
  -5547675.66849  -4309398.89546  21234203.4714   21234201.3144
      -194.3764
  -6281392.16449  -4890227.03546  21418636.1274   21418634.9084
       437.1774
 04  9 10 16 10 30.0020000  0  6G20G11G14G23G25G 1
  -6604758.42248  -5141852.66844  22992349.8384   22992348.2134
      1992.6994
  -1232981.54349   -959258.97745  21849845.4634   21849843.2484
     -1202.8594
  14774891.48048  11500953.55943  23317405.6504   23317404.1394
     -3446.3824
  -1642011.44947  -1274594.81243  24260207.8614   24260206.2604
      2109.5984
  -5544626.21949  -4307022.69546  21234783.5254   21234781.4554
      -203.2974
  -6287873.34049  -4895277.30146  21417402.8934   21417401.5024
       432.0784
 04  9 10 16 10 45.0020000  0  6G20G11G14G23G25G 1
  -6634615.97348  -5165118.29344  22986667.9944   22986666.5804
      1990.5034
  -1214800.29349   -945091.77745  21853305.1824   21853302.6434
     -1212.0834
  14826609.68048  11541253.41843  23327247.0644   23327245.8144
     -3447.8804
  -1673616.78547  -1299222.33242  24254193.5254   24254191.5334
      2107.0224
  -5541440.61349  -4304540.39846  21235389.8304   21235387.6194
      -212.3744
  -6294275.87149  -4900266.27746  21416184.3304   21416182.8184
       426.8354
 04  9 10 16 11  0.0020000  0  6G20G11G14G23G25G 1
  -6664442.13348  -5188359.46543  22980992.2214   22980990.5414
      1988.4114
  -1196482.53949   -930818.20745  21856790.9004   21856788.1074
     -1221.1844
  14878348.60548  11581569.41843  23337092.1744   23337091.4714
     -3449.2624
  -1705185.03547  -1323820.96542  24248186.8144   24248183.8184
      2104.5504
  -5538120.49649  -4301953.29746  21236021.3074   21236019.4004
      -221.3414
  -6300601.50049  -4905195.34446  21414980.6744   21414978.8774
       421.7094
 04  9 10 16 11 15.0020000  0  6G20G11G14G23G25G 1
  -6694235.61748  -5211575.16443  22975323.0804   22975321.1624
      1986.2324
  -1178027.38749   -916437.57845  21860302.5574   21860300.2054
     -1230.3434
  14930109.02348  11621902.18443  23346941.7754   23346940.7254
     -3450.6954
  -1736715.10547  -1348389.85243  24242187.8224   24242183.9324
      2102.0054
  -5534664.82849  -4299260.56646  21236679.0724   21236676.7714
      -230.3784
  -6306849.20749  -4910063.68446  21413791.9864   21413790.5414
       416.5144
 04  9 10 16 11 30.0020000  0  6G20G11G14G23G25G 1
  -6723995.97748  -5234765.05143  22969659.7364   22969657.9084
      1984.0244
  -1159434.30549   -901949.46945  21863840.6664   21863838.3424
     -1239.5394
  14981891.16447  11662251.87143  23356795.9714   23356794.8654
     -3452.1434
  -1768206.68047  -1372928.73042  24236194.2294   24236191.2524
      2099.4384
  -5531073.34849  -4296462.01646  21237362.2994   21237360.3964
      -239.4324
  -6313018.84849  -4914871.20346  21412617.6504   21412616.5214
       411.3094
 04  9 10 16 11 45.0020000  0  6G20G11G14G23G25G 1
  -6753724.31248  -5257929.98444  22964002.5334   22964000.9044
      1981.8894
  -1140704.84849   -887355.09845  21867404.9864   21867402.0374
     -1248.6304
  15033693.49648  11702617.28943  23366653.1894   23366652.4754
     -3453.4894
  -1799661.00847  -1397438.59842  24230209.0884   24230205.5884
      2096.9554
  -5527347.36749  -4293558.64846  21238071.4164   21238069.6864
      -248.3994
  -6319111.71549  -4919618.89146  21411458.2604   21411457.0104
       406.1914
 04  9 10 16 12  0.0020000  0  6G20G11G14G23G25G 1
  -6783419.93048  -5281069.43044  22958351.9324   22958349.4794
      1979.7084
  -1121838.48849   -872654.04345  21870994.6354   21870992.7364
     -1257.7574
  15085516.43448  11742998.75843  23376514.9164   23376514.5724
     -3454.8624
  -1831077.50847  -1421918.97743  24224229.7134   24224227.1394
      2094.4334
  -5523486.37549  -4290550.08246  21238806.1044   21238804.1864
      -257.3994
  -6325127.32849  -4924306.38346  21410313.5804   21410312.2834
       401.0414
 04  9 10 16 12 15.0020000  0  6G20G11G14G23G25G 1
  -6813082.25048  -5304182.93443  22952707.2834   22952704.8464
      1977.4884
  -1102834.94949   -857846.09845  21874611.1824   21874608.3814
     -1266.9034
  15137360.31648  11783396.55943  23386380.9474   23386379.2524
     -3456.2594
  -1862455.73447  -1446369.53142  24218259.4554   24218255.7954
      2091.8824
  -5519489.83649  -4287435.88746  21239566.8074   21239565.0764
      -266.4364
  -6331065.33649  -4928933.39546  21409183.3774   21409182.3774
       395.8674
 04  9 10 16 12 30.0020000  0  6G20G11G14G23G25G 1
  -6842712.38348  -5327271.33644  22947069.1114   22947066.5764
      1975.3424
  -1083695.87549   -842932.55945  21878253.4004   21878250.9554
     -1275.9384
  15189223.60548  11823809.47743  23396250.1194   23396248.8814
     -3457.5534
  -1893797.02747  -1470791.29342  24212294.8544   24212291.5764
      2089.4204
  -5515359.25049  -4284217.25046  21240352.7834   21240350.9984
      -275.3724
  -6336927.17649  -4933501.05146  21408067.7134   21408066.6464
       390.7894
 04  9 10 16 12 45.0020000  0  6G20G11G14G23G25G 1
  -6872308.83648  -5350333.51243  22941436.8774   22941433.9434
      1973.0974
  -1064420.00049   -827912.41046  21881921.3144   21881919.1704
     -1285.0584
  15241107.44148  11864238.40643  23406123.5724   23406122.1274
     -3458.9224
  -1925099.81247  -1495183.08242  24206338.2914   24206334.2014
      2086.8524
  -5511093.24649  -4280893.08246  21241164.4324   21241162.8344
      -284.4004
  -6342711.51249  -4938008.32446  21406967.1504   21406965.8184
       385.6224
 04  9 10 16 13  0.0020000  0  6G20G11G14G23G25G 1
  -6901872.15248  -5373369.86343  22935811.0104   22935808.8504
      1970.8884
  -1045007.92249   -812786.16845  21885615.6824   21885613.0614
     -1294.1394
  15293010.97748  11904682.68443  23416000.2994   23415999.5724
     -3460.2364
  -1956364.98847  -1519545.54342  24200387.9324   24200383.9124
      2084.3454
  -5506692.55549  -4277463.96546  21242001.8774   21242000.2524
      -293.3794
  -6348419.18749  -4942455.86746  21405881.1114   21405879.8464
       380.5124
 04  9 10 16 13 15.0020000  0  6G20G11G14G23G25G 1
  -6931400.95748  -5396379.32044  22930191.8934   22930189.4324
      1968.5874
  -1025458.45749   -797552.83646  21889335.6114   21889333.0374
     -1303.2984
  15344935.36348  11945143.22343  23425881.3384   23425880.2214
     -3461.6264
  -1987591.17247  -1543877.62942  24194446.4244   24194442.2684
      2081.7464
  -5502155.82449  -4273928.85246  21242865.4004   21242863.3894
      -302.4494
  -6354048.95749  -4946842.69946  21404809.7364   21404808.5724
       375.3184
 04  9 10 16 13 30.0020000  0  6G20G11G14G23G25G 1
  -6960896.04348  -5419362.49644  22924579.3614   22924577.5844
      1966.3394
  -1005772.91449   -782213.47746  21893081.5804   21893079.1234
     -1312.3704
  15396879.27048  11985618.95343  23435766.3074   23435764.4944
     -3462.9274
  -2018779.33247  -1568180.09442  24188511.2754   24188507.9394
      2079.2114
  -5497484.27749  -4270288.68446  21243753.9634   21243752.2324
      -311.4364
  -6359601.91849  -4951169.67646  21403753.2364   21403751.6044
       370.1974
 04  9 10 16 13 45.0020000  0  6G20G11G14G23G25G 1
  -6990355.57448  -5442317.95744  22918972.8694   22918971.2564
      1963.9694
   -985949.64549   -766766.80545  21896853.9864   21896851.5184
     -1321.5514
  15448844.21948  12026111.10543  23445654.5644   23445653.3184
     -3464.3304
  -2049927.82847  -1592451.62542  24182584.0104   24182580.3774
      2076.5664
  -5492676.19149  -4266542.12146  21244669.2444   21244667.5024
      -320.5394
  -6365076.43749  -4955435.53946  21402711.5964   21402710.1044
       364.9684
 04  9 10 16 14  0.0020000  0  6G20G11G14G23G25G 1
  -7019779.25048  -5465245.48444  22913374.2524   22913371.8654
      1961.5784
   -965988.59449   -751212.76646  21900652.8694   21900650.1584
     -1330.7374
  15500830.36348  12066619.74643  23455547.2914   23455546.0454
     -3465.7434
  -2081036.36347  -1616692.04742  24176664.0574   24176661.0334
      2073.9024
  -5487731.47349  -4262689.09846  21245609.9004   21245608.3384
      -329.6484
  -6370472.40249  -4959640.17646  21401684.5414   21401683.0924
       359.7314
 04  9 10 16 14 15.0020000  0  6G20G11G14G23G25G 1
  -7049168.87149  -5488146.49244  22907781.6504   22907779.3304
      1959.3084
   -945892.02049   -735553.10946  21904476.7444   21904474.3694
     -1339.7724
  15552835.44548  12107143.15243  23465443.6354   23465442.5494
     -3467.0054
  -2112106.93747  -1640902.88742  24170751.9554   24170749.1894
      2071.3724
  -5482652.05149  -4258731.08646  21246576.5024   21246574.9984
      -338.6284
  -6375791.93749  -4963785.26646  21400672.3774   21400670.6894
       354.6364
 04  9 10 16 14 30.0020000  0  6G20G11G14G23G25G 1
  -7078522.28548  -5511019.27744  22902195.8224   22902194.0024
      1956.8944
   -925657.91849   -719786.30546  21908326.8774   21908325.0924
     -1348.9404
  15604861.28148  12147682.74243  23475343.6974   23475342.4364
     -3468.3894
  -2143137.52047  -1665082.54742  24164846.7604   24164844.4434
      2068.7054
  -5477435.99249  -4254666.62146  21247569.4164   21247567.0574
      -347.7374
  -6381033.11349  -4967869.30946  21399674.8304   21399673.0724
       349.4124
 04  9 10 16 14 45.0020000  0  6G20G11G14G23G25G 1
  -7107841.30548  -5533865.26244  22896616.6114   22896615.0334
      1954.6014
   -905288.53949   -703914.07845  21912203.3074   21912201.2404
     -1357.9594
  15656905.63748  12188236.75443  23485247.7134   23485246.0374
     -3469.6244
  -2174130.08647  -1689232.60242  24158949.6044   24158946.3544
      2066.1714
  -5472085.44949  -4250497.37546  21248587.5414   21248585.3114
      -356.7034
  -6386198.02049  -4971893.90646  21398692.1114   21398690.8424
       344.3274
 04  9 10 16 15  0.0020000  0  6G20G11G14G23G25G 1
  -7137123.57848  -5556682.60244  22891044.5024   22891043.1074
      1952.1524
   -884781.73449   -687934.78145  21916105.7294   21916103.4324
     -1367.1204
  15708970.66048  12228806.87943  23495155.2524   23495153.6934
     -3471.0024
  -2205082.41848  -1713351.27342  24153059.3144   24153056.8224
      2063.4894
  -5466598.18449  -4246221.57446  21249631.5644   21249629.6624
      -365.8184
  -6391284.55149  -4975857.43046  21397724.2604   21397722.6894
       339.1024
 04  9 10 16 15 15.0020000  0  6G20G11G14G23G25G 1
  -7166369.73448  -5579471.80944  22885478.7364   22885477.6894
      1949.7444
   -864138.49249   -671849.15245  21920033.5574   21920031.4514
     -1376.2164
  15761055.46548  12269392.40643  23505066.6974   23505065.5454
     -3472.3204
  -2235995.26247  -1737439.20743  24147176.6584   24147173.5024
      2060.8564
  -5460974.91449  -4241839.80546  21250701.5024   21250699.5724
      -374.8854
  -6396293.48849  -4979760.50046  21396771.0414   21396769.4864
       333.9294
 04  9 10 16 15 30.0020000  0  6G20G11G14G23G25G 1
  -7195580.92248  -5602233.75044  22879920.3074   22879918.8614
      1947.4124
   -843360.09049   -655658.21145  21923987.5884   21923985.6234
     -1385.2274
  15813158.37948  12309992.05543  23514981.3934   23514980.3694
     -3473.5284
  -2266869.86347  -1761497.33242  24141301.7754   24141298.4514
      2058.3074
  -5455217.03549  -4237353.13746  21251797.5724   21251795.5064
      -383.8594
  -6401226.23049  -4983604.20346  21395832.5884   21395830.7014
       328.8494
 04  9 10 16 15 45.0020000  0  6G20G11G14G23G25G 1
  -7224755.53548  -5624967.22744  22874368.4864   22874367.2404
      1944.9744
   -822445.35249   -639361.02745  21927967.8544   21927965.3544
     -1394.3164
  15865280.63748  12350606.77343  23524899.8934   23524899.1464
     -3474.8174
  -2297704.95347  -1785524.66042  24135433.3854   24135430.8114
      2055.6734
  -5449323.28549  -4232760.60546  21252918.8544   21252916.4714
      -392.9174
  -6406081.51249  -4987387.54346  21394908.3224   21394907.1004
       323.6854
 04  9 10 16 16  0.0020000  0  6G20G11G14G23G25G 1
  -7253893.68048  -5647672.27044  22868823.5724   22868822.4594
      1942.5434
   -801394.69149   -622957.93445  21931973.5804   21931971.4324
     -1403.3774
  15917421.96147  12391236.33643  23534822.1584   23534821.4164
     -3476.0884
  -2328500.60247  -1809521.25842  24129573.9794   24129570.7644
      2053.0434
  -5443293.94549  -4228062.41846  21254066.3614   21254064.2684
      -401.9564
  -6410859.61349  -4991110.72746  21393998.9944   21393997.7054
       318.5404
 04  9 10 16 16 15.0020000  0  6G20G11G14G23G25G 1
  -7282997.05548  -5670350.20744  22863285.4084   22863283.4244
      1940.2254
   -780210.01249   -606450.41445  21936005.0724   21936002.9244
     -1412.3124
  15969580.39547  12431879.23043  23544747.2054   23544746.8074
     -3477.2294
  -2359258.61747  -1833488.52742  24123720.5414   24123717.7644
      2050.5344
  -5437130.74649  -4223259.92246  21255239.2214   21255237.0924
      -410.8804
  -6415562.42649  -4994775.26646  21393104.3304   21393102.6154
       313.5214
 04  9 10 16 16 30.0020000  0  6G20G11G14G23G25G 1
  -7312062.66848  -5692998.73844  22857754.6354   22857752.5964
      1937.7084
   -758888.71549   -589836.42246  21940062.4324   21940060.0534
     -1421.4204
  16021758.33247  12472537.32443  23554676.5884   23554676.0064
     -3478.5294
  -2389976.30947  -1857424.37142  24117874.8224   24117872.4004
      2047.8464
  -5430831.18049  -4218351.17646  21256438.3614   21256435.8774
      -419.9714
  -6420187.34449  -4998379.09046  21392224.3854   21392222.5644
       308.3284
 04  9 10 16 16 45.0020000  0  6G20G11G14G23G25G 1
  -7341091.78549  -5715618.82444  22852230.6894   22852228.6464
      1935.2744
   -737432.34449   -573117.18745  21944145.5104   21944143.4864
     -1430.4254
  16073954.32047  12513209.48843  23564609.2214   23564608.7794
     -3479.7334
  -2420654.94947  -1881329.80942  24112036.9944   24112033.8034
      2045.2434
  -5424396.59449  -4213337.19546  21257662.4634   21257660.4714
      -428.9724
  -6424735.75849  -5001923.30546  21391358.4634   21391357.2404
       303.2284
 04  9 10 16 17  0.0020000  0  6G20G11G14G23G25G 1
  -7370084.44148  -5738210.51244  22846713.4554   22846711.1074
      1932.8444
   -715841.25449   -556292.97345  21948254.1744   21948252.1544
     -1439.4064
  16126167.96147  12553895.39543  23574545.6824   23574544.8184
     -3480.9094
  -2451294.75447  -1905204.96542  24106206.1044   24106203.4324
      2042.6544
  -5417827.28549  -4208218.25846  21258912.3464   21258910.5104
      -437.9544
  -6429207.97749  -5005408.15246  21390507.6434   21390505.9204
       298.1484
 04  9 10 16 17 15.0020000  0  6G20G11G14G23G25G 1
  -7399040.71948  -5760773.84444  22841203.2054   22841200.8224
      1930.4184
   -694115.78149   -539364.04746  21952388.5414   21952386.1664
     -1448.3654
  16178398.86346  12594594.77043  23584484.5804   23584483.9984
     -3482.0604
  -2481895.90647  -1929049.99243  24100383.2294   24100380.6004
      2040.0774
  -5411123.57849  -4202994.57847  21260188.0964   21260186.1974
      -446.9144
  -6433604.34049  -5008833.87946  21389670.8384   21389669.3224
       293.0914
 04  9 10 16 17 30.0020000  0  6G20G11G14G23G25G 1
  -7427961.51248  -5783309.52344  22835699.4084   22835697.4394
      1928.0534
   -672257.22349   -522331.42246  21956548.0884   21956545.6704
     -1457.2374
  16230645.67646  12635306.51642  23594426.4084   23594426.4514
     -3483.1214
  -2512459.52747  -1952865.79743  24094567.1434   24094564.0684
      2037.5754
  -5404286.46549  -4197666.96947  21261488.9864   21261487.3114
      -455.8084
  -6437926.00449  -5012201.41446  21388848.7134   21388846.7914
       288.1114
 04  9 10 16 17 45.0020000  0  6G20G11G14G23G25G 1
  -7456843.76248  -5805815.16844  22830203.4394   22830201.3464
      1925.4834
   -650262.85249   -505192.96546  21960733.2834   21960731.3614
     -1466.2914
  16282911.17646  12676032.84043  23604372.3464   23604372.1584
     -3484.3674
  -2542982.75447  -1976650.09042  24088758.9864   24088755.3894
      2034.8824
  -5397313.19549  -4192233.24246  21262816.2134   21262814.5334
      -464.8854
  -6442170.23049  -5015508.60946  21388040.8544   21388039.6004
       282.9484
 04  9 10 16 18  0.0020000  0  6G20G11G14G23G25G 1
  -7485687.44548  -5828290.75844  22824714.7994   22824712.9084
      1922.9124
   -628132.77049   -487948.77046  21964944.4394   21964942.9324
     -1475.3394
  16335195.19946  12716773.61342  23614321.9084   23614321.1824
     -3485.6024
  -2573465.60947  -2000402.95342  24082957.6744   24082954.9394
      2032.1904
  -5390203.80549  -4186693.45346  21264169.1504   21264167.1974
      -473.9594
  -6446337.10249  -5018755.50846  21387247.9944   21387246.8424
       277.7914
 04  9 10 16 18 15.0020000  0  6G20G11G14G23G25G 1
  -7514493.00848  -5850736.63744  22819233.2294   22819230.7834
      1920.3714
   -605867.94549   -470599.59445  21969181.1664   21969179.1234
     -1484.3224
  16387496.98447  12757528.20743  23624275.2364   23624274.4824
     -3486.7864
  -2603908.55947  -2024124.70743  24077165.3694   24077162.0334
      2029.5304
  -5382959.20349  -4181048.31246  21265547.5884   21265545.6784
      -482.9734
  -6450427.34449  -5021942.71946  21386469.4714   21386468.3964
       272.6834
 04  9 10 16 18 30.0020000  0  6G20G11G14G23G25G 1
  -7543260.46949  -5873152.84444  22813758.9554   22813757.1274
      1917.8314
   -583468.66449   -453145.65646  21973444.5334   21973441.6704
     -1493.2854
  16439815.94546  12798296.19142  23634230.9084   23634230.1824
     -3487.9314
  -2634311.94547  -2047815.63343  24071379.2214   24071377.2324
      2026.8924
  -5375579.52049  -4175297.90246  21266951.3464   21266950.0644
      -491.9794
  -6454441.31249  -5025070.48046  21385705.7134   21385704.6894
       267.5984
 04  9 10 16 18 45.0020000  0  6G20G11G14G23G25G 1
  -7571991.03948  -5895540.30144  22808291.6504   22808289.7564
      1915.3714
   -560936.39149   -435588.06645  21977731.3694   21977729.0294
     -1502.1524
  16492150.74646  12839076.52342  23644190.0574   23644189.1234
     -3488.9874
  -2664677.10247  -2071476.77043  24065600.5804   24065598.6074
      2024.3444
  -5368066.12149  -4169443.30946  21268381.7134   21268379.6434
      -500.8934
  -6458380.40249  -5028139.89846  21384956.2834   21384955.2834
       262.6064
 04  9 10 16 19  0.0020000  0  6G20G11G14G23G25G 1
  -7600682.66449  -5917897.40244  22802832.0964   22802830.2094
      1912.7754
   -538269.53949   -417925.61745  21982044.9004   21982042.7094
     -1511.1234
  16544503.01247  12879870.45743  23654152.7214   23654151.7604
     -3490.1514
  -2695002.00447  -2095106.55142  24059830.3464   24059827.8694
      2021.6604
  -5360417.23049  -4163483.12547  21269837.4554   21269835.3574
      -509.9264
  -6462242.87949  -5031149.61346  21384220.9164   21384220.0214
       257.4984
 04  9 10 16 19 15.0020000  0  6G20G11G14G23G25G 1
  -7629335.95749  -5940224.63744  22797379.7214   22797377.7214
      1910.2204
   -515468.96149   -400158.96545  21986383.6194   21986381.7914
     -1520.0394
  16596871.75447  12920677.23843  23664117.6584   23664116.8734
     -3491.2494
  -2725287.55547  -2118705.63743  24054067.2834   24054064.6044
      2019.0374
  -5352633.73449  -4157418.07047  21271318.2604   21271316.5724
      -518.9004
  -6466029.62949  -5034100.32846  21383500.4944   21383499.0804
       252.4504
 04  9 10 16 19 30.0020000  0  6G20G11G14G23G25G 1
  -7657951.10948  -5962522.16844  22791934.0334   22791932.0184
      1907.6774
   -492535.31649   -382288.62145  21990748.2214   21990745.9044
     -1528.9104
  16649256.48446  12961496.46943  23674086.2054   23674085.4124
     -3492.3154
  -2755534.17247  -2142274.40643  24048311.4324   24048309.1504
      2016.4414
  -5344716.14149  -4151248.50446  21272825.1114   21272823.3614
      -527.8404
  -6469741.09849  -5036992.38346  21382794.4714   21382792.7834
       247.4314
 04  9 10 16 19 45.0020000  0  6G20G11G14G23G25G 1
  -7686526.69148  -5984788.84044  22786496.0334   22786494.9554
      1905.0394
   -469467.19949   -364313.48445  21995137.7294   21995135.3814
     -1537.8744
  16701658.39847  13002329.09843  23684057.8074   23684056.4364
     -3493.4614
  -2785740.46148  -2165811.75043  24042563.5414   24042560.7644
      2013.7534
  -5336663.14849  -4144973.45346  21274357.3384   21274355.4864
      -536.8664
  -6473375.99649  -5039824.76646  21382102.5184   21382101.3694
       242.3274
 04  9 10 16 20  0.0020000  0  6G20G11G14G23G25G 1
  -7715062.56648  -6007024.57444  22781066.1584   22781064.5144
      1902.3924
   -446264.93049   -346233.81245  21999552.9944   21999550.7714
     -1546.8184
  16754077.16447  13043174.84443  23694033.0254   23694032.1544
     -3494.5844
  -2815906.44147  -2189317.69943  24036822.8774   24036820.1464
      2011.0654
  -5328474.79349  -4138592.91047  21275915.6744   21275913.8224
      -545.8904
  -6476934.48849  -5042597.62146  21381425.5884   21381424.0454
       237.2334
 04  9 10 16 20 15.0020000  0  6G20G11G14G23G25G 1
  -7743559.68448  -6029230.10544  22775643.2604   22775641.5614
      1899.8084
   -422929.77349   -328050.60545  22003993.5574   22003991.1234
     -1555.6774
  16806511.64547  13084032.85242  23704011.0254   23704009.3894
     -3495.6324
  -2846033.11748  -2212793.01643  24031089.9864   24031087.1044
      2008.4454
  -5320152.42249  -4132107.94146  21277499.4084   21277497.1704
      -554.8254
  -6480417.76649  -5045311.86746  21380762.9474   21380761.3544
       232.2184
 04  9 10 16 20 30.0020000  0  6G20G11G14G23G25G 1
  -7772016.09848  -6051403.94144  22770228.3224   22770225.8034
      1897.0944
   -399460.25449   -309762.69145  22008459.8934   22008457.9124
     -1564.6354
  16858963.39547  13124904.31343  23713991.9554   23713989.8894
     -3496.7834
  -2876118.84447  -2236236.42643  24025364.5494   24025362.0534
      2005.7154
  -5311694.28949  -4125517.18746  21279108.5104   21279106.8304
      -563.8764
  -6483824.19949  -5047966.23446  21380114.6824   21380113.3774
       227.0964
 04  9 10 16 20 45.0020000  0  6G20G11G14G23G25G 1
  -7800432.03548  -6073546.22744  22764821.1824   22764819.1314
      1894.3964
   -375856.91049   -291370.50445  22012951.2524   22012949.3264
     -1573.5564
  16911431.75847  13165788.71542  23723976.3774   23723975.1044
     -3497.8914
  -2906163.85547  -2259648.11343  24019647.5964   24019644.8814
      2003.0014
  -5303100.83249  -4118820.98447  21280744.1974   21280741.8614
      -572.8974
  -6487154.23049  -5050561.06646  21379480.9004   21379479.3964
       222.0024
 04  9 10 16 21  0.0020000  0  6G20G11G14G23G25G 1
  -7828807.18048  -6095656.73044  22759421.5644   22759419.6664
      1891.6764
   -352119.64149   -272873.97345  22017468.5574   22017465.8814
     -1582.4854
  16963916.72347  13206686.05543  23733964.1744   23733963.0454
     -3498.9984
  -2936168.16447  -2283028.07843  24013938.0104   24013935.0614
      2000.2874
  -5294371.89849  -4112019.22346  21282405.0104   21282403.2874
      -581.9294
  -6490407.80149  -5053096.30546  21378861.8854   21378860.3734
       216.9054
 04  9 10 16 21 15.0020000  0  6G20G11G14G23G25G 1
  -7857141.62548  -6117735.50844  22754029.1274   22754027.5294
      1888.9634
   -328248.92249   -254273.43045  22022010.7994   22022008.2684
     -1591.3814
  17016417.86747  13247596.00843  23743954.5414   23743953.4634
     -3500.0764
  -2966131.96548  -2306376.48043  24008236.1974   24008232.8614
      1997.5874
  -5285507.87949  -4105112.19946  21284091.9554   21284089.8734
      -590.9354
  -6493585.27049  -5055572.26246  21378256.9474   21378255.5724
       211.8314
 04  9 10 16 21 30.0020000  0  6G20G11G14G23G25G 1
  -7885433.01648  -6139780.74244  22748645.7684   22748643.6274
      1886.0934
   -304242.45749   -235567.10945  22026578.9324   22026576.8114
     -1600.4314
  17068937.39547  13288520.25042  23753949.0724   23753947.9204
     -3501.3024
  -2996052.99648  -2329691.53143  24002542.3934   24002538.7714
      1994.7354
  -5276506.73449  -4098098.32046  21285805.1354   21285802.6624
      -600.0764
  -6496684.50849  -5057987.25046  21377667.0884   21377665.5334
       206.6164
 04  9 10 16 21 45.0020000  0  6G20G11G14G23G25G 1
  -7913684.61348  -6161794.96144  22743269.5334   22743268.1934
      1883.4404
   -280104.26249   -216758.14145  22031172.3144   22031169.8224
     -1609.2134
  17121471.55147  13329455.91442  23763945.7294   23763944.7524
     -3502.2774
  -3025934.71548  -2352975.99243  23996856.2134   23996852.2794
      1992.1154
  -5267371.91849  -4090980.27346  21287543.0644   21287541.3574
      -608.9884
  -6499709.15249  -5060344.10946  21377091.6894   21377090.3464
       201.6434
 04  9 10 16 22  0.0020000  0  6G20G11G14G23G25G 1
  -7941894.80949  -6183776.92644  22737901.1194   22737899.9634
      1880.6804
   -255833.03949   -197845.52345  22035790.7054   22035788.9864
     -1618.0824
  17174021.60547  13370403.97742  23773945.6044   23773944.6744
     -3503.3374
  -3055775.84848  -2376228.80543  23991177.3774   23991173.9084
      1989.4094
  -5258102.15649  -4083757.08646  21289307.1354   21289305.0494
      -617.9844
  -6502657.90249  -5062641.84046  21376530.8304   21376528.9434
       196.5834
 04  9 10 16 22 15.0020000  0  6G20G11G14G23G25G 1
  -7970064.12948  -6205727.03944  22732540.7364   22732539.4044
      1877.9554
   -231429.63749   -178829.88745  22040434.9004   22040432.6704
     -1626.8934
  17226586.77047  13411363.77742  23783948.2364   23783947.7404
     -3504.3444
  -3085576.83647  -2399450.34843  23985506.4324   23985503.5494
      1986.7334
  -5248698.18749  -4076429.31246  21291096.3304   21291094.6784
      -626.9314
  -6505531.38349  -5064880.91046  21375983.6354   21375982.3224
       191.5654
 04  9 10 16 22 30.0020000  0  6G20G11G14G23G25G 1
  -7998192.14549  -6227644.96144  22727188.2054   22727187.0804
      1875.2014
   -206893.68049   -159710.97745  22045103.5104   22045101.4794
     -1635.7304
  17279167.10547  13452335.48042  23793953.6894   23793952.6584
     -3505.3564
  -3115337.39148  -2422640.37143  23979843.1824   23979840.4044
      1984.0374
  -5239159.70349  -4068996.73447  21292912.1504   21292909.8854
      -635.8994
  -6508329.42649  -5067061.19546  21375451.4324   21375449.8264
       186.5364
 04  9 10 16 22 45.0020000  0  6G20G11G14G23G25G 1
  -8026278.43748  -6249530.38744  22721843.5964   22721842.1004
      1872.4204
   -182225.47349   -140489.01645  22049798.6044   22049795.7014
     -1644.5474
  17331762.70347  13493319.01642  23803962.8464   23803962.7014
     -3506.3734
  -3145057.41048  -2445798.80543  23974187.2134   23974184.9044
      1981.3354
  -5229486.87549  -4061459.45746  21294752.4164   21294750.7174
      -644.8554
  -6511052.00049  -5069182.67646  21374933.5414   21374931.7954
       181.5054
 04  9 10 16 23  0.0020000  0  6G20G11G14G23G25G 1
  -8054322.59048  -6271382.96544  22716506.9714   22716505.6894
      1869.6104
   -157424.79749   -121163.82445  22054517.6114   22054515.5064
     -1653.3784
  17384373.62947  13534314.49642  23813974.7524   23813973.9514
     -3507.3954
  -3174736.47748  -2468925.33643  23968539.3074   23968537.5064
      1978.6044
  -5219679.22749  -4053817.13747  21296618.8614   21296617.0374
      -653.8434
  -6513698.85949  -5071245.16446  21374429.4164   21374428.4514
       176.4574
 04  9 10 16 23 15.0020000  0  6G20G11G14G23G25G 1
  -8082324.64148  -6293202.72344  22711178.4324   22711176.6274
      1866.8034
   -132492.09049   -101735.75845  22059261.7914   22059260.1824
     -1662.1804
  17436999.45347  13575321.59442  23823988.9714   23823988.4284
     -3508.3884
  -3204374.84848  -2492020.13743  23962899.8074   23962897.0684
      1975.8914
  -5209737.16049  -4046070.07446  21298510.8304   21298508.6704
      -662.8044
  -6516270.34049  -5073248.91446  21373940.4634   21373939.0184
       171.4324
 04  9 10 16 23 30.0020000  0  6G20G11G14G23G25G 1
  -8110282.92648  -6314988.41444  22705858.1434   22705856.6194
      1863.8864
   -107426.12149    -82203.85545  22064031.4474   22064030.0884
     -1671.0654
  17489641.59847  13616341.42242  23834006.9394   23834005.5294
     -3509.4764
  -3233971.03947  -2515082.09043  23957267.7914   23957264.7294
      1973.0794
  -5199659.37549  -4038217.26246  21300428.5494   21300426.6194
      -671.8524
  -6518765.05149  -5075192.85547  21373465.7444   21373464.1354
       166.3144
 04  9 10 16 23 45.0020000  0  6G20G11G14G23G25G 1
  -8138198.75849  -6336741.00044  22700545.6974   22700544.4204
      1861.0554
    -82228.48849    -62569.35945  22068827.2604   22068824.8854
     -1679.8424
  17542298.40647  13657372.65642  23844026.9164   23844025.8774
     -3510.4544
  -3263526.51247  -2538112.30943  23951643.2294   23951640.3384
      1970.3654
  -5189447.30149  -4030259.79346  21302371.3774   21302369.9004
      -680.8054
  -6521184.53149  -5077078.16046  21373005.2604   21373003.6314
       161.2994
 04  9 10 16 24  0.0020000  0  6G20G11G14G23G25G 1
  -8166071.73048  -6358460.17644  22695241.5104   22695240.2714
      1858.1984
    -56898.91849    -42832.05945  22073647.1044   22073644.9204
     -1688.6384
  17594969.93847  13698415.38742  23854049.9864   23854049.0334
     -3511.4354
  -3293040.99647  -2561110.57443  23946026.9944   23946024.3224
      1967.6324
  -5179100.76249  -4022197.55146  21304340.8074   21304338.4284
      -689.7694
  -6523528.60249  -5078904.71546  21372559.0414   21372558.2054
       156.2714
 04  9 10 16 24 15.0020000  0  6G20G11G14G23G25G 1
  -8193901.46548  -6380145.68744  22689946.1664   22689944.6394
      1855.3164
    -31437.73449    -22992.19545  22078492.4164   22078489.8964
     -1697.4124
  17647656.06348  13739469.46542  23864075.8224   23864074.7014
     -3512.4084
  -3322514.38747  -2584076.84043  23940418.2914   23940415.4124
      1964.8934
  -5168619.77349  -4014030.54746  21306334.8384   21306333.0374
      -698.7334
  -6525797.27749  -5080672.50846  21372127.4864   21372126.1864
       151.2454
 04  9 10 16 24 30.0020000  0  6G20G11G14G23G25G 1
  -8221686.87948  -6401796.65644  22684658.7134   22684657.0184
      1852.3614
     -5844.16049     -3049.17645  22083362.5334   22083360.1074
     -1706.2384
  17700357.76648  13780535.68443  23874104.4324   23874104.5414
     -3513.4474
  -3351945.70747  -2607010.33243  23934817.9394   23934814.3964
      1962.0884
  -5158003.44549  -4005758.08646  21308355.0884   21308353.0064
      -707.7554
  -6527989.61749  -5082380.82046  21371710.0494   21371709.0884
       146.1564
 04  9 10 16 24 45.0020000  0  6G20G11G14G23G25G 1
  -8249429.59848  -6423414.34445  22679379.0024   22679377.5214
      1849.5154
     19879.85949     16995.48045  22088257.0804   22088255.3734
     -1714.9354
  17753072.93048  13821612.38342  23884136.1584   23884134.7214
     -3514.3444
  -3381336.80148  -2629912.45743  23929224.9554   23929222.0024
      1959.4064
  -5147253.84449  -3997381.77046  21310400.6044   21310398.4674
      -716.6404
  -6530107.57849  -5084031.17246  21371307.1824   21371305.7404
       141.1974
 04  9 10 16 25  0.0020000  0  6G20G11G14G23G25G 1
  -8277128.86348  -6444998.18044  22674108.2914   22674106.9434
      1846.6184
     45734.74649     37142.10945  22093177.6114   22093175.1894
     -1723.6594
  17805802.07047  13862699.99642  23894169.4164   23894169.0844
     -3515.2764
  -3410686.85947  -2652782.64843  23923640.2914   23923636.5614
      1956.6714
  -5136370.27049  -3988901.06646  21312471.6194   21312469.6584
      -725.5724
  -6532150.67649  -5085623.19946  21370918.1894   21370916.9594
       136.2074
 04  9 10 16 25 15.0020000  0  6G20G11G14G23G25G 1
  -8304782.59048  -6466546.52744  22668845.8144   22668844.2094
      1843.5824
     71722.24649     57392.08245  22098123.2684   22098121.0374
     -1732.5004
  17858546.99647  13903799.88742  23904206.4324   23904206.7834
     -3516.3284
  -3439994.15247  -2675619.47343  23918062.2604   23918059.8504
      1953.8204
  -5125351.01649  -3980314.62946  21314568.6974   21314566.6584
      -734.6174
  -6534117.07449  -5087155.44946  21370544.1584   21370542.9004
       131.0934
 04  9 10 16 25 30.0020000  0  6G20G11G14G23G25G 1
  -8332392.32049  -6488060.59444  22663591.6504   22663589.9984
      1840.6494
     97840.69949     77744.08645  22103093.2294   22103091.3614
     -1741.2304
  17911305.88747  13944910.67242  23914246.7054   23914246.5414
     -3517.2594
  -3469260.31648  -2698424.25443  23912493.6434   23912490.6894
      1951.0784
  -5114197.98049  -3971623.95346  21316691.2604   21316689.0184
      -743.5364
  -6536008.60549  -5088629.36746  21370184.1584   21370183.0144
       126.1024
 04  9 10 16 25 45.0020000  0  6G20G11G14G23G25G 1
  -8359957.10949  -6509539.63744  22658346.5494   22658345.0414
      1837.6534
    124090.30949     98198.29745  22108088.1824   22108086.0334
     -1749.9744
  17964079.20347  13986032.67242  23924288.7214   23924289.0574
     -3518.2214
  -3498484.68048  -2721196.48843  23906932.3694   23906929.4714
      1948.2914
  -5102910.45349  -3962828.48446  21318839.3544   21318836.9634
      -752.5024
  -6537824.65249  -5090044.46546  21369838.5334   21369837.0254
       121.0704
 04  9 10 16 26  0.0020000  0  6G20G11G14G23G25G 1
  -8387477.41449  -6530984.03144  22653109.5644   22653107.7294
      1834.6874
    150470.41849    118754.19545  22113108.2054   22113106.4474
     -1758.6744
  18016866.15647  14027165.32842  23934334.0574   23934333.6864
     -3519.1304
  -3527667.75047  -2743936.51643  23901379.1584   23901376.6314
      1945.5384
  -5091489.10549  -3953928.72746  21321012.4554   21321010.3654
      -761.4234
  -6539565.88749  -5091401.27746  21369507.2214   21369505.4714
       116.0824
 04  9 10 16 26 15.0020000  0  6G20G11G14G23G25G 1
  -8414951.35949  -6552392.29744  22647881.8854   22647879.3774
      1831.5964
    176982.52049    139412.94545  22118153.3224   22118151.3544
     -1767.4734
  18069668.24248  14068309.77042  23944382.2524   23944381.5494
     -3520.1394
  -3556807.75448  -2766643.01243  23895833.5494   23895831.0144
      1942.6674
  -5079932.34449  -3944923.45746  21323211.4794   21323209.7324
      -770.4514
  -6541230.68749  -5092698.52746  21369190.3694   21369188.6394
       110.9874
 04  9 10 16 26 30.0020000  0  6G20G11G14G23G25G 1
  -8442380.13749  -6573765.35944  22642661.8144   22642659.9714
      1828.5854
    203625.00049    160173.30145  22123222.8544   22123221.3614
     -1776.1654
  18122484.22347  14109465.02742  23954432.8694   23954432.3544
     -3521.0654
  -3585906.17648  -2789317.07443  23890297.1044   23890293.9674
      1939.8954
  -5068241.60549  -3935813.78946  21325436.3614   21325434.2754
      -779.3834
  -6542820.47749  -5093937.32046  21368887.7134   21368886.2524
       105.9864
 04  9 10 16 26 45.0020000  0  6G20G11G14G23G25G 1
  -8469762.98449  -6595102.63344  22637451.3464   22637449.3854
      1825.5234
    230398.17649    181035.49645  22128318.0804   22128315.9594
     -1784.8784
  18175314.34448  14150631.33242  23964485.6974   23964485.2754
     -3522.0084
  -3614962.48448  -2811958.35243  23884767.2914   23884764.9204
      1937.0874
  -5056416.44549  -3926599.36746  21327686.5254   21327684.5924
      -788.3444
  -6544334.83649  -5095117.34046  21368599.3854   21368598.3964
       100.9574
 04  9 10 16 27  0.0020000  0  6G20G11G14G23G25G 1
  -8497097.75848  -6616402.46144  22632249.1664   22632247.4634
      1822.3184
    257303.78149    202000.89145  22133437.8384   22133435.5184
     -1793.7074
  18228160.38747  14191810.02042  23974542.0494   23974541.5724
     -3523.0704
  -3643974.65648  -2834565.23043  23879247.0574   23879244.0534
      1934.1454
  -5044455.04349  -3917278.79746  21329962.5964   21329960.6864
      -797.4274
  -6545771.89549  -5096237.12546  21368325.6894   21368324.5804
        95.8044
 04  9 10 16 27 15.0020000  0  6G20G11G14G23G25G 1
  -8524386.71548  -6637666.58244  22627056.7054   22627054.5414
      1819.2644
    284339.28149    223067.49645  22138582.8694   22138580.5764
     -1802.3674
  18281019.67247  14232999.03142  23984601.0334   23984600.3614
     -3523.9524
  -3672945.18448  -2857139.65243  23873733.5964   23873730.6704
      1931.3684
  -5032359.97749  -3907854.07446  21332264.6044   21332261.9474
      -806.3384
  -6547134.27749  -5097298.71546  21368066.9554   21368065.0684
        90.8264
 04  9 10 16 27 30.0020000  0  6G20G11G14G23G25G 1
  -8551629.92248  -6658895.04344  22621872.6504   22621870.2174
      1816.2144
    311504.37149    244235.09445  22143752.3144   22143750.0614
     -1811.0064
  18333892.08647  14274198.28142  23994662.4794   23994661.6394
     -3524.8284
  -3701874.02748  -2879681.59443  23868229.0724   23868225.9434
      1928.5904
  -5020131.45749  -3898325.35546  21334591.5184   21334589.3614
      -815.2354
  -6548422.10949  -5098302.21946  21367821.9004   21367820.3734
        85.8554
 04  9 10 16 27 45.0020000  0  6G20G11G14G23G25G 1
  -8578825.48448  -6680086.38344  22616697.2994   22616695.1784
      1813.0374
    338800.32049    265504.64145  22148946.5964   22148944.2014
     -1819.7304
  18386778.96547  14315408.78142  24004726.2294   24004726.0804
     -3525.7924
  -3730759.66048  -2902189.85943  23862732.2524   23862729.4434
      1925.7094
  -5007768.05149  -3888691.53546  21336944.1584   21336942.0064
      -824.2274
  -6549633.93749  -5099246.50846  21367591.5724   21367589.6664
        80.7894
 04  9 10 16 28  0.0020000  0  6G20G11G14G23G25G 1
  -8605974.82048  -6701241.70744  22611531.0574   22611528.3114
      1809.9564
    366225.26649    286874.73445  22154165.7214   22154163.3384
     -1828.3304
  18439678.60247  14356629.23842  24014793.3694   24014792.6074
     -3526.6424
  -3759603.58248  -2924665.63743  23857243.2054   23857240.3304
      1922.9284
  -4995271.37149  -3878953.86346  21339321.9164   21339320.1824
      -833.1124
  -6550771.41449  -5100132.85946  21367374.7834   21367373.2054
        75.8324
 04  9 10 16 28 15.0020000  0  6G20G11G14G23G25G 1
  -8633077.72749  -6722360.85244  22606373.6894   22606371.3114
      1806.8604
    393779.04349    308345.18845  22159408.6274   22159406.3114
     -1836.9184
  18492590.83248  14397859.51242  24024862.1584   24024861.2134
     -3527.4824
  -3788405.90248  -2947109.00043  23851762.2754   23851760.0254
      1920.1554
  -4982641.50049  -3869112.41046  21341725.3224   21341723.6434
      -841.9914
  -6551834.73049  -5100961.41846  21367172.3934   21367170.6004
        70.8884
 04  9 10 16 28 30.0020000  0  6G20G11G14G23G25G 1
  -8660133.59849  -6743443.34044  22601225.0254   22601222.1354
      1803.7254
    421462.06349    329916.36345  22164676.6044   22164674.3964
     -1845.5354
  18545516.03948  14439099.89142  24034934.1274   24034932.9324
     -3528.3474
  -3817166.05948  -2969519.48843  23846289.6664   23846286.6624
      1917.3444
  -4969878.23049  -3859167.00446  21344154.1354   21344152.2524
      -850.8854
  -6552823.44949  -5101731.85246  21366984.1504   21366983.0884
        65.9154
 04  9 10 16 28 45.0020000  0  6G20G11G14G23G25G 1
  -8687143.10949  -6764489.70344  22596085.2754   22596082.7954
      1800.6344
    449273.35248    351587.48445  22169969.2134   22169966.4474
     -1854.0864
  18598453.02047  14480349.44542  24045006.9634   24045006.1624
     -3529.1324
  -3845884.90248  -2991897.79743  23840824.7444   23840821.7834
      1914.5904
  -4956982.40649  -3849118.30146  21346608.0024   21346606.5414
      -859.7224
  -6553738.47749  -5102444.85946  21366810.5024   21366808.4324
        61.0024
 04  9 10 16 29  0.0020000  0  6G20G11G14G23G25G 1
  -8714106.01249  -6785499.75044  22590954.3694   22590951.8934
      1797.5274
    477212.60549    373358.32045  22175285.5414   22175283.2014
     -1862.6174
  18651401.71547  14521608.14542  24055082.3694   24055082.3264
     -3529.9134
  -3874562.44948  -3014243.91443  23835366.8074   23835364.8964
      1911.8364
  -4943954.13749  -3838966.40247  21349087.5724   21349085.7874
      -868.5514
  -6554579.89149  -5103100.50446  21366650.2214   21366648.7014
        56.0944
 04  9 10 16 29 15.0020000  0  6G20G11G14G23G25G 1
  -8741023.85249  -6806474.68444  22585831.5804   22585829.5104
      1794.5234
    505277.75049    395227.24645  22180625.7994   22180624.0494
     -1871.0104
  18704360.30947  14562874.53542  24065160.4794   24065159.8894
     -3530.5734
  -3903200.41847  -3036559.19943  23829917.2914   23829915.1234
      1909.1984
  -4930795.35249  -3828712.81247  21351591.4554   21351589.5144
      -877.2524
  -6555349.60949  -5103700.28546  21366503.2754   21366502.1234
        51.3154
 04  9 10 16 29 30.0020000  0  6G20G11G14G23G25G 1
  -8767892.67649  -6827411.42244  22580718.9474   22580716.6704
      1791.2554
    533472.43048    417197.09445  22185991.1744   22185989.4084
     -1879.6454
  18757332.54747  14604151.57842  24075240.6194   24075239.7174
     -3531.4834
  -3931795.02047  -3058840.67643  23824475.9474   23824473.8114
      1906.3074
  -4917502.39149  -3818354.65646  21354121.6274   21354119.2364
      -886.1974
  -6556043.80149  -5104241.21147  21366371.6044   21366369.9944
        46.2794
 04  9 10 16 29 45.0020000  0  6G20G11G14G23G25G 1
  -8794713.43049  -6848310.69944  22575615.2134   22575613.1864
      1788.0504
    561795.37949    439266.90245  22191380.9394   22191379.0414
     -1888.1974
  18810317.00447  14645438.12942  24085324.1114   24085322.6624
     -3532.2974
  -3960347.31248  -3081089.19143  23819042.4554   23819039.8774
      1903.4864
  -4904076.41849  -3807892.86746  21356675.9474   21356674.2524
      -895.0654
  -6556663.77749  -5104724.30947  21366253.6744   21366252.4864
        41.3324
 04  9 10 16 30  0.0020000  0  6G20G11G14G23G25G 1
  -8821486.35549  -6869172.70744  22570520.4944   22570518.3224
      1784.8624
    590245.96548    461436.16845  22196794.9554   22196792.7754
     -1896.7064
  18863313.27348  14686733.90642  24095408.3854   24095407.4434
     -3533.0854
  -3988857.66447  -3103305.05143  23813617.2834   23813614.6114
      1900.6904
  -4890518.00848  -3797327.86346  21359255.9864   21359254.0684
      -903.8944
  -6557210.02048  -5105149.96146  21366149.6894   21366148.1234
        36.4164
 04  9 10 16 30 15.0020000  0  6G20G11G14G23G25G 1
  -8848210.01249  -6889996.33244  22565435.1664   22565433.1704
      1781.5774
    618825.11748    483705.61745  22202233.5724   22202231.1504
     -1905.2774
  18916322.30947  14728039.60242  24105495.6744   24105495.5644
     -3533.9364
  -4017324.97748  -3125487.35243  23808200.2834   23808197.3074
      1897.8214
  -4876826.07448  -3786658.82846  21361861.3544   21361859.2684
      -912.7964
  -6557681.40248  -5105517.27046  21366060.0884   21366058.6664
        31.4264
 04  9 10 16 30 30.0020000  0  6G20G11G14G23G25G 1
  -8874886.34449  -6910783.08245  22560358.8854   22560356.7444
      1778.4224
    647530.60948    506073.51245  22207695.9084   22207693.7874
     -1913.6994
  18969342.09847  14769353.67642  24115585.0104   24115585.5494
     -3534.6534
  -4045751.19948  -3147637.62943  23802790.9864   23802787.9284
      1895.0824
  -4863002.72348  -3775887.39146  21364491.6114   21364489.7134
      -921.5574
  -6558080.04348  -5105827.89146  21365984.2834   21365982.8074
        26.5764
 04  9 10 16 30 45.0020000  0  6G20G11G14G23G25G 1
  -8901513.70749  -6931531.67245  22555291.9634   22555289.7714
      1775.1584
    676363.60948    528540.77345  22213182.7994   22213180.6974
     -1922.2004
  19022373.70348  14810676.97742  24125677.1044   24125677.1114
     -3535.4404
  -4074134.96547  -3169754.84043  23797389.2754   23797386.6274
      1892.2514
  -4849046.62149  -3765012.50446  21367147.6114   21367145.3264
      -930.4074
  -6558404.68048  -5106080.85546  21365922.2054   21365920.7134
        21.6424
 04  9 10 16 31  0.0020000  0  6G20G11G14G23G25G 1
  -8928092.08649  -6952242.09445  22550234.3224   22550231.7404
      1771.8924
    705323.77748    551107.11745  22218693.6114   22218691.9714
     -1930.6784
  19075416.85948  14852009.26642  24135770.5024   24135771.1354
     -3536.2104
  -4102476.49647  -3191839.11743  23791995.7134   23791993.0924
      1889.4354
  -4834958.10248  -3754034.43446  21369828.3224   21369826.3814
      -939.2354
  -6558655.58248  -5106276.37546  21365874.6354   21365873.3184
        16.7274
 04  9 10 16 31 15.0020000  0  6G20G11G14G23G25G 1
  -8954622.61349  -6972915.22344  22545185.4004   22545183.3814
      1768.7024
    734409.54748    573771.34445  22224228.4944   22224226.6194
     -1939.0514
  19128470.01248  14893349.34442  24145866.4244   24145865.8384
     -3536.8774
  -4130776.93047  -3213891.38743  23786610.9164   23786607.4434
      1886.6964
  -4820738.64548  -3742954.34046  21372534.3934   21372532.5294
      -947.9644
  -6558834.09848  -5106415.46946  21365840.7834   21365839.0374
        11.9014
 04  9 10 16 31 30.0020000  0  6G20G11G14G23G25G 1
  -8981103.37549  -6993549.57444  22540146.8074   22540143.8224
      1765.3844
    763622.28948    596534.49245  22229787.3464   22229786.1314
     -1947.5164
  19181534.69948  14934698.42642  24155964.6434   24155963.8964
     -3537.6464
  -4159034.73447  -3235910.44543  23781233.6194   23781229.9514
      1883.8544
  -4806386.85248  -3731771.13347  21375265.4084   21375263.5574
      -956.7864
  -6558938.79348  -5106497.05546  21365820.7214   21365819.6624
         6.9804
 04  9 10 16 31 45.0020000  0  6G20G11G14G23G25G 1
  -9007535.81249  -7014146.27744  22535116.5804   22535113.5494
      1762.1624
    792960.31348    619395.27345  22235370.3934   22235368.0144
     -1955.8684
  19234609.35548  14976055.27742  24166064.3544   24166063.2684
     -3538.3104
  -4187251.31647  -3257897.38343  23775863.7914   23775860.5644
      1881.1054
  -4791904.30948  -3720486.03147  21378021.6114   21378019.7794
      -965.5034
  -6558971.23848  -5106522.34446  21365814.6664   21365813.3114
         2.1634
 04  9 10 16 32  0.0020000  0  6G20G11G14G23G25G 1
  -9033916.59449  -7034702.72344  22530096.1744   22530093.5574
      1758.7194
    822426.46948    642355.90245  22240977.7684   22240975.5254
     -1964.4104
  19287696.91047  15017422.15242  24176165.5184   24176165.8934
     -3539.1704
  -4215423.69547  -3279849.86743  23770502.9944   23770499.4244
      1878.1594
  -4777287.96948  -3709096.68047  21380803.3464   21380801.2174
      -974.4234
  -6558928.50848  -5106489.04746  21365822.4794   21365821.3934
        -2.8494
 04  9 10 16 32 15.0020000  0  6G20G11G14G23G25G 1
  -9060247.14849  -7055220.02345  22525085.7054   22525083.2644
      1755.3704
    852018.94548    665414.96545  22246608.9944   22246606.7324
     -1972.8324
  19340795.58247  15058797.71542  24186269.8854   24186269.8464
     -3539.9114
  -4243553.43747  -3301769.11343  23765149.8304   23765146.2444
      1875.3164
  -4762539.49248  -3697604.35547  21383609.2524   21383607.8344
      -983.2324
  -6558812.25448  -5106398.45747  21365844.3694   21365843.4634
        -7.7504
 04  9 10 16 32 30.0020000  0  6G20G11G14G23G25G 1
  -9086527.35549  -7075698.10545  22520084.7754   22520082.0924
      1752.0144
    881737.63348    688572.36345  22252264.1044   22252261.9984
     -1981.2464
  19393905.19547  15100181.80942  24196376.6824   24196376.3964
     -3540.6414
  -4271640.65247  -3323655.24643  23759805.7294   23759801.6234
      1872.4814
  -4747659.30549  -3686009.39846  21386440.9944   21386439.0494
      -992.0124
  -6558622.58248  -5106250.66846  21365880.6584   21365879.7364
       -12.6454
 04  9 10 16 32 45.0020000  0  6G20G11G14G23G25G 1
  -9112757.27349  -7096137.00045  22515093.7444   22515091.0684
      1748.6614
    911581.73048    711827.48845  22257943.6044   22257941.6194
     -1989.6074
  19447025.32847  15141574.08242  24206485.0574   24206484.4594
     -3541.3424
  -4299685.49648  -3345508.33243  23754468.0884   23754464.7954
      1869.6564
  -4732647.62949  -3674311.99246  21389297.5724   21389295.9124
     -1000.7784
  -6558359.85948  -5106045.94946  21365930.4554   21365929.6004
       -17.5154
 04  9 10 16 33  0.0020000  0  6G20G11G14G23G25G 1
  -9138938.45349  -7116537.91045  22510111.5184   22510109.4674
      1745.4124
    941549.47748    735178.94945  22263646.0414   22263643.5844
     -1997.8504
  19500154.16047  15182973.13342  24216594.9634   24216594.9554
     -3541.9224
  -4327689.77048  -3367329.84443  23749139.4944   23749135.9824
      1866.9524
  -4717506.41849  -3662513.64846  21392179.1194   21392177.3224
     -1009.4144
  -6558025.87949  -5105785.70346  21365994.4324   21365993.0024
       -22.2654
 04  9 10 16 33 15.0020000  0  6G20G11G14G23G25G 1
  -9165067.53949  -7136898.24245  22505139.1744   22505137.4124
      1741.9394
    971643.61348    758628.91045  22269372.7294   22269370.7994
     -2006.2764
  19553294.60947  15224381.25042  24226707.4634   24226707.3384
     -3542.6974
  -4355650.26248  -3389117.22343  23743819.3464   23743815.3544
      1864.0334
  -4702232.71949  -3650612.07046  21395085.3694   21395083.4514
     -1018.2474
  -6557617.68749  -5105467.63747  21366071.9794   21366070.8774
       -27.2134
 04  9 10 16 33 30.0020000  0  6G20G11G14G23G25G 1
  -9191146.37149  -7157219.39845  22500176.5964   22500174.5724
      1738.5894
   1001862.04748    782175.71945  22275123.0024   22275121.3574
     -2014.5624
  19606444.52347  15265796.72342  24236821.9324   24236821.4824
     -3543.3284
  -4383569.03148  -3410872.10243  23738506.3774   23738502.8184
      1861.2514
  -4686828.64549  -3638608.90646  21398016.8854   21398014.8544
     -1026.9384
  -6557137.37949  -5105093.36746  21366163.1974   21366161.9164
       -32.0214
 04  9 10 16 33 45.0020000  0  6G20G11G14G23G25G 1
  -9217174.05549  -7177500.69545  22495223.6974   22495221.6664
      1735.1794
   1032205.19148    805819.71145  22280897.2444   22280895.4364
     -2022.8764
  19659604.46947  15307219.99642  24246938.3074   24246938.2214
     -3543.9964
  -4411445.26248  -3432593.83243  23733201.6274   23733198.3144
      1858.4154
  -4671293.48449  -3626503.58646  21400972.8544   21400970.9044
     -1035.6774
  -6556584.32049  -5104662.41847  21366268.8384   21366267.6074
       -36.8714
 04  9 10 16 34  0.0020000  0  6G20G11G14G23G25G 1
  -9243151.34049  -7197742.73045  22490280.4324   22490277.7604
      1731.8194
   1062671.97749    829560.05145  22286695.2834   22286693.3894
     -2031.1194
  19712773.34847  15348650.27042  24257055.4554   24257055.6394
     -3544.5924
  -4439279.98047  -3454283.20343  23727904.4164   23727901.2484
      1855.6484
  -4655628.33649  -3614296.98046  21403954.0334   21403951.7564
     -1044.3434
  -6555959.55149  -5104175.58246  21366387.2834   21366386.6314
       -41.6514
 04  9 10 16 34 15.0020000  0  6G20G11G14G23G25G 1
  -9269075.05949  -7217943.02744  22485347.1354   22485345.0104
      1728.2484
   1093264.97348    853398.72745  22292516.3384   22292514.7684
     -2039.5334
  19765954.12547  15390089.78542  24267176.2214   24267175.8504
     -3545.3854
  -4467070.17647  -3475937.88343  23722616.4944   23722613.1744
      1852.6804
  -4639830.62149  -3601987.08246  21406960.2914   21406958.4164
     -1053.1814
  -6555260.26649  -5103630.68746  21366520.2914   21366519.3734
       -46.6194
 04  9 10 16 34 30.0020000  0  6G20G11G14G23G25G 1
  -9294947.28549  -7238103.19145  22480423.8614   22480421.9284
      1724.8154
   1123981.92649    877334.00045  22298361.8934   22298359.7954
     -2047.7974
  19819144.39547  15431536.73042  24277297.7524   24277296.7794
     -3546.0184
  -4494817.99648  -3497559.55543  23717336.0254   23717332.9044
      1849.8554
  -4623902.50449  -3589575.56246  21409991.5104   21409989.4364
     -1061.8744
  -6554488.66049  -5103029.44146  21366667.4634   21366666.1864
       -51.4404
 04  9 10 16 34 45.0020000  0  6G20G11G14G23G25G 1
  -9320766.51649  -7258222.07044  22475510.7994   22475507.8034
      1721.2824
   1154823.71549    901366.53945  22304230.9474   22304228.5294
     -2056.1194
  19872345.23847  15472991.88742  24287421.5184   24287421.0024
     -3546.7234
  -4522522.29347  -3519147.29343  23712063.7444   23712061.6434
      1846.9534
  -4607842.92249  -3577061.59446  21413047.2214   21413045.1544
     -1070.6394
  -6553643.62149  -5102370.96546  21366828.4714   21366827.3964
       -56.3364
 04  9 10 16 35  0.0020000  0  6G20G11G14G23G25G 1
  -9346534.09049  -7278300.68744  22470607.0414   22470604.6624
      1717.8384
   1185788.53949    925494.97345  22310123.4324   22310121.2604
     -2064.3224
  19925554.93447  15514453.96542  24297547.1744   24297546.1704
     -3547.3134
  -4550184.48447  -3540702.23843  23706800.1274   23706797.2714
      1844.1464
  -4591653.55548  -3564446.51246  21416128.2214   21416125.7994
     -1079.2914
  -6552726.80949  -5101656.58246  21367002.8464   21367001.3574
       -61.1214
 04  9 10 16 35 15.0020000  0  6G20G11G14G23G25G 1
  -9372249.00849  -7298338.27745  22465713.7604   22465710.9594
      1714.3284
   1216877.16448    949719.85545  22316038.8934   22316036.8614
     -2072.5754
  19978774.27047  15555923.54742  24307674.3774   24307673.4434
     -3547.9564
  -4577803.77347  -3562223.76643  23701544.5494   23701540.9244
      1841.2864
  -4575333.62549  -3551729.68046  21419233.2994   21419231.7094
     -1087.9954
  -6551737.49649  -5100885.68046  21367190.6584   21367189.7914
       -65.9544
 04  9 10 16 35 30.0020000  0  6G20G11G14G23G25G 1
  -9397909.38349  -7318333.37144  22460830.5574   22460827.7794
      1710.6924
   1248090.80548    974042.15645  22321978.8774   22321977.1234
     -2080.9094
  20032004.69147  15597401.74242  24317803.2994   24317803.1194
     -3548.6954
  -4605378.57847  -3583710.59843  23696296.6744   23696294.2174
      1838.3204
  -4558881.65649  -3538909.97346  21422364.3774   21422362.2014
     -1096.7984
  -6550674.12549  -5100057.08646  21367393.1044   21367391.9824
       -70.8914
 04  9 10 16 35 45.0020000  0  6G20G11G14G23G25G 1
  -9423516.16049  -7338286.70345  22455957.8934   22455955.4284
      1707.1184
   1279428.03148    998460.76645  22327942.2604   22327940.2954
     -2089.1484
  20085245.04347  15638887.70742  24327934.1114   24327934.7644
     -3549.3574
  -4632909.80947  -3605163.49243  23691057.9944   23691055.4004
      1835.4154
  -4542298.90648  -3525988.35246  21425520.1274   21425518.1154
     -1105.5174
  -6549537.86748  -5099171.69146  21367609.4244   21367607.8894
       -75.7514
 04  9 10 16 36  0.0020000  0  6G20G11G14G23G25G 1
  -9449068.77349  -7358197.81645  22451095.2834   22451093.0254
      1703.5084
   1310889.22748   1022975.96145  22333929.1584   22333926.5924
     -2097.4134
  20138495.57047  15680381.57042  24338068.2994   24338067.8774
     -3550.0354
  -4660397.19147  -3626582.21543  23685826.9864   23685824.5534
      1832.4924
  -4525585.14848  -3512964.66046  21428700.6664   21428698.5574
     -1114.2514
  -6548328.40648  -5098229.25446  21367839.3464   21367837.7174
       -80.6314
 04  9 10 16 36 15.0020000  0  6G20G11G14G23G25G 1
  -9474565.23049  -7378065.18044  22446243.6504   22446241.3544
      1699.7644
   1342475.91848   1047588.96145  22339939.9634   22339937.0804
     -2105.7794
  20191757.83648  15721884.61742  24348204.1194   24348203.4164
     -3550.8184
  -4687839.06647  -3647965.48843  23680605.6744   23680602.1824
      1829.4584
  -4508738.84848  -3499837.67247  21431906.5104   21431904.1074
     -1123.0874
  -6547044.23848  -5097228.60546  21368083.9794   21368082.0724
       -85.6114
 04  9 10 16 36 30.0020000  0  6G20G11G14G23G25G 1
  -9500005.90249  -7397889.06244  22441402.1584   22441400.3224
      1696.0454
   1374187.25448   1072299.07845  22345974.0724   22345972.1544
     -2114.0894
  20245031.15647  15763396.25842  24358341.6744   24358340.9674
     -3551.5554
  -4715235.80947  -3669313.59443  23675391.5804   23675388.5024
      1826.4494
  -4491760.66848  -3486607.93446  21435137.1584   21435135.0294
     -1131.8794
  -6545685.91448  -5096170.16846  21368342.2054   21368341.5144
       -90.5554
 04  9 10 16 36 45.0020000  0  6G20G11G14G23G25G 1
  -9525392.48449  -7417670.81245  22436571.1434   22436569.4944
      1692.4394
   1406020.97348   1097104.55945  22352032.1584   22352030.0574
     -2122.2484
  20298313.48847  15804914.92242  24368480.6194   24368480.4714
     -3552.1554
  -4742589.45347  -3690628.09443  23670186.6504   23670183.8384
      1823.5764
  -4474652.82449  -3473277.14146  21438392.6974   21438390.8614
     -1140.5234
  -6544255.48049  -5095055.54747  21368614.6114   21368613.5644
       -95.3624
 04  9 10 16 37  0.0020000  0  6G20G11G14G23G25G 1
  -9550724.12949  -7437409.75045  22431750.7914   22431749.1504
      1688.7764
   1437977.50448   1122005.73045  22358113.2834   22358111.0454
     -2130.4354
  20351605.41047  15846441.05942  24378621.4864   24378621.4324
     -3552.7954
  -4769899.23046  -3711908.44943  23664990.5494   23664986.5804
      1820.6524
  -4457414.55548  -3459844.72346  21441672.9554   21441671.3144
     -1149.2184
  -6542752.29348  -5093884.22746  21368900.8464   21368899.7524
      -100.2124
 04  9 10 16 37 15.0020000  0  6G20G11G14G23G25G 1
  -9576000.34049  -7457105.49245  22426940.8304   22426939.2444
      1685.0814
   1470056.99648   1147002.72745  22364217.9864   22364215.6504
     -2138.6334
  20404907.10947  15887974.83242  24388764.4084   24388764.6114
     -3553.4474
  -4797164.95347  -3733154.45743  23659801.4394   23659798.4284
      1817.7154
  -4440045.77049  -3446310.60546  21444977.9794   21444976.0684
     -1157.9194
  -6541176.20348  -5092656.11346  21369200.5964   21369199.3544
      -105.0734
 04  9 10 16 37 30.0020000  0  6G20G11G14G23G25G 1
  -9601220.40249  -7476757.48045  22422141.7914   22422140.5064
      1681.3384
   1502259.69948   1172095.73045  22370345.9004   22370344.0684
     -2146.8474
  20458218.78547  15929516.38742  24398909.3614   24398910.4594
     -3554.1124
  -4824386.15247  -3754365.75844  23654621.4394   23654618.3614
      1814.7474
  -4422546.05549  -3432674.47746  21448308.1274   21448306.4364
     -1166.6484
  -6539526.85248  -5091370.90247  21369514.5024   21369513.4394
      -109.9574
 04  9 10 16 37 45.0030000  0  6G20G11G14G23G25G 1
  -9626387.09449  -7496367.87545  22417352.3974   22417351.2144
      1677.7794
   1534586.20748   1197285.20345  22376497.5464   22376495.4954
     -2155.1014
  20511542.73447  15971067.43842  24409056.5464   24409057.6594
     -3554.9304
  -4851565.68747  -3775544.60244  23649449.0304   23649445.8194
      1811.9694
  -4404915.73848  -3418936.56646  21451662.9054   21451661.2224
     -1175.3544
  -6537805.49248  -5090029.59046  21369842.1554   21369840.8944
      -114.7574
 04  9 10 16 38  0.0030000  0  6G20G11G14G23G25G 1
  -9651497.75048  -7515934.60545  22412574.3904   22412572.5114
      1674.0444
   1567031.05548   1222566.89145  22382671.5774   22382669.3434
     -2162.9904
  20564870.82447  16012621.74242  24419204.6944   24419205.8274
     -3555.2064
  -4878700.97747  -3796688.99243  23644286.1244   23644281.9254
      1809.0194
  -4387158.31649  -3405099.61347  21455042.2024   21455040.4404
     -1183.8284
  -6536013.34048  -5088633.10246  21370183.1874   21370181.9294
      -119.4774
 04  9 10 16 38 15.0030000  0  6G20G11G14G23G25G 1
  -9676552.31649  -7535457.64145  22407806.6164   22407804.9134
      1670.3044
   1599597.75448   1247943.51645  22388868.7724   22388866.7494
     -2171.1134
  20618208.06347  16054183.18842  24429354.0074   24429355.2964
     -3555.8164
  -4905792.28547  -3817799.09443  23639130.2884   23639126.8584
      1806.0874
  -4369271.05948  -3391161.50447  21458445.9604   21458444.2184
     -1192.4844
  -6534148.75849  -5087180.17647  21370537.7884   21370537.2184
      -124.3054
 04  9 10 16 38 30.0030000  0  6G20G11G14G23G25G 1
  -9701550.52049  -7554936.74245  22403049.4374   22403048.1514
      1666.5474
   1632286.10548   1273414.95345  22395089.3354   22395087.1284
     -2179.2234
  20671554.45747  16095751.77342  24439506.2264   24439506.3044
     -3556.4264
  -4932839.41447  -3838874.76644  23633983.3194   23633980.2694
      1803.1424
  -4351254.09048  -3377122.31247  21461874.6874   21461872.7294
     -1201.1314
  -6532211.78949  -5085670.85247  21370906.6474   21370905.7694
      -129.1314
 04  9 10 16 38 45.0030000  0  6G20G11G14G23G25G 1
  -9726492.08249  -7574371.72745  22398303.3904   22398301.9294
      1662.7714
   1665095.73048   1298980.88345  22401332.9444   22401330.5934
     -2187.3084
  20724909.62147  16137327.18442  24449659.6014   24449659.7614
     -3557.0114
  -4959842.40647  -3859916.03144  23628844.7804   23628842.0304
      1800.1994
  -4333107.60549  -3362982.20346  21465327.9524   21465325.7454
     -1209.7664
  -6530202.59848  -5084105.25046  21371289.0074   21371288.0074
      -133.9464
 04  9 10 16 39  0.0030000  0  6G20G11G14G23G25G 1
  -9751378.50449  -7593763.73045  22393567.8744   22393565.6984
      1659.0954
   1698024.90248   1324639.95745  22407599.0934   22407596.9644
     -2195.2784
  20778272.02747  16178908.23842  24459813.1014   24459814.3704
     -3557.4944
  -4986802.89847  -3880924.21144  23623714.7964   23623711.1984
      1797.3664
  -4314833.50849  -3348742.64546  21468805.3974   21468803.6124
     -1218.2734
  -6528122.85248  -5082484.66446  21371684.6014   21371683.4954
      -138.6504
 04  9 10 16 39 15.0030000  0  6G20G11G14G23G25G 1
  -9776208.62949  -7613111.87145  22388842.3584   22388840.5544
      1655.3424
   1731074.23448   1350392.67645  22413888.0694   22413886.0114
     -2203.2894
  20831642.30547  16220495.39842  24469970.2574   24469970.9214
     -3558.0184
  -5013720.01647  -3901898.58644  23618592.3514   23618589.2924
      1794.4744
  -4296431.02749  -3334403.05147  21472307.0154   21472305.0074
     -1226.8324
  -6525971.71549  -5080808.45346  21372094.1084   21372093.0154
      -143.4094
 04  9 10 16 39 30.0030000  0  6G20G11G14G23G25G 1
  -9800980.47749  -7632414.60245  22384128.6014   22384126.7144
      1651.4574
   1764245.19148   1376240.15245  22420200.0154   22420198.2694
     -2211.3974
  20885022.18847  16262090.07042  24480127.8434   24480128.2374
     -3558.6594
  -5040591.96147  -3922837.74644  23613478.4294   23613476.0384
      1791.4634
  -4277898.52349  -3319962.14847  21475833.8664   21475831.7374
     -1235.5004
  -6523747.59849  -5079075.37946  21372516.9604   21372515.6404
      -148.2744
 04  9 10 16 39 45.0030000  0  6G20G11G14G23G25G 1
  -9825695.53549  -7651673.08245  22379425.3664   22379423.5654
      1647.6714
   1797536.03548   1402181.06345  22426535.0224   22426533.5934
     -2219.3904
  20938409.85247  16303690.82842  24490287.2804   24490287.2144
     -3559.1784
  -5067420.34447  -3943742.96544  23608373.1324   23608370.8474
      1788.5594
  -4259237.82449  -3305421.34846  21479384.6244   21479382.7224
     -1244.0474
  -6521452.16449  -5077286.73046  21372954.3904   21372952.7334
      -153.0294
 04  9 10 16 40  0.0030000  0  6G20G11G14G23G25G 1
  -9850352.10549  -7670885.98445  22374733.4134   22374731.4214
      1643.7714
   1830947.93848   1428216.28545  22432893.0544   22432891.2804
     -2227.4604
  20991806.83647  16345298.82442  24500448.3124   24500448.6674
     -3559.7994
  -5094203.60547  -3964613.02044  23603276.4684   23603273.7454
      1785.5514
  -4240447.42249  -3290779.47747  21482960.5694   21482958.6284
     -1252.6934
  -6519083.94549  -5075441.36746  21373404.7024   21373403.5624
      -157.8814
 04  9 10 16 40 15.0030000  0  6G20G11G14G23G25G 1
  -9874948.00049  -7690051.60945  22370053.0694   22370051.2064
      1639.7264
   1864482.64548   1454347.21945  22439274.6794   22439272.4524
     -2235.6474
  21045214.80147  16386915.39842  24510611.8194   24510611.9294
     -3560.5314
  -5120939.66447  -3985446.31644  23598188.6474   23598185.4174
      1782.4044
  -4221525.67649  -3276035.26247  21486561.0624   21486559.0074
     -1261.4504
  -6516641.12549  -5073537.86746  21373869.8974   21373868.4764
      -162.8554
 04  9 10 16 40 30.0030000  0  6G20G11G14G23G25G 1
  -9899485.62149  -7709171.81245  22365383.8124   22365381.8474
      1635.8414
   1898137.35248   1480571.65245  22445679.0774   22445677.2144
     -2243.6474
  21098631.11347  16428538.47342  24520776.4684   24520776.1324
     -3561.0874
  -5147631.27347  -4006244.96544  23593109.7334   23593106.0074
      1779.4414
  -4202475.19949  -3261190.74646  21490186.1244   21490184.3434
     -1270.0324
  -6514126.36749  -5071578.32446  21374348.3274   21374347.0224
      -167.6514
 04  9 10 16 40 45.0030000  0  6G20G11G14G23G25G 1
  -9923964.85249  -7728246.55145  22360725.1014   22360723.5814
      1631.9494
   1931911.34048   1506889.03545  22452106.0224   22452104.5774
     -2251.5994
  21152055.44947  16470167.81342  24530942.8904   24530942.7574
     -3561.6224
  -5174278.62947  -4027009.12943  23588038.8124   23588035.0694
      1776.4904
  -4183296.40648  -3246246.23446  21493835.9214   21493833.8904
     -1278.5864
  -6511540.09449  -5069563.04346  21374840.1404   21374839.2654
      -172.4184
 04  9 10 16 41  0.0030000  0  6G20G11G14G23G25G 1
  -9948386.59049  -7747276.46945  22356078.3124   22356076.4374
      1628.1164
   1965803.54348   1533298.52745  22458555.6474   22458553.9994
     -2259.4804
  21205486.73447  16511802.55142  24541110.1164   24541110.5344
     -3562.0864
  -5200882.73047  -4047739.58643  23582976.1164   23582972.6634
      1773.6074
  -4163990.43049  -3231202.61747  21497509.8274   21497508.1944
     -1287.0654
  -6508883.34449  -5067492.84446  21375345.8124   21375344.8474
      -177.1174
 04  9 10 16 41 15.0030000  0  6G20G11G14G23G25G 1
  -9972749.52749  -7766260.56245  22351441.9994   22351440.6554
      1624.1964
   1999814.78948   1559800.78945  22465027.5464   22465026.3314
     -2267.4164
  21258925.88347  16553443.40242  24551279.9054   24551279.2724
     -3562.6104
  -5227442.37947  -4068435.39143  23577922.0384   23577918.4254
      1770.6434
  -4144556.37549  -3216059.20347  21501207.7804   21501206.3514
     -1295.6044
  -6506155.09449  -5065366.93746  21375864.8044   21375863.6594
      -181.8834
 04  9 10 16 41 30.0030000  0  6G20G11G14G23G25G 1
  -9997052.90249  -7785198.24645  22346817.3824   22346815.9214
      1620.2254
   2033945.29748   1586395.97745  22471522.5854   22471520.9954
     -2275.3674
  21312373.27747  16595090.66842  24561449.9914   24561449.7334
     -3563.1604
  -5253957.14847  -4089096.25043  23572876.3824   23572873.0384
      1767.6514
  -4124993.89149  -3200815.71946  21504930.3974   21504928.9874
     -1304.1664
  -6503354.95749  -5063185.02046  21376397.7654   21376396.7614
      -186.6764
 04  9 10 16 41 45.0030000  0  6G20G11G14G23G25G 1
 -10021297.27748  -7804089.96945  22342203.5384   22342202.1474
      1616.2924
   2068194.03148   1613083.28145  22478039.4294   22478038.0464
     -2283.2494
  21365828.10947  16636743.76242  24571622.6014   24571621.5154
     -3563.6554
  -5280427.74247  -4109722.66044  23567838.9134   23567836.4334
      1764.7064
  -4105303.93449  -3185472.89847  21508677.3664   21508675.8474
     -1312.6644
  -6500483.80949  -5060947.75846  21376944.1794   21376942.5934
      -191.4104
 04  9 10 16 42  0.0030000  0  6G20G11G14G23G25G 1
 -10045482.35548  -7822935.47745  22337601.7334   22337599.8154
      1612.3394
   2102560.91848   1639862.65245  22484579.8194   22484577.5424
     -2291.1264
  21419290.31347  16678402.59042  24581796.0934   24581795.7334
     -3564.1474
  -5306854.01247  -4130314.55944  23562810.5934   23562807.0384
      1761.7514
  -4085486.56649  -3170030.79347  21512448.6634   21512446.8044
     -1321.1584
  -6497541.57849  -5058655.11346  21377503.9214   21377503.0774
      -196.1494
 04  9 10 16 42 15.0030000  0  6G20G11G14G23G25G 1
 -10069606.32049  -7841733.37145  22333010.9374   22333009.2184
      1608.2644
   2137047.23448   1666735.10545  22491142.1244   22491140.3004
     -2299.0884
  21472761.46547  16720068.40242  24591970.8824   24591971.5934
     -3564.7434
  -5333234.30147  -4150870.62544  23557790.6874   23557786.3864
      1758.6864
  -4065540.39849  -3154488.33647  21516244.1554   21516242.4214
     -1329.7454
  -6494526.76249  -5056305.90646  21378077.4444   21378076.4214
      -200.9884
 04  9 10 16 42 30.0030000  0  6G20G11G14G23G25G 1
 -10093671.02348  -7860485.07845  22328431.4994   22328429.3084
      1604.3144
   2171650.73448   1693698.85245  22497726.9524   22497725.2534
     -2306.9004
  21526239.26647  16761739.37142  24602147.7574   24602148.0154
     -3565.1874
  -5359570.85247  -4171392.59844  23552778.8584   23552775.3624
      1755.7704
  -4045467.73049  -3138847.30146  21520063.8584   21520062.0304
     -1338.1784
  -6491441.61748  -5053901.89846  21378664.6244   21378663.5194
      -205.6764
 04  9 10 16 42 45.0030000  0  6G20G11G14G23G25G 1
 -10117676.31648  -7879190.51245  22323863.4604   22323861.4834
      1600.3534
   2206370.89848   1720753.50845  22504334.1404   22504332.3514
     -2314.6784
  21579723.55547  16803415.41442  24612325.5624   24612325.6364
     -3565.6194
  -5385863.64147  -4191880.47344  23547775.9054   23547772.5384
      1752.8534
  -4025268.70348  -3123107.80946  21523907.6084   21523905.8584
     -1346.6024
  -6488286.22349  -5051443.15246  21379265.1324   21379264.0654
      -210.3604
 04  9 10 16 43  0.0030000  0  6G20G11G14G23G25G 1
 -10141621.42648  -7897849.02345  22319307.1714   22319304.4874
      1596.3414
   2241208.19148   1747899.43845  22510963.4134   22510961.7264
     -2322.4864
  21633214.87947  16845096.90642  24622504.4994   24622504.4484
     -3566.0884
  -5412112.09847  -4212333.78144  23542780.6164   23542777.4834
      1749.8974
  -4004942.89148  -3107269.51247  21527775.4914   21527773.6244
     -1355.0544
  -6485060.10249  -5048929.28547  21379879.3904   21379878.1944
      -215.0754
 04  9 10 16 43 15.0030000  0  6G20G11G14G23G25G 1
 -10165506.29348  -7916460.59445  22314761.7964   22314759.5074
      1592.3244
   2276162.06648   1775136.21945  22517614.9374   22517613.1714
     -2330.2584
  21686712.78947  16886783.54742  24632685.1794   24632685.3474
     -3566.5274
  -5438316.34847  -4232752.67644  23537794.1714   23537791.2574
      1746.9504
  -3984490.63748  -3091332.69547  21531667.2334   21531665.5114
     -1363.4844
  -6481763.46549  -5046360.48846  21380506.4054   21380505.4444
      -219.7764
 04  9 10 16 43 30.0030000  0  6G20G11G14G23G25G 1
 -10189330.59848  -7935024.98445  22310227.6944   22310225.9294
      1588.2874
   2311232.52748   1802463.83645  22524288.5854   22524286.7534
     -2338.0314
  21740217.42247  16928475.43442  24642866.7884   24642867.3864
     -3566.9764
  -5464476.21147  -4253136.96544  23532816.3274   23532812.6674
      1743.9914
  -3963911.89149  -3075297.31647  21535583.4994   21535581.6444
     -1371.9164
  -6478396.31249  -5043736.73447  21381147.5224   21381146.3544
      -224.4774
 04  9 10 16 43 45.0030000  0  6G20G11G14G23G25G 1
 -10213094.46948  -7953542.28545  22305705.9214   22305704.0154
      1584.2584
   2346418.84848   1829881.72745  22530984.1944   22530982.7144
     -2345.7554
  21793728.27047  16970172.16042  24653049.5074   24653050.0734
     -3567.3904
  -5490592.01648  -4273486.93444  23527846.6244   23527843.5894
      1741.0544
  -3943207.30548  -3059163.87546  21539523.4294   21539521.5034
     -1380.3064
  -6474959.13749  -5041058.41847  21381801.6324   21381800.5224
      -229.1454
 04  9 10 16 44  0.0030000  0  6G20G11G14G23G25G 1
 -10236797.76248  -7972012.36345  22301195.4914   22301193.5774
      1580.2204
   2381720.75848   1857389.70745  22537702.0154   22537700.0224
     -2353.4614
  21847245.11347  17011873.57042  24663233.0384   24663234.3704
     -3567.7904
  -5516663.93748  -4293802.70744  23522885.2724   23522882.5584
      1738.1284
  -3922377.16849  -3042932.60947  21543487.4374   21543485.6634
     -1388.6764
  -6471452.09849  -5038325.66047  21382468.9134   21382467.8784
      -233.8034
 04  9 10 16 44 15.0030000  0  6G20G11G14G23G25G 1
 -10260439.59448  -7990434.55945  22296696.2414   22296694.9334
      1576.1224
   2417138.50848   1884987.92245  22544441.7884   22544440.0464
     -2361.1834
  21900768.59847  17053580.16042  24673418.2494   24673419.5194
     -3568.2324
  -5542691.35948  -4314083.80944  23517932.7494   23517929.2374
      1735.1614
  -3901420.93749  -3026603.09046  21547475.2654   21547473.0034
     -1397.0824
  -6467874.63749  -5035538.03147  21383149.6474   21383148.6904
      -238.4974
 04  9 10 16 44 30.0030000  0  6G20G11G14G23G25G 1
 -10284018.31648  -8008807.58645  22292209.5154   22292207.8314
      1571.9154
   2452673.21948   1912677.30545  22551203.9524   22551202.1244
     -2368.9814
  21954299.87547  17095292.79742  24683605.2804   24683605.4294
     -3568.7524
  -5568672.78547  -4334329.07844  23512987.9834   23512984.9914
      1732.0954
  -3880337.34049  -3010174.32046  21551487.0774   21551485.1984
     -1405.5734
  -6464225.51249  -5032694.55946  21383843.9134   21383842.6324
      -243.2754
 04  9 10 16 44 45.0030000  0  6G20G11G14G23G25G 1
 -10307538.01248  -8027134.61345  22287733.9604   22287732.2064
      1567.9804
   2488320.55548   1940454.41445  22557987.4374   22557985.3544
     -2376.4894
  22007834.82046  17137008.28542  24693792.3824   24693793.7374
     -3568.9964
  -5594612.36347  -4354541.71944  23508051.8824   23508049.1364
      1729.3054
  -3859130.83249  -2993649.76647  21555522.7184   21555520.7694
     -1413.7674
  -6460508.97349  -5029798.55547  21384550.8274   21384549.5934
      -247.7694
 04  9 10 16 45  0.0030000  0  6G20G11G14G23G25G 1
 -10330994.39848  -8045412.31645  22283270.1794   22283268.4874
      1563.7594
   2524084.22748   1968322.20345  22564792.7964   22564791.3274
     -2384.2454
  22061377.30146  17178729.67242  24703981.1404   24703982.8434
     -3569.4994
  -5620506.03947  -4374718.59444  23503124.5224   23503122.2454
      1726.2454
  -3837797.55149  -2977026.44146  21559582.5774   21559580.5424
     -1422.2194
  -6456721.06649  -5026846.93746  21385272.1014   21385270.5974
      -252.5274
 04  9 10 16 45 15.0030000  0  6G20G11G14G23G25G 1
 -10354387.94148  -8063641.04345  22278818.7104   22278816.7374
      1559.5704
   2559963.30148   1996279.89845  22571620.8274   22571618.8544
     -2391.9384
  22114926.46947  17220456.25842  24714170.7884   24714172.6794
     -3569.9454
  -5646354.55947  -4394860.28544  23498205.8044   23498202.9134
      1723.2354
  -3816338.33249  -2960304.97746  21563665.7804   21563664.0584
     -1430.6154
  -6452862.54749  -5023840.31247  21386006.2654   21386005.2574
      -257.2354
 04  9 10 16 45 30.0030000  0  6G20G11G14G23G25G 1
 -10377717.28548  -8081819.75045  22274379.0624   22274377.5734
      1555.2904
   2595958.79348   2024328.32045  22578470.0774   22578468.1634
     -2399.6994
  22168483.32446  17262188.81642  24724362.5934   24724364.2764
     -3570.4574
  -5672156.71548  -4414965.84844  23493295.7494   23493293.3864
      1720.1444
  -3794752.19549  -2943484.61346  21567773.3824   21567771.9404
     -1439.0764
  -6448932.36749  -5020777.84047  21386754.2654   21386753.0074
      -262.0124
 04  9 10 16 45 45.0030000  0  6G20G11G14G23G25G 1
 -10400984.38348  -8099949.94945  22269951.5224   22269949.7024
      1551.1404
   2632068.09448   2052465.41845  22585341.6324   22585339.7334
     -2407.2874
  22222045.65646  17303925.62142  24734555.1634   24734556.9094
     -3570.8224
  -5697914.64147  -4435036.93744  23488394.0074   23488391.1084
      1717.1954
  -3773041.54349  -2926567.21947  21571905.0384   21571903.1554
     -1447.3774
  -6444932.80149  -5017661.29746  21387515.0624   21387513.8744
      -266.6384
 04  9 10 16 46  0.0030000  0  6G20G11G14G23G25G 1
 -10424187.17648  -8118030.04345  22265536.3124   22265534.5894
      1546.8534
   2668292.76248   2080692.40645  22592235.1404   22592232.9834
     -2414.9784
  22275615.10947  17345668.00842  24744749.4444   24744749.9914
     -3571.2974
  -5723626.53548  -4455072.16044  23483501.3354   23483498.5194
      1714.1264
  -3751204.70749  -2909551.50847  21576060.4134   21576058.9404
     -1455.7894
  -6440862.14149  -5014489.35946  21388289.8824   21388288.7264
      -271.3774
 04  9 10 16 46 15.0030000  0  6G20G11G14G23G25G 1
 -10447326.12148  -8136060.37545  22261133.3274   22261131.3864
      1542.5964
   2704631.82048   2109008.55545  22599150.2334   22599147.8864
     -2422.6044
  22329190.92246  17387415.36342  24754943.9214   24754944.6904
     -3571.7214
  -5749292.98447  -4475071.97344  23478616.7884   23478613.8514
      1711.0974
  -3729242.44949  -2892438.06646  21580239.8274   21580237.9054
     -1464.1514
  -6436721.07049  -5011262.55547  21389078.0384   21389076.6674
      -276.0714
 04  9 10 16 46 30.0030000  0  6G20G11G14G23G25G 1
 -10470400.78548  -8154040.62945  22256742.4524   22256739.8194
      1538.3114
   2741085.23047   2137413.78545  22606087.1794   22606084.8434
     -2430.2274
  22382773.26246  17429167.78942  24765140.3434   24765140.9794
     -3572.1564
  -5774913.98047  -4495036.37544  23473741.8274   23473738.2924
      1708.0664
  -3707154.99249  -2875227.06247  21584442.4834   21584440.7964
     -1472.4974
  -6432509.59449  -5007980.88346  21389879.1634   21389878.1794
      -280.7654
 04  9 10 16 46 45.0030000  0  6G20G11G14G23G25G 1
 -10493412.30548  -8171971.67245  22252363.4444   22252361.1474
      1534.1014
   2777651.37948   2165906.87945  22613044.7414   22613043.3624
     -2437.7434
  22436360.59047  17470924.10542  24775338.8584   24775338.3194
     -3572.4894
  -5800490.74247  -4514966.28944  23468874.1554   23468871.1674
      1705.1174
  -3684943.74249  -2857919.60947  21588668.9834   21588667.6244
     -1480.7504
  -6428229.09849  -5004645.43446  21390693.7654   21390692.8704
      -285.3664
 04  9 10 16 47  0.0030000  0  6G20G11G14G23G25G 1
 -10516360.75448  -8189853.57845  22247996.1084   22247993.7184
      1529.8974
   2814329.77748   2194487.42645  22620025.1874   22620022.8744
     -2445.2274
  22489952.70347  17512684.16842  24785537.1244   24785537.0774
     -3572.8084
  -5826023.37948  -4534861.84444  23464015.8124   23464012.0654
      1702.1764
  -3662608.93449  -2840515.87547  21592919.2264   21592917.3624
     -1488.9874
  -6423879.79349  -5001256.36346  21391521.2654   21391520.0974
      -289.9544
 04  9 10 16 47 15.0030000  0  6G20G11G14G23G25G 1
 -10539242.46148  -8207683.46945  22243641.6554   22243639.5774
      1525.4474
   2851123.42648   2223157.80144  22627026.4374   22627024.8864
     -2452.9104
  22543552.75447  17554450.37142  24795736.8824   24795736.9914
     -3573.3374
  -5851508.66447  -4554720.48444  23459165.8514   23459162.8434
      1699.0194
  -3640147.60549  -2823013.54347  21597193.6874   21597191.7294
     -1497.4224
  -6419458.49249  -4997811.19947  21392362.7104   21392361.5264
      -294.7534
 04  9 10 16 47 30.0030000  0  6G20G11G14G23G25G 1
 -10562058.60548  -8225462.27345  22239300.1164   22239298.0114
      1521.0764
   2888030.73848   2251916.72345  22634049.6944   22634048.2454
     -2460.4874
  22597159.27746  17596221.64542  24805938.0464   24805937.8124
     -3573.7684
  -5876947.97347  -4574543.31244  23454325.2724   23454321.4334
      1695.9544
  -3617561.30948  -2805413.84446  21601491.9994   21601489.8234
     -1505.7534
  -6414966.73049  -4994311.12946  21393217.6714   21393216.1634
      -299.4514
 04  9 10 16 47 45.0030000  0  6G20G11G14G23G25G 1
 -10584809.07848  -8243189.91045  22234970.9764   22234968.9174
      1516.6984
   2925051.36348   2280763.95745  22641094.3744   22641093.1084
     -2468.0424
  22650772.19546  17637997.89142  24816140.0154   24816140.0694
     -3574.1954
  -5902341.24247  -4594330.25444  23449492.5934   23449488.9874
      1692.8854
  -3594850.19149  -2787716.87947  21605813.5384   21605811.5424
     -1514.0744
  -6410404.60249  -4990756.22347  21394085.9684   21394084.7024
      -304.1424
 04  9 10 16 48  0.0030000  0  6G20G11G14G23G25G 1
 -10607495.14148  -8260867.36745  22230654.0464   22230651.9564
      1512.4044
   2962183.47748   2309698.04345  22648161.0694   22648159.0304
     -2475.4744
  22704389.82846  17679777.83242  24826342.4444   24826343.2224
     -3574.5094
  -5927690.07448  -4614082.58244  23444669.7724   23444665.3584
      1689.9224
  -3572015.95748  -2769923.97346  21610158.6634   21610156.7374
     -1522.2824
  -6405773.72349  -4987147.75846  21394967.0154   21394965.4644
      -308.7254
 04  9 10 16 48 15.0030000  0  6G20G11G14G23G25G 1
 -10630115.10548  -8278493.30945  22226349.2884   22226347.2614
      1507.9984
   2999428.20747   2338719.91845  22655247.8274   22655246.1124
     -2482.9824
  22758013.55946  17721562.52342  24836547.1714   24836546.6244
     -3574.9154
  -5952992.93448  -4633799.08244  23439853.9834   23439850.4404
      1686.8574
  -3549057.37148  -2752034.17247  21614527.1794   21614525.6474
     -1530.5724
  -6401072.84049  -4983484.73847  21395861.5384   21395860.1944
      -313.3924
 04  9 10 16 48 30.0030000  0  6G20G11G14G23G25G 1
 -10652670.11348  -8296068.62545  22222057.0074   22222055.1714
      1503.6674
   3036784.08248   2367828.37145  22662356.5624   22662354.4874
     -2490.3924
  22811641.88746  17763350.78542  24846752.3124   24846751.8864
     -3575.2224
  -5978251.16448  -4653480.82044  23435047.8744   23435044.4214
      1683.8824
  -3525976.08648  -2734048.76247  21618919.9054   21618918.5194
     -1538.7524
  -6396303.28149  -4979768.19946  21396769.3744   21396767.5074
      -317.9714
 04  9 10 16 48 45.0030000  0  6G20G11G14G23G25G 1
 -10675158.47348  -8313592.03145  22217777.9834   22217775.8784
      1499.2244
   3074252.33648   2397024.40244  22669486.3434   22669485.0034
     -2497.8844
  22865276.21946  17805143.72342  24856958.7264   24856958.3514
     -3575.6224
  -6003463.22348  -4673126.54344  23430249.6404   23430246.4874
      1680.8044
  -3502770.79748  -2715966.71947  21623335.4914   21623334.1874
     -1547.0194
  -6391463.61349  -4975997.03146  21397690.1164   21397688.8084
      -322.6454
 04  9 10 16 49  0.0030000  0  6G20G11G14G23G25G 1
 -10697580.77748  -8331063.94945  22213511.2964   22213509.0624
      1494.8204
   3111831.58648   2426306.93044  22676637.3584   22676635.9094
     -2505.2834
  22918915.56346  17846940.56342  24867166.3514   24867166.0624
     -3575.9564
  -6028629.98848  -4692737.00844  23425460.8124   23425457.3624
      1677.7844
  -3479442.43748  -2697788.79347  21627774.9684   21627773.5464
     -1555.2244
  -6386554.79349  -4972171.98446  21398624.0304   21398622.8314
      -327.2554
 04  9 10 16 49 15.0030000  0  6G20G11G14G23G25G 1
 -10719935.64148  -8348483.32445  22209257.3904   22209254.9484
      1490.3244
   3149522.80148   2455676.68044  22683809.8194   22683808.8704
     -2512.7484
  22972560.92646  17888742.11342  24877375.0384   24877374.2694
     -3576.3584
  -6053750.38348  -4712311.34044  23420680.6244   23420676.9484
      1674.6934
  -3455990.10948  -2679514.25847  21632237.7414   21632236.1874
     -1563.4894
  -6381575.84049  -4968292.27046  21399571.3434   21399570.3394
      -331.9304
 04  9 10 16 49 30.0030000  0  6G20G11G14G23G25G 1
 -10742223.55148  -8365850.51645  22205016.2104   22205013.5154
      1485.8614
   3187325.09048   2485132.99245  22691003.7964   22691002.2494
     -2520.1534
  23026211.67246  17930547.85242  24887583.9374   24887582.8124
     -3576.7164
  -6078825.01248  -4731850.00044  23415909.1874   23415905.5074
      1671.6424
  -3432414.62549  -2661143.75447  21636724.2334   21636722.2534
     -1571.6994
  -6376527.45749  -4964358.47346  21400532.0224   21400531.1554
      -336.5594
 04  9 10 16 49 45.0030000  0  6G20G11G14G23G25G 1
 -10764443.68048  -8383164.89545  22200787.8274   22200785.2844
      1481.3424
   3225238.90248   2514676.21144  22698218.5544   22698216.8904
     -2527.5874
  23079868.26246  17972358.14842  24897794.3354   24897793.1874
     -3577.1064
  -6103853.24248  -4751352.52344  23411146.9444   23411142.8274
      1668.5494
  -3408715.54748  -2642676.94947  21641233.8124   21641232.1044
     -1579.9394
  -6371409.12549  -4960370.16047  21401506.1554   21401505.0854
      -341.2224
 04  9 10 16 50  0.0030000  0  6G20G11G14G23G25G 1
 -10786595.02348  -8400425.67245  22196572.1714   22196569.8974
      1476.7564
   3263264.39848   2544306.44944  22705454.4764   22705452.9374
     -2535.0334
  23133531.25845  18014173.43842  24908005.6944   24908006.3664
     -3577.5334
  -6128834.35248  -4770818.31644  23406392.4764   23406388.7694
      1665.4074
  -3384892.40649  -2624113.47747  21645767.3824   21645765.1164
     -1588.2094
  -6366220.22349  -4956326.86347  21402493.7184   21402492.8394
      -345.9274
 04  9 10 16 50 15.0030000  0  6G20G11G14G23G25G 1
 -10808678.49649  -8417633.57045  22192370.0154   22192367.8944
      1472.2324
   3301400.31348   2574022.74244  22712711.3124   22712709.4254
     -2542.3944
  23187199.47345  18055992.79742  24918219.6794   24918219.0544
     -3577.8814
  -6153769.34848  -4790248.18744  23401647.8974   23401643.9794
      1662.3334
  -3360946.46148  -2605454.29746  21650324.0774   21650322.3904
     -1596.3964
  -6360961.87949  -4952229.44947  21403494.1324   21403493.2184
      -350.5564
 04  9 10 16 50 30.0030000  0  6G20G11G14G23G25G 1
 -10830694.86348  -8434789.17245  22188180.2184   22188178.7724
      1467.7584
   3339645.32448   2603824.02744  22719989.4684   22719987.6674
     -2549.6674
  23240872.02045  18097815.52742  24928432.5304   24928433.1874
     -3578.1704
  -6178659.23048  -4809642.89144  23396911.2574   23396908.0384
      1659.3264
  -3336878.82049  -2586700.30146  21654903.9214   21654902.2104
     -1604.5094
  -6355635.20749  -4948078.80546  21404508.0224   21404506.7104
      -355.1114
 04  9 10 16 50 45.0030000  0  6G20G11G14G23G25G 1
 -10852643.08248  -8451891.67646  22184003.7334   22184001.7694
      1463.2154
   3378000.11348   2633710.86345  22727288.0224   22727285.9914
     -2556.9864
  23294549.48045  18139642.05142  24938647.4524   24938647.2104
     -3578.4974
  -6203503.28948  -4829001.88744  23392183.8824   23392180.1204
      1656.2714
  -3312688.94549  -2567851.05546  21659507.0694   21659505.2064
     -1612.6584
  -6350239.57449  -4943874.41846  21405534.5544   21405533.5114
      -359.7094
 04  9 10 16 51  0.0030000  0  6G20G11G14G23G25G 1
 -10874523.28148  -8468941.18045  22179840.0544   22179838.0224
      1458.6804
   3416463.77748   2663682.53944  22734607.3744   22734605.1044
     -2564.2444
  23348231.27345  18181471.97742  24948862.3744   24948862.9954
     -3578.7864
  -6228301.77748  -4848325.36744  23387464.6404   23387461.4014
      1653.2334
  -3288377.31248  -2548906.93746  21664133.6244   21664131.6044
     -1620.7764
  -6344775.39549  -4939616.61746  21406574.5304   21406573.3084
      -364.2794
 04  9 10 16 51 15.0030000  0  6G20G11G14G23G25G 1
 -10896335.35948  -8485937.60546  22175689.7654   22175687.7964
      1454.1394
   3455035.99648   2693738.80545  22741947.5074   22741946.0304
     -2571.4814
  23401917.33245  18223305.24642  24959077.9994   24959078.7804
     -3579.0714
  -6253054.87548  -4867613.49244  23382754.4134   23382750.7844
      1650.2074
  -3263944.47349  -2529868.36346  21668783.0154   21668781.0694
     -1628.8564
  -6339242.86349  -4935305.55946  21407627.2024   21407626.0384
      -368.8354
 04  9 10 16 51 30.0030000  0  6G20G11G14G23G25G 1
 -10918078.96548  -8502880.66045  22171551.4214   22171549.7064
      1449.5744
   3493716.71148   2723879.60244  22749307.9294   22749306.8084
     -2578.7144
  23455607.67245  18265141.85942  24969295.2654   24969296.1754
     -3579.3564
  -6277762.36748  -4886866.06244  23378052.7654   23378050.0584
      1647.1664
  -3239390.28549  -2510735.23846  21673455.8194   21673453.5934
     -1636.9464
  -6333641.94149  -4930941.21146  21408693.0694   21408691.9834
      -373.3954
 04  9 10 16 51 45.0030000  0  6G20G11G14G23G25G 1
 -10939752.79749  -8519769.35945  22167426.9764   22167425.4794
      1444.9224
   3532506.65248   2754105.51244  22756689.7884   22756688.2534
     -2585.9964
  23509303.29746  18306982.52042  24979513.9054   24979513.4684
     -3579.7084
  -6302423.21148  -4906082.28544  23373359.9604   23373357.0154
      1644.0564
  -3214714.01649  -2491506.98446  21678151.3434   21678149.2884
     -1645.0854
  -6327971.61349  -4926522.78146  21409772.5384   21409771.0854
      -378.0224
 04  9 10 16 52  0.0030000  0  6G20G11G14G23G25G 1
 -10961356.30948  -8536603.25445  22163316.1714   22163314.4054
      1440.2344
   3571405.89148   2784416.59045  22764091.9054   22764090.0504
     -2593.2834
  23563004.35946  18348827.47742  24989733.0224   24989732.7264
     -3580.0714
  -6327037.02348  -4925261.88744  23368675.4294   23368672.3514
      1640.9214
  -3189915.48049  -2472183.45747  21682870.4054   21682868.5424
     -1653.2364
  -6322231.59849  -4922050.04746  21410864.5774   21410863.4254
      -382.6684
 04  9 10 16 52 15.0030000  0  6G20G11G14G23G25G 1
 -10982891.58248  -8553383.98845  22159218.0464   22159216.2024
      1435.6854
   3610411.95348   2814810.91444  22771514.8974   22771512.7764
     -2600.4044
  23616708.63346  18390674.91442  24999951.8904   24999951.9954
     -3580.2854
  -6351606.00848  -4944406.53544  23364000.6244   23363997.4254
      1637.9324
  -3164997.17649  -2452766.59846  21687611.9054   21687610.1204
     -1661.2204
  -6316424.30549  -4917524.88347  21411969.1714   21411968.1444
      -387.1534
 04  9 10 16 52 30.0030000  0  6G20G11G14G23G25G 1
 -11004357.23848  -8570110.47345  22155133.2654   22155131.6594
      1431.0444
   3649525.45748   2845288.95345  22778957.6714   22778955.8274
     -2607.5674
  23670416.98045  18432525.51242  25010171.8584   25010172.6364
     -3580.5574
  -6376129.24248  -4963515.52744  23359333.6634   23359330.7884
      1634.8824
  -3139958.19549  -2433255.71946  21692376.7804   21692374.9094
     -1669.2654
  -6310548.77749  -4912946.55146  21413088.1944   21413086.8194
      -391.7024
 04  9 10 16 52 45.0030000  0  6G20G11G14G23G25G 1
 -11025753.78548  -8586783.09845  22151061.6324   22151059.8084
      1426.4364
   3688745.38348   2875849.90645  22786420.7574   22786419.3824
     -2614.6624
  23724128.65245  18474378.71542  25020393.1474   25020393.6444
     -3580.7784
  -6400607.31247  -4982589.32044  23354675.6634   23354672.5734
      1631.8714
  -3114799.44949  -2413651.50046  21697164.0304   21697162.1834
     -1677.2504
  -6304605.84849  -4908315.69946  21414218.7574   21414217.3904
      -396.1954
 04  9 10 16 53  0.0030000  0  6G20G11G14G23G25G 1
 -11047079.63349  -8603400.62945  22147003.4294   22147001.5694
      1421.7234
   3728072.73848   2906494.59444  22793904.5464   22793902.9484
     -2621.8244
  23777844.88745  18516235.46142  25030614.9914   25030615.5154
     -3581.0824
  -6425038.91048  -5001626.92244  23350026.8274   23350023.6984
      1628.7734
  -3089519.91049  -2393953.16846  21701974.7494   21701973.1404
     -1685.3034
  -6298594.16849  -4903631.28146  21415362.8514   21415361.1474
      -400.7794
 04  9 10 16 53 15.0030000  0  6G20G11G14G23G25G 1
 -11068336.49648  -8619964.41446  22142958.1474   22142956.3314
      1417.1244
   3767505.41048   2937221.33244  22801408.4054   22801406.4484
     -2628.8454
  23831563.74645  18558094.25842  25040837.9604   25040837.3744
     -3581.2574
  -6449425.81248  -5020629.68744  23345385.9444   23345382.4604
      1625.7934
  -3064121.54749  -2374162.24646  21706807.7104   21706806.0774
     -1693.2244
  -6292515.76249  -4898894.86346  21416519.0544   21416517.9134
      -405.2274
 04  9 10 16 53 30.0030000  0  6G20G11G14G23G25G 1
 -11089523.47749  -8636473.74645  22138926.6714   22138924.4444
      1412.4654
   3807043.81348   2968030.45744  22808932.1794   22808930.8124
     -2635.8934
  23885285.69944  18599955.48042  25051060.6404   25051061.4174
     -3581.4644
  -6473767.46548  -5039597.18044  23340753.4834   23340750.4254
      1622.7774
  -3038603.85249  -2354278.34046  21711663.8194   21711662.1364
     -1701.1804
  -6286370.05149  -4894106.00047  21417688.4604   21417687.3944
      -409.7144
 04  9 10 16 53 45.0030000  0  6G20G11G14G23G25G 1
 -11110640.57048  -8652928.60545  22134908.3354   22134906.5774
      1407.8064
   3846687.39548   2998921.53544  22816475.9294   22816474.2764
     -2642.9054
  23939010.50845  18641818.91842  25061284.2024   25061285.2224
     -3581.6544
  -6498064.08647  -5058529.59044  23336129.9524   23336127.0154
      1619.7754
  -3012967.27049  -2334301.79346  21716542.0304   21716540.6084
     -1709.1054
  -6280157.37149  -4889264.95347  21418870.8974   21418869.5194
      -414.1794
 04  9 10 16 54  0.0030000  0  6G20G11G14G23G25G 1
 -11131685.36748  -8669327.14145  22130903.3584   22130902.0154
      1402.9864
   3886438.08248   3029896.07844  22824040.3904   22824038.4054
     -2650.0464
  23992740.21945  18683686.18042  25071508.0384   25071508.9834
     -3581.9814
  -6522313.39547  -5077425.14844  23331515.6794   23331512.6714
      1616.6214
  -2987209.87549  -2314231.10246  21721443.7884   21721442.1474
     -1717.1604
  -6273875.57849  -4884370.05547  21420066.3044   21420065.4054
      -418.7864
 04  9 10 16 54 15.0030000  0  6G20G11G14G23G25G 1
 -11152659.40248  -8685670.54745  22126912.4994   22126910.7184
      1398.2694
   3926293.72348   3060952.40244  22831624.6474   22831622.9834
     -2657.0434
  24046472.97745  18725555.81342  25081733.3584   25081733.4214
     -3582.1844
  -6546517.22748  -5096285.25444  23326909.3824   23326906.6444
      1613.5894
  -2961333.72749  -2294067.87546  21726367.8514   21726366.0504
     -1725.0774
  -6267526.57049  -4879422.77746  21421274.6944   21421273.4294
      -423.2674
 04  9 10 16 54 30.0030000  0  6G20G11G14G23G25G 1
 -11173563.40649  -8701959.37546  22122934.3824   22122932.8474
      1393.6004
   3966253.00448   3092089.49244  22839228.6404   22839226.8704
     -2663.9524
  24100207.72746  18767427.02342  25091959.4444   25091958.3434
     -3582.3174
  -6570676.48448  -5115110.64544  23322312.3974   23322308.9954
      1610.6174
  -2935339.89549  -2273812.94546  21731314.2964   21731312.4724
     -1732.9224
  -6261111.43449  -4874423.97346  21422495.2024   21422494.1284
      -427.6764
 04  9 10 16 54 45.0030000  0  6G20G11G14G23G25G 1
 -11194396.03148  -8718192.59046  22118970.2024   22118968.6514
      1388.8424
   4006316.87548   3123308.06644  22846852.7804   22846850.3354
     -2670.9254
  24153945.54746  18809300.59442  25102185.1474   25102185.0814
     -3582.5214
  -6594789.99648  -5133900.38744  23317723.4374   23317720.4644
      1607.5674
  -2909227.46549  -2253465.60547  21736283.4604   21736281.7764
     -1740.8294
  -6254629.05149  -4869372.76647  21423728.9214   21423727.7884
      -432.1594
 04  9 10 16 55  0.0030000  0  6G20G11G14G23G25G 1
 -11215156.70748  -8734369.72746  22115019.6944   22115018.0854
      1384.0454
   4046485.28948   3154608.12144  22854496.7264   22854494.8044
     -2677.8944
  24207686.60245  18851176.71942  25112411.9764   25112412.6014
     -3582.7374
  -6618857.45748  -5152654.23444  23313143.8824   23313140.3234
      1604.4974
  -2882996.34849  -2233025.77346  21741275.1554   21741273.1244
     -1748.7414
  -6248079.22749  -4864269.01247  21424975.2654   21424973.8124
      -436.6554
 04  9 10 16 55 15.0030000  0  6G20G11G14G23G25G 1
 -11235844.78548  -8750490.30146  22111082.4524   22111081.1124
      1379.2054
   4086758.30548   3185989.67644  22862160.4294   22862158.5734
     -2684.8684
  24261431.30546  18893055.68042  25122638.9054   25122639.0774
     -3582.9804
  -6642878.46948  -5171371.89144  23308572.7964   23308569.5694
      1601.4014
  -2856646.36749  -2212493.33646  21746289.5694   21746287.2264
     -1756.6654
  -6241461.60549  -4859112.42646  21426234.5304   21426233.4334
      -441.1754
 04  9 10 16 55 30.0030000  0  5G20G11G23G25G 1
 -11256462.02049  -8766555.67646  22107159.3664   22107157.4444
      1374.4824
   4127133.75048   3217451.03144  22869843.4374   22869842.1124
     -2691.6964
  -6666854.93448  -5190054.83644  23304010.4134   23304006.8394
      1598.4314
  -2830179.67649  -2191869.95346  21751325.8044   21751324.1984
     -1764.4464
  -6234778.26249  -4853904.62546  21427506.3584   21427504.8584
      -445.5564
 04  9 10 16 55 45.0030000  0  5G20G11G23G25G 1
 -11277005.28949  -8782563.41046  22103250.0224   22103247.9444
      1369.5514
   4167614.29348   3248994.30145  22877546.8744   22877545.0464
     -2698.7034
  -6690783.96148  -5208700.83244  23299456.8584   23299453.2104
      1595.2684
  -2803593.59449  -2171153.52747  21756385.0304   21756382.9764
     -1772.4054
  -6228026.41849  -4848643.44946  21428791.3194   21428789.8004
      -450.1234
 04  9 10 16 56  0.0030000  0  5G20G11G23G25G 1
 -11297476.85249  -8798515.27345  22099354.2964   22099352.2334
      1364.7714
   4208196.96948   3280617.12944  22885269.9134   22885267.8664
     -2705.5124
  -6714668.07447  -5227311.81244  23294912.3664   23294908.4014
      1592.2744
  -2776890.88749  -2150346.23447  21761466.2494   21761464.4404
     -1780.1804
  -6221208.72349  -4843330.96546  21430088.6794   21430087.3474
      -454.5134
 04  9 10 16 56 15.0030000  0  5G20G11G23G25G 1
 -11317873.41049  -8814408.68746  22095473.1794   22095471.4684
      1359.7714
   4248884.50848   3312321.70745  22893012.2654   22893010.6674
     -2712.5034
  -6738504.14848  -5245885.34844  23290376.2264   23290373.1444
      1589.0724
  -2750068.60949  -2129445.76646  21766570.2964   21766568.6124
     -1788.1524
  -6214322.14549  -4837964.80547  21431399.1794   21431397.6404
      -459.1054
 04  9 10 16 56 30.0030000  0  5G20G11G23G25G 1
 -11338194.81649  -8830243.54346  22091605.9134   22091604.3944
      1354.7604
   4289676.65248   3344107.77044  22900774.3974   22900773.0114
     -2719.4764
  -6762292.35247  -5264421.59844  23285849.0074   23285845.5384
      1585.8804
  -2723127.08249  -2108452.37146  21771697.5694   21771695.8004
     -1796.1024
  -6207366.79349  -4832545.05547  21432722.7574   21432720.9914
      -463.6904
 04  9 10 16 56 45.0030000  0  5G20G11G23G25G 1
 -11358439.77049  -8846018.82845  22087753.7334   22087751.5344
      1349.6644
   4330574.02748   3375975.83644  22908557.0854   22908555.2694
     -2726.4924
  -6786031.53948  -5282919.66044  23281331.8744   23281327.8354
      1582.6134
  -2696065.61349  -2087365.51247  21776846.9684   21776845.5694
     -1804.0984
  -6200341.77049  -4827071.02346  21434059.8824   21434058.1714
      -468.3354
 04  9 10 16 57  0.0030000  0  5G20G11G23G25G 1
 -11378607.93049  -8861734.27346  22083915.7024   22083913.7884
      1344.5444
   4371576.54748   3407925.83644  22916359.7574   22916357.5224
     -2733.5014
  -6809721.54748  -5301379.38744  23276823.8434   23276820.7064
      1579.3344
  -2668884.11749  -2066185.14147  21782019.2574   21782017.9874
     -1812.1004
  -6193247.00849  -4821542.63746  21435409.8514   21435407.8044
      -472.9844
 04  9 10 16 57 15.0030000  0  5G20G11G23G25G 1
 -11398700.12549  -8877390.52746  22080092.4764   22080090.3944
      1339.4804
   4412682.94549   3439956.78544  22924181.6084   22924180.4094
     -2740.4274
  -6833363.33648  -5319801.53544  23272324.7724   23272320.9374
      1576.1194
  -2641583.71949  -2044912.10546  21787214.1014   21787212.4214
     -1820.0274
  -6186083.53949  -4815960.72347  21436773.2104   21436771.3474
      -477.5654
 04  9 10 16 57 30.0030000  0  5G20G11G23G25G 1
 -11418715.82449  -8892987.16446  22076283.3904   22076281.5114
      1334.3804
   4453893.26248   3472068.71144  22932023.9684   22932021.9134
     -2747.3544
  -6856956.70748  -5338185.97744  23267835.1324   23267831.3194
      1572.8914
  -2614164.57049  -2023546.53946  21792432.4214   21792430.3314
     -1827.9434
  -6178851.26249  -4810325.18747  21438149.1244   21438147.6474
      -482.1524
 04  9 10 16 57 45.0030000  0  5G20G11G23G25G 1
 -11438655.46949  -8908524.54345  22072488.9994   22072487.3394
      1329.3104
   4495206.28548   3504260.65644  22939885.1874   22939883.7294
     -2754.2024
  -6880502.35948  -5356533.21144  23263354.8744   23263351.0194
      1569.7104
  -2586627.53949  -2002089.12546  21797672.4214   21797670.5114
     -1835.8024
  -6171550.93049  -4804636.62546  21439538.2964   21439536.6944
      -486.6894
 04  9 10 16 58  0.0030000  0  5G20G11G23G25G 1
 -11458520.46549  -8924003.75846  22068708.8354   22068707.0194
      1324.3334
   4536620.16448   3536531.18444  22947765.9214   22947764.8584
     -2760.9254
  -6904001.93048  -5374844.55144  23258883.3354   23258879.3434
      1566.6384
  -2558974.40649  -1980541.23046  21802934.5854   21802932.3704
     -1843.5424
  -6164184.22349  -4798896.33246  21440940.1794   21440939.0464
      -491.1144
 04  9 10 16 58 15.0030000  0  5G20G11G23G25G 1
 -11478310.14549  -8939424.28946  22064943.1474   22064940.9374
      1319.3124
   4578134.89548   3568880.30544  22955666.2964   22955664.7964
     -2767.6494
  -6927454.93047  -5393119.59444  23254419.4524   23254416.4834
      1563.5334
  -2531205.12149  -1958902.83646  21808218.8514   21808216.8624
     -1851.2864
  -6156750.84449  -4793104.09847  21442354.7184   21442353.3584
      -495.5594
 04  9 10 16 58 30.0030000  0  5G20G11G23G25G 1
 -11498023.64149  -8954785.44946  22061191.8354   22061189.6444
      1314.2334
   4619750.88348   3601308.32444  22963585.6084   22963584.0504
     -2774.3994
  -6950860.65647  -5411357.79344  23249965.4294   23249962.3354
      1560.3824
  -2503319.23049  -1937173.57846  21813525.0074   21813523.6944
     -1859.0594
  -6149250.30949  -4787259.52746  21443782.0154   21443780.4764
      -500.0364
 04  9 10 16 58 45.0030000  0  5G20G11G23G25G 1
 -11517660.46949  -8970086.86346  22057454.9914   22057452.3354
      1309.1224
   4661468.09848   3633815.22344  22971524.3664   22971522.3314
     -2781.1484
  -6974218.80148  -5429558.93744  23245521.0304   23245516.8664
      1557.2104
  -2475316.62949  -1915353.37546  21818853.7264   21818851.9294
     -1866.8404
  -6141682.39849  -4781362.46546  21445221.5774   21445220.5384
      -504.5274
 04  9 10 16 59  0.0030000  0  5G20G11G23G25G 1
 -11537219.72749  -8985327.83645  22053732.9294   22053730.5584
      1303.9514
   4703286.78149   3666401.18844  22979482.1634   22979480.2064
     -2787.9124
  -6997528.82848  -5447722.58644  23241085.5854   23241081.7294
      1554.0024
  -2447196.83649  -1893441.85546  21824204.7724   21824203.1324
     -1874.6534
  -6134046.53949  -4775412.44546  21446675.1714   21446673.8234
      -509.0574
 04  9 10 16 59 15.0030000  0  5G20G11G23G25G 1
 -11556701.21549  -9000508.21145  22050025.8904   22050023.0464
      1298.7664
   4745206.74649   3699066.07044  22987459.4214   22987457.5224
     -2794.6644
  -7020790.67248  -5465848.68444  23236658.2264   23236655.0694
      1550.7904
  -2418960.21149  -1871439.29746  21829578.0154   21829576.5934
     -1882.4424
  -6126342.85549  -4769409.58646  21448140.8584   21448139.6164
      -513.5794
 04  9 10 16 59 30.0030000  0  5G20G11G23G25G 1
 -11576106.57449  -9015629.26246  22046332.7494   22046330.5504
      1293.6914
   4787225.71949   3731808.11744  22995455.3514   22995453.7494
     -2801.2654
  -7044006.25448  -5483938.73444  23232240.9054   23232236.9644
      1547.7054
  -2390608.79749  -1849347.28546  21834973.5224   21834971.6714
     -1890.0944
  -6118573.29749  -4763355.39147  21449619.3824   21449617.7964
      -517.9714
 04  9 10 16 59 45.0030000  0  5G20G11G23G25G 1
 -11595433.26649  -9030689.00846  22042655.1164   22042652.8514
      1288.4464
   4829345.74649   3764628.88744  23003470.8514   23003468.9374
     -2808.0024
  -7067173.20748  -5501990.89144  23227832.3124   23227828.9994
      1544.4644
  -2362140.40249  -1827164.12546  21840390.5774   21840388.8394
     -1897.8934
  -6110735.63349  -4757248.11747  21451110.7494   21451109.9094
      -522.5114
 04  9 10 17  0  0.0030000  0  5G20G11G23G25G 1
 -11614682.43449  -9045688.35945  22038992.1634   22038989.9484
      1283.2784
   4871565.10248   3797527.07044  23011504.6084   23011502.6634
     -2814.6244
  -7090292.84848  -5520006.17644  23223432.8194   23223429.4604
      1541.3094
  -2333556.75849  -1804891.16446  21845829.8044   21845827.9134
     -1905.5764
  -6102831.34449  -4751088.93746  21452615.3354   21452613.7144
      -526.9534
 04  9 10 17  0 15.0030000  0  5G20G11G23G25G 1
 -11633854.48049  -9060627.61345  22035344.0304   22035341.3434
      1278.1364
   4913882.80149   3830501.88344  23019557.1794   23019555.2334
     -2821.1804
  -7113365.82048  -5537985.11344  23219042.2964   23219038.8974
      1538.1984
  -2304858.63349  -1782528.98846  21851290.8194   21851289.0974
     -1913.2084
  -6094861.08649  -4744878.35547  21454131.8434   21454130.4684
      -531.3514
 04  9 10 17  0 30.0030000  0  5G20G11G23G25G 1
 -11652946.92649  -9075504.84446  22031710.8354   22031708.4174
      1272.8304
   4956300.87949   3863554.91044  23027628.9294   23027627.2764
     -2827.8724
  -7136389.84848  -5555925.91044  23214661.0934   23214657.3864
      1534.9354
  -2276044.04349  -1760076.07446  21856774.2964   21856772.3584
     -1920.9734
  -6086822.70349  -4738614.68747  21455661.3514   21455660.2454
      -535.8924
 04  9 10 17  0 45.0030000  0  5G20G11G23G25G 1
 -11671960.69149  -9090320.76645  22028092.5934   22028090.4374
      1267.5844
   4998817.85549   3896685.00044  23035719.9054   23035717.7724
     -2834.4654
  -7159366.12548  -5573829.49644  23210288.5694   23210285.2534
      1531.7524
  -2247114.33649  -1737533.46146  21862279.2964   21862277.4914
     -1928.6474
  -6078717.44949  -4732298.91047  21457203.5774   21457202.6204
      -540.3504
 04  9 10 17  1  0.0030000  0  5G20G11G23G25G 1
 -11690898.13749  -9105077.20745  22024489.1164   22024486.4404
      1262.4964
   5041430.76649   3929889.84444  23043828.7654   23043827.1404
     -2840.8614
  -7182297.23048  -5591697.87944  23205924.8434   23205921.5074
      1528.7404
  -2218072.39549  -1714903.38746  21867805.8824   21867804.6014
     -1936.1294
  -6070548.05549  -4725933.14847  21458758.3974   21458757.3434
      -544.6264
 04  9 10 17  1 15.0030000  0  5G20G11G23G25G 1
 -11709756.49249  -9119772.02345  22020900.4444   22020897.6044
      1257.2244
   5084141.73048   3963171.09444  23051956.0544   23051954.7184
     -2847.3984
  -7205180.69948  -5609529.13344  23201570.2724   23201567.1874
      1525.5654
  -2188915.96149  -1692184.09046  21873354.1554   21873352.0224
     -1943.7624
  -6062312.06649  -4719515.50046  21460325.7494   21460324.7844
      -549.0664
 04  9 10 17  1 30.0030000  0  5G20G11G23G25G 1
 -11728535.64149  -9134405.11745  22017326.6794   22017324.0344
      1251.9434
   5126950.40248   3996528.47344  23060102.7024   23060100.7614
     -2853.9114
  -7228016.51648  -5627323.27344  23197224.3354   23197221.6634
      1522.3884
  -2159645.25049  -1669375.75446  21878924.3194   21878922.3544
     -1951.3814
  -6054009.60949  -4713046.06247  21461905.5624   21461904.5544
      -553.4974
 04  9 10 17  1 45.0030000  0  5G20G11G23G25G 1
 -11747233.85949  -9148975.16046  22013768.3904   22013765.9874
      1246.5484
   5169857.96148   4029962.91444  23068267.7804   23068266.4404
     -2860.5044
  -7250803.20348  -5645079.12544  23192888.6164   23192885.3944
      1519.1134
  -2130258.90649  -1646477.30946  21884516.5544   21884514.7024
     -1959.0904
  -6045639.35549  -4706523.78546  21463498.4054   21463497.3434
      -558.0174
 04  9 10 17  2  0.0030000  0  5G20G11G23G25G 1
 -11765854.53549  -9163484.75446  22010225.2414   22010222.5504
      1241.3784
   5212860.42248   4063471.30144  23076450.6714   23076449.0814
     -2866.8314
  -7273544.31248  -5662799.44944  23188561.2964   23188557.4134
      1516.0744
  -2100761.01249  -1623491.94546  21890129.5854   21890127.7294
     -1966.5264
  -6037204.98849  -4699951.56647  21465103.4054   21465101.9834
      -562.2914
 04  9 10 17  2 15.0030000  0  5G20G11G23G25G 1
 -11784395.36749  -9177932.15646  22006696.9294   22006694.5774
      1236.0554
   5255959.68848   4097055.13344  23084651.9444   23084650.9014
     -2873.2844
  -7296237.78948  -5680482.66044  23184242.7414   23184239.4054
      1512.8984
  -2071149.70349  -1600418.20346  21895764.5464   21895762.8704
     -1974.0874
  -6028704.58649  -4693327.87546  21466720.7024   21466719.2654
      -566.6934
 04  9 10 17  2 30.0030000  0  5G20G11G23G25G 1
 -11802855.94549  -9192317.00846  22003184.0224   22003181.5694
      1230.7054
   5299155.56349   4130714.23844  23092872.4374   23092870.5074
     -2879.7254
  -7318883.41848  -5698128.59444  23179933.1084   23179929.4794
      1509.7094
  -2041425.02749  -1577256.13747  21901421.1164   21901419.1834
     -1981.6454
  -6020137.94949  -4686652.58246  21468351.2104   21468349.3974
      -571.1094
 04  9 10 17  2 45.0030000  0  5G20G11G23G25G 1
 -11821237.11349  -9206639.99646  21999685.9524   21999683.8434
      1225.4114
   5342446.54348   4164447.46144  23101110.1634   23101108.5584
     -2886.0654
  -7341482.44548  -5715738.21944  23175632.7724   23175629.7414
      1506.6024
  -2011588.28149  -1554006.72747  21907098.6554   21907097.1164
     -1989.1164
  -6011506.28949  -4679926.62547  21469993.9604   21469992.1674
      -575.4444
 04  9 10 17  3  0.0030000  0  5G20G11G23G25G 1
 -11839538.21549  -9220900.59846  21996203.6794   21996201.5384
      1220.0734
   5385832.79749   4198254.91044  23109366.4524   23109364.7574
     -2892.4174
  -7364034.26248  -5733311.04344  23171341.1794   23171337.9794
      1503.4544
  -1981639.09049  -1530669.70347  21912797.5624   21912795.6444
     -1996.6134
  -6002809.19949  -4673149.68047  21471648.9764   21471647.3004
      -579.8064
 04  9 10 17  3 15.0030000  0  5G20G11G23G25G 1
 -11857760.57449  -9235099.82446  21992735.9684   21992733.6044
      1214.8244
   5429312.31348   4232135.02744  23117640.3514   23117638.8514
     -2898.6344
  -7386540.48848  -5750848.35244  23167058.5774   23167055.1474
      1500.4154
  -1951579.39549  -1507246.57446  21918517.7654   21918516.1364
     -2003.9804
  -5994048.39849  -4666323.08247  21473316.2334   21473314.2414
      -584.0534
 04  9 10 17  3 30.0030000  0  5G20G11G23G25G 1
 -11875901.85549  -9249235.89146  21989283.6164   21989281.3664
      1209.4194
   5472886.93849   4266089.26644  23125932.0384   23125931.0584
     -2904.9754
  -7408999.01648  -5768348.48044  23162784.6794   23162780.8664
      1497.2354
  -1921407.26649  -1483735.83246  21924259.6084   21924257.6944
     -2011.4754
  -5985221.87149  -4659445.27746  21474995.8584   21474994.1754
      -588.4354
 04  9 10 17  3 45.0030000  0  5G20G11G23G25G 1
 -11893960.61349  -9263307.64146  21985846.9764   21985844.6904
      1203.9174
   5516557.89548   4300118.57044  23134242.3044   23134241.1244
     -2911.3974
  -7431408.55148  -5785810.45344  23158520.3124   23158516.7574
      1493.9694
  -1891121.97349  -1460136.90246  21930022.3514   21930020.9374
     -2019.0204
  -5976328.46149  -4652515.35246  21476687.7104   21476686.3864
      -592.8944
 04  9 10 17  4  0.0030000  0  5G20G11G23G25G 1
 -11911940.07049  -9277317.60245  21982425.7104   21982423.7184
      1198.6304
   5560320.84048   4334219.54344  23142570.7024   23142569.1204
     -2917.5304
  -7453772.67648  -5803237.01644  23154264.1874   23154260.8084
      1490.9424
  -1860727.09049  -1436452.59046  21935806.6874   21935804.9134
     -2026.3264
  -5967371.80149  -4645536.13746  21478392.5074   21478390.8544
      -597.1114
 04  9 10 17  4 15.0030000  0  5G20G11G23G25G 1
 -11929838.17249  -9291264.17645  21979020.1944   21979017.4564
      1193.2074
   5604177.44548   4368393.50444  23150916.1794   23150914.9564
     -2923.7744
  -7476089.36348  -5820626.62944  23150017.3514   23150014.1044
      1487.7794
  -1830220.92649  -1412681.55146  21941611.9214   21941609.7294
     -2033.7444
  -5958350.05149  -4638506.20746  21480109.0544   21480107.8544
      -601.4504
 04  9 10 17  4 30.0030000  0  5G20G11G23G25G 1
 -11947654.57049  -9305147.08246  21975629.5694   21975627.2294
      1187.7604
   5648127.55548   4402640.32844  23159279.7654   23159278.2224
     -2930.0074
  -7498358.57048  -5837979.22344  23145779.7804   23145776.2924
      1484.6144
  -1799603.64849  -1388823.94146  21947438.0624   21947436.3904
     -2041.1524
  -5949263.25849  -4631425.60246  21481838.2414   21481836.8904
      -605.7864
 04  9 10 17  4 45.0030000  0  5G20G11G23G25G 1
 -11965390.01249  -9318966.89146  21972254.8664   21972252.1634
      1182.3634
   5692169.96949   4436959.07844  23167660.8664   23167659.0974
     -2936.1614
  -7520581.14148  -5855295.50044  23141550.9604   23141547.7374
      1481.5054
  -1768876.38749  -1364880.62946  21953285.2494   21953283.2024
     -2048.4844
  -5940112.39149  -4624295.05947  21483579.8274   21483578.2724
      -610.0584
 04  9 10 17  5  0.0030000  0  5G20G11G23G25G 1
 -11983042.87149  -9332722.35946  21968895.4834   21968893.4834
      1176.8574
   5736305.53948   4471350.41844  23176059.5304   23176058.1834
     -2942.3714
  -7542755.86348  -5872574.48444  23137331.3664   23137328.1364
      1478.3154
  -1738038.13349  -1340850.82446  21959153.4834   21959152.0264
     -2055.8844
  -5930896.25049  -4617113.65246  21485333.3904   21485332.0074
      -614.4094
 04  9 10 17  5 15.0030000  0  5G20G11G23G25G 1
 -12000612.81649  -9346413.22746  21965552.3124   21965549.8124
      1171.3304
   5780534.14149   4505814.23844  23184476.1084   23184474.3274
     -2948.5734
  -7564882.50448  -5889816.01244  23133120.7654   23133117.6284
      1475.1094
  -1707088.94549  -1316734.58246  21965043.0304   21965041.3004
     -2063.2794
  -5921614.78149  -4609881.34846  21487099.8974   21487098.2144
      -618.7654
 04  9 10 17  5 30.0030000  0  5G20G11G23G25G 1
 -12018099.49249  -9360039.18746  21962224.4294   21962222.4524
      1165.7784
   5824855.58649   4540350.41044  23192909.9134   23192908.0774
     -2954.7634
  -7586961.04348  -5907020.04344  23128919.5544   23128916.1164
      1471.9034
  -1676029.02349  -1292532.04746  21970953.3974   21970951.6014
     -2070.6614
  -5912267.93449  -4602598.09446  21488878.3904   21488876.9254
      -623.1234
 04  9 10 17  5 45.0030000  0  5G20G11G23G25G 1
 -12035501.19149  -9373598.95346  21958913.3664   21958911.1514
      1160.1134
   5869270.99249   4574959.80144  23201361.9914   23201360.7844
     -2961.0274
  -7608989.88348  -5924185.36744  23124727.5304   23124723.5264
      1468.5894
  -1644856.96149  -1268242.13746  21976885.5774   21976883.4994
     -2078.1374
  -5902854.34449  -4595262.83246  21490669.8124   21490668.4484
      -627.5734
 04  9 10 17  6  0.0030000  0  5G20G11G23G25G 1
 -12052819.02049  -9387093.35946  21955617.7264   21955615.8474
      1154.5224
   5913778.78548   4609641.17644  23209831.7024   23209830.3624
     -2967.1864
  -7630970.51648  -5941313.11744  23120544.7494   23120541.4294
      1465.3764
  -1613574.53549  -1243866.21946  21982838.1244   21982836.1754
     -2085.4954
  -5893375.47349  -4587876.70346  21492473.4604   21492471.9524
      -631.9254
 04  9 10 17  6 15.0030000  0  5G20G11G23G25G 1
 -12070054.02049  -9400523.22346  21952337.9294   21952335.8314
      1149.0004
   5958377.25848   4644393.21144  23218318.7574   23218316.8974
     -2973.2324
  -7652904.05548  -5958404.17244  23116370.8904   23116367.2654
      1462.2364
  -1582183.12949  -1219405.39846  21988811.7884   21988809.7534
     -2092.7604
  -5883832.55549  -4580440.67247  21494289.2884   21494288.1364
      -636.1954
 04  9 10 17  6 30.0030000  0  5G20G11G23G25G 1
 -12087206.21949  -9413888.57046  21949073.7184   21949071.6554
      1143.4804
   6003065.69148   4679215.35544  23226822.3354   23226820.9094
     -2979.2294
  -7674790.90248  -5975458.84044  23112205.7654   23112202.4604
      1459.1234
  -1550683.35549  -1194860.12546  21994806.2104   21994804.1944
     -2099.9854
  -5874226.14549  -4572955.16447  21496117.2334   21496115.8624
      -640.4274
 04  9 10 17  6 45.0030000  0  5G20G11G23G25G 1
 -12104272.97749  -9427187.34046  21945826.0464   21945823.8394
      1137.7844
   6047846.32048   4714109.32844  23235343.7964   23235342.2144
     -2985.3754
  -7696628.54348  -5992475.15244  23108050.3584   23108046.8974
      1455.8434
  -1519072.98049  -1170228.67646  22000821.3124   22000819.2844
     -2107.3584
  -5864553.69549  -4565418.18446  21497958.0694   21497956.4724
      -644.8304
 04  9 10 17  7  0.0030000  0  5G20G11G23G25G 1
 -12121255.34449  -9440420.35246  21942594.0154   21942592.1754
      1132.1584
   6092717.44948   4749073.82444  23243882.3584   23243880.7534
     -2991.4094
  -7718418.12548  -6009454.03144  23103903.9294   23103900.3004
      1452.6394
  -1487353.50449  -1145512.20747  22006857.3904   22006855.4994
     -2114.6324
  -5854816.57849  -4557830.83247  21499811.2104   21499809.6014
      -649.1414
 04  9 10 17  7 15.0030000  0  5G20G11G23G25G 1
 -12138153.37549  -9453587.64146  21939378.8974   21939376.4764
      1126.5354
   6137678.52748   4784108.40244  23252437.8124   23252436.3744
     -2997.4054
  -7740160.04748  -6026395.76244  23099766.6874   23099763.2334
      1449.4614
  -1455525.44149  -1120711.13346  22012913.7104   22012912.0814
     -2121.8714
  -5845015.17249  -4550193.37547  21501676.0694   21501674.8974
      -653.4274
 04  9 10 17  7 30.0030000  0  5G20G11G23G25G 1
 -12154966.30149  -9466688.62146  21936179.4524   21936177.4484
      1120.8624
   6182729.79348   4819213.27344  23261011.0464   23261009.3354
     -3003.4184
  -7761853.78148  -6043299.95344  23095638.9294   23095635.1944
      1446.2494
  -1423588.69149  -1095825.36746  22018991.2804   22018989.3974
     -2129.1174
  -5835149.16849  -4542505.58247  21503553.4834   21503552.2184
      -657.7344
 04  9 10 17  7 45.0030000  0  5G20G11G23G25G 1
 -12171693.18049  -9479722.54746  21932996.6634   21932994.1514
      1115.1254
   6227871.50048   4854388.61743  23269600.4764   23269599.0734
     -3009.4474
  -7783498.55948  -6060165.99244  23091519.7024   23091516.1084
      1442.9854
  -1391542.76249  -1070854.52046  22025089.3514   22025087.6984
     -2136.3954
  -5825217.86749  -4534766.91847  21505443.5934   21505442.2924
      -662.0874
 04  9 10 17  8  0.0030000  0  6G20G11G16G23G25G 1
 -12188334.45749  -9492689.77346  21929829.8974   21929827.8274
      1109.4184
   6273102.73848   4889633.71944  23278207.8584   23278206.3354
     -3015.4164
    -84929.55157    -61311.53952  25118568.8124   25118568.6554

  -7805095.04348  -6076994.39144  23087409.6164   23087406.7614
      1439.7664
  -1359388.35949  -1045799.15646  22031208.2884   22031206.6444
     -2143.6274
  -5815221.99249  -4526977.93046  21507345.5934   21507344.4484
      -666.3924
 04  9 10 17  8 15.0030000  0  6G20G11G16G23G25G 1
 -12204892.10549  -9505591.82846  21926678.8974   21926676.9604
      1103.8434
   6318420.80148   4924946.46943  23286832.1084   23286830.1084
     -3021.2044
   -119433.56046    -88197.80142  25112003.5934   25112002.9914
      2300.2674
  -7826645.47348  -6093786.91044  23083309.0544   23083305.6554
      1436.6954
  -1327128.09049  -1020661.29346  22037347.4374   22037345.8274
     -2150.6854
  -5805163.90649  -4519140.46146  21509259.4834   21509258.5934
      -670.5394
 04  9 10 17  8 30.0030000  0  6G20G11G16G23G25G 1
 -12221365.09049  -9518427.91846  21923544.2334   21923542.5934
      1098.1994
   6363826.28948   4960327.33243  23295472.2884   23295471.0034
     -3027.0334
   -153919.16046   -115069.59842  25105440.3274   25105440.6754
      2299.0404
  -7848149.07448  -6110542.93444  23079216.8274   23079213.3004
      1433.5734
  -1294761.43449   -995440.53946  22043506.8974   22043504.9404
     -2157.7774
  -5795042.89849  -4511253.96946  21511185.4684   21511184.4874
      -674.7344
 04  9 10 17  8 45.0030000  0  6G20G11G16G23G25G 1
 -12237751.78949  -9531196.76646  21920425.8664   21920424.0034
      1092.4474
   6409320.35948   4995777.23843  23304129.8824   23304127.7224
     -3032.9384
   -188384.52046   -141925.67642  25098882.2964   25098882.4174
      2297.6914
  -7869604.32448  -6127261.30544  23075134.5384   23075130.8584
      1430.3504
  -1262287.07449   -970135.85246  22049686.2654   22049684.1124
     -2164.9574
  -5784857.60249  -4503317.38747  21513123.6244   21513122.4954
      -679.0204
 04  9 10 17  9  0.0030000  0  6G20G11G16G23G25G 1
 -12254054.55949  -9543900.21946  21917323.7574   21917321.7764
      1086.8514
   6454899.86348   5031293.71943  23312803.5774   23312801.2414
     -3038.6344
   -222831.87946   -168767.73042  25092326.3194   25092326.8864
      2296.4914
  -7891013.95748  -6143944.11344  23071060.0074   23071056.5774
      1427.3094
  -1229708.03949   -944749.60246  22055885.6794   22055883.7184
     -2171.9364
  -5774610.75449  -4495332.83246  21515073.4374   21515071.9524
      -683.1234
 04  9 10 17  9 15.0030000  0  6G20G11G16G23G25G 1
 -12270272.76249  -9556537.77746  21914237.3744   21914235.6674
      1081.2144
   6500564.97748   5066876.89144  23321493.5464   23321491.5654
     -3044.3414
   -257260.39146   -195595.08242  25085774.9834   25085775.3194
      2295.2344
  -7912377.35548  -6160590.90645  23066995.1874   23066991.1404
      1424.2274
  -1197024.05149   -919281.57446  22062105.2654   22062103.1794
     -2178.9334
  -5764301.91049  -4487299.97347  21517035.2414   21517033.8154
      -687.2564
 04  9 10 17  9 30.0030000  0  6G20G11G16G23G25G 1
 -12286404.83649  -9569108.21946  21911167.7804   21911165.5654
      1075.4724
   6546316.62948   5102527.52744  23330199.5774   23330197.9644
     -3050.1104
   -291668.48046   -222406.52742  25079227.3354   25079227.4334
      2293.8734
  -7933693.27348  -6177200.69944  23062938.6324   23062935.0074
      1421.0614
  -1164234.11349   -893730.98446  22068344.7654   22068343.1324
     -2185.9964
  -5753929.96149  -4479217.93747  21519009.1164   21519007.6634
      -691.4634
 04  9 10 17  9 45.0030000  0  6G20G11G16G23G25G 1
 -12302449.39849  -9581610.46946  21908114.2884   21908112.0384
      1069.6384
   6592155.78148   5138246.32444  23338922.7494   23338920.7804
     -3055.9434
   -326054.52047   -249200.79342  25072684.5154   25072684.4564
      2292.4034
  -7954960.46948  -6193772.51244  23058891.3664   23058887.8084
      1417.8134
  -1131337.25849   -868097.08646  22074605.1554   22074602.9874
     -2193.1244
  -5743493.79749  -4471085.85946  21520994.8904   21520993.6474
      -695.7444
 04  9 10 17 10  0.0030000  0  6G20G11G16G23G25G 1
 -12318408.14849  -9594045.85546  21905077.6714   21905075.3084
      1063.9174
   6638079.90649   5174031.34844  23347661.9834   23347660.1084
     -3061.6084
   -360420.10946   -275979.14142  25066144.7414   25066143.8084
      2291.0394
  -7976181.00048  -6210307.97344  23054853.3274   23054849.6634
      1414.7024
  -1098335.78549   -842381.65646  22080885.2494   22080883.2454
     -2200.0984
  -5732995.41049  -4462905.30146  21522992.8584   21522991.6754
      -699.8924
 04  9 10 17 10 15.0030000  0  6G20G11G16G23G25G 1
 -12334280.66849  -9606414.04746  21902057.0694   21902055.1674
      1058.1684
   6684089.11348   5209882.65244  23356417.2574   23356415.8154
     -3067.2804
   -394764.65647   -302741.08242  25059608.8194   25059608.7024
      2289.6364
  -7997354.61748  -6226806.87944  23050823.8904   23050820.4794
      1411.5744
  -1065229.59449   -816584.64846  22087184.9294   22087183.3044
     -2207.0794
  -5722434.68449  -4454676.18046  21525002.6164   21525001.1164
      -704.0484
 04  9 10 17 10 30.0030000  0  6G20G11G16G23G25G 1
 -12350065.96149  -9618714.27746  21899053.2104   21899050.8584
      1052.3534
   6730183.64549   5245800.45344  23365189.3584   23365187.0424
     -3072.9694
   -429087.24246   -329485.93442  25053077.3904   25053077.9404
      2288.1724
  -8018480.62948  -6243268.68744  23046803.9134   23046800.0624
      1408.4014
  -1032018.37149   -790705.78946  22093504.7884   22093503.2144
     -2214.0824
  -5711811.00049  -4446397.99247  21527024.2964   21527022.3354
      -708.2464
 04  9 10 17 10 45.0030000  0  6G20G11G16G23G25G 1
 -12365762.68449  -9630945.48046  21896066.3514   21896064.2804
      1046.4484
   6776364.27049   5281785.34444  23373976.9054   23373975.0424
     -3078.7084
   -463386.16046   -356212.33242  25046550.1714   25046550.8624
      2286.5954
  -8039557.81248  -6259692.45345  23042792.7724   23042789.4334
      1405.1464
   -998701.03949   -764744.23446  22099845.2964   22099843.7844
     -2221.1554
  -5701123.34849  -4438069.95746  21529058.0384   21529056.1164
      -712.5104
 04  9 10 17 11  0.0030000  0  6G20G11G16G23G25G 1
 -12381372.81649  -9643109.21546  21893095.7494   21893093.6984
      1040.6764
   6822628.49649   5317835.37944  23382780.5934   23382779.3544
     -3084.2824
   -497663.32846   -382921.79342  25040027.7964   25040027.9014
      2285.1454
  -8060588.32048  -6276079.84844  23038790.9134   23038787.2964
      1402.0344
   -965280.17249   -738702.01246  22106204.6474   22106203.1474
     -2228.0584
  -5690373.99649  -4429693.84447  21531103.3904   21531101.5154
      -716.6234
 04  9 10 17 11 15.0030000  0  6G20G11G16G23G25G 1
 -12396893.61749  -9655203.34446  21890142.0304   21890139.9794
      1034.7204
   6868978.62549   5353952.33644  23391600.3904   23391598.8824
     -3090.0094
   -531915.83246   -409611.98842  25033509.5224   25033509.4254
      2283.5004
  -8081569.59848  -6292428.87545  23034798.1944   23034794.8314
      1398.7524
   -931753.44549   -712577.30146  22112584.2724   22112582.9094
     -2235.1154
  -5679560.39849  -4421267.66846  21533161.2724   21533159.3944
      -720.9074
 04  9 10 17 11 30.0030000  0  6G20G11G16G23G25G 1
 -12412324.83649  -9667227.68046  21887205.7884   21887203.5154
      1028.7484
   6915414.07848   5390135.78544  23400436.4994   23400435.7884
     -3095.6974
   -566143.42246   -436282.79342  25026995.5384   25026996.3154
      2281.8394
  -8102501.71148  -6308739.60944  23030815.4294   23030811.5264
      1395.4744
   -898121.00049   -686370.21946  22118984.6714   22118982.9644
     -2242.1634
  -5668682.71949  -4412791.55947  21535231.1324   21535229.4834
      -725.1794
 04  9 10 17 11 45.0030000  0  6G20G11G16G23G25G 1
 -12427667.65649  -9679183.11346  21884286.2414   21884283.7804
      1022.8554
   6961933.19949   5426384.43044  23409289.1634   23409288.2334
     -3101.2754
   -600347.00046   -462934.89842  25020487.8974   25020487.8864
      2280.2394
  -8123386.02348  -6325013.08644  23026840.9134   23026837.1164
      1392.2874
   -864384.67649   -660082.18746  22125404.4524   22125402.8864
     -2249.0884
  -5657742.43449  -4404266.65646  21537312.8824   21537311.7654
      -729.3524
 04  9 10 17 12  0.0030000  0  6G20G11G16G23G25G 1
 -12442920.72749  -9691068.62146  21881383.3904   21881381.6164
      1016.8714
   7008536.75848   5462698.85944  23418157.3974   23418156.1904
     -3106.9044
   -634525.30146   -489567.29742  25013983.1794   25013984.1834
      2278.5534
  -8144221.47748  -6341248.46944  23022876.1164   23022872.7294
      1389.0304
   -830543.60249   -633712.53146  22131844.3664   22131842.4874
     -2256.0724
  -5646738.53949  -4395692.19946  21539406.7884   21539405.2024
      -733.5934
 04  9 10 17 12 15.0030000  0  6G20G11G16G23G25G 1
 -12458084.94149  -9702884.89546  21878497.8194   21878495.7374
      1010.9484
   7055223.34048   5499078.00044  23427041.3044   23427040.5114
     -3112.4394
   -668678.92846   -516180.43442  25007483.5544   25007484.0584
      2276.9084
  -8165009.11348  -6357446.61744  23018920.3974   23018916.4334
      1385.8424
   -796599.20749   -607262.37546  22138303.7964   22138301.9724
     -2262.9604
  -5635672.19549  -4387069.08246  21541512.8274   21541510.9914
      -737.7564
 04  9 10 17 12 30.0030000  0  6G20G11G16G23G25G 1
 -12473159.19549  -9714631.07046  21875629.2024   21875627.0464
      1004.9504
   7101993.41848   5535522.19144  23435941.5774   23435940.9094
     -3118.0054
   -702806.70746   -542773.47742  25000989.2964   25000990.0544
      2275.1854
  -8185748.14848  -6373606.88744  23014973.7184   23014969.8624
      1382.6024
   -762550.74249   -580731.11346  22144782.9524   22144781.3944
     -2269.8984
  -5624542.66449  -4378396.71946  21543630.7184   21543629.3904
      -741.9694
 04  9 10 17 12 45.0040000  0  6G20G11G16G23G25G 1
 -12488143.19549  -9726306.91046  21872777.8014   21872775.7344
       998.9334
   7148850.78548   5572034.39844  23444857.2854   23444857.2734
     -3123.8244
   -736909.41046   -569346.97342  24994500.4574   24994500.2154
      2273.5144
  -8206438.82848  -6389729.47744  23011036.3244   23011032.6174
      1379.3794
   -728395.22749   -554116.44546  22151282.5744   22151281.1644
     -2277.0344
  -5613348.19149  -4369673.75446  21545760.7934   21545759.7694
      -746.2984
 04  9 10 17 13  0.0040000  0  6G20G11G16G23G25G 1
 -12503035.51649  -9737911.31646  21869944.0124   21869941.8324
       992.8214
   7195788.03148   5608608.83643  23453789.4344   23453788.7544
     -3129.1504
   -770983.02345   -595897.79342  24988015.1134   24988016.6994
      2271.5744
  -8227079.23048  -6405812.89545  23007108.7694   23007105.3444
      1376.0274
   -694138.30949   -527422.75846  22157801.3014   22157799.6024
     -2283.7954
  -5602091.22749  -4360902.09446  21547903.1134   21547901.8674
      -750.4644
 04  9 10 17 13 15.0040000  0  6G20G11G16G23G25G 1
 -12517836.66449  -9749444.67246  21867127.4884   21867125.3054
       986.7434
   7242808.34048   5645247.99643  23462737.1294   23462736.4494
     -3134.6874
   -805029.06246   -622427.14142  24981536.9734   24981537.6874
      2269.7364
  -8247670.41048  -6421857.93044  23003190.3484   23003187.1954
      1372.7454
   -659777.62149   -500648.21546  22164340.1914   22164339.0394
     -2290.7124
  -5590770.76249  -4352080.96146  21550057.0824   21550056.3674
      -754.6984
 04  9 10 17 13 30.0040000  0  6G20G11G16G23G25G 1
 -12532546.55949  -9760906.92246  21864328.2234   21864325.6604
       980.6604
   7289911.23048   5681951.51243  23471701.1844   23471699.6844
     -3140.1934
   -839047.36346   -648934.84442  24975063.6994   24975064.6374
      2267.8874
  -8268212.39149  -6437864.65644  22999281.2384   22999278.1874
      1369.4654
   -625313.47349   -473793.03946  22170898.5514   22170896.7694
     -2297.6104
  -5579387.07849  -4343210.55546  21552223.6994   21552222.2194
      -758.9124
 04  9 10 17 13 45.0040000  0  6G20G11G16G23G25G 1
 -12547164.45349  -9772297.48046  21861546.7304   21861544.1644
       974.5264
   7337096.87948   5718719.53143  23480680.1054   23480678.7504
     -3145.7104
   -873036.97745   -675420.21542  24968595.1374   24968595.9694
      2265.9744
  -8288704.81248  -6453832.76644  22995382.1524   22995378.5664
      1366.1614
   -590745.70349   -446857.12546  22177476.3634   22177474.5704
     -2304.5184
  -5567939.67249  -4334290.50046  21554401.8324   21554400.4454
      -763.1604
 04  9 10 17 14  0.0040000  0  6G20G11G16G23G25G 1
 -12561690.32449  -9783616.34046  21858782.2464   21858780.0164
       968.3914
   7384364.56648   5755551.46943  23489675.3244   23489673.1484
     -3151.1794
   -906997.82045   -701883.17242  24962133.3634   24962133.2034
      2264.0564
  -8309147.84048  -6469762.35945  22991491.4104   22991488.1024
      1362.8684
   -556074.89549   -419840.93046  22184074.1444   22184072.6804
     -2311.3874
  -5556428.92649  -4325321.09446  21556592.2384   21556590.7774
      -767.3834
 04  9 10 17 14 15.0040000  0  6G20G11G16G23G25G 1
 -12576124.66449  -9794863.87946  21856035.7304   21856033.3484
       962.2894
   7431713.25448   5792446.54743  23498685.4104   23498683.0944
     -3156.5794
   -940930.31646   -728324.04742  24955675.8484   24955676.1444
      2262.1664
  -8329542.11348  -6485653.98844  22987610.4574   22987606.7274
      1359.6184
   -521301.84449   -392745.06646  22190690.9104   22190689.2854
     -2318.2034
  -5544855.62949  -4316302.93746  21558794.4654   21558793.0434
      -771.5534
 04  9 10 17 14 30.0040000  0  6G20G11G16G23G25G 1
 -12590465.98049  -9806038.93046  21853306.6054   21853304.3484
       956.0884
   7479143.74248   5829405.36343  23507711.1214   23507709.3524
     -3162.0334
   -974832.77046   -754741.53542  24949224.8794   24949224.8794
      2260.1644
  -8349886.39548  -6501506.66044  22983739.0354   22983735.4574
      1356.2854
   -486425.66849   -365568.83646  22197327.6844   22197325.9064
     -2325.0784
  -5533218.60249  -4307235.12946  21561008.9884   21561008.1374
      -775.8024
 04  9 10 17 14 45.0040000  0  6G20G11G16G23G25G 1
 -12604713.55149  -9817140.93046  21850595.3634   21850593.1024
       949.8384
   7526656.30948   5866428.11744  23516752.2854   23516751.0044
     -3167.5044
  -1008704.40645   -781134.98442  24942779.0904   24942779.7934
      2258.1094
  -8370180.22748  -6517320.01244  22979877.3944   22979873.7034
      1352.9224
   -451446.23049   -338312.14546  22203984.1844   22203982.3204
     -2331.9624
  -5521517.37549  -4298117.30146  21563235.6604   21563234.5594
      -780.0824
 04  9 10 17 15  0.0040000  0  6G20G11G16G23G25G 1
 -12618869.53549  -9828171.56246  21847901.4884   21847899.3944
       943.7324
   7574248.51248   5903512.92644  23525809.1444   23525807.7424
     -3172.8144
  -1042547.07046   -807505.87142  24936339.0194   24936339.2384
      2256.1784
  -8390425.85949  -6533095.81644  22976024.5434   22976020.7814
      1349.7094
   -416365.94949   -310976.88346  22210659.3874   22210658.3164
     -2338.6854
  -5509754.34849  -4288951.30946  21565474.0124   21565472.4574
      -784.2024
 04  9 10 17 15 15.0040000  0  6G20G11G16G23G25G 1
 -12632931.81249  -9839129.17646  21845225.8944   21845223.3714
       937.4854
   7621921.45348   5940660.65644  23534881.1994   23534879.4884
     -3178.1964
  -1076358.57846   -833852.47342  24929905.0744   24929904.4494
      2254.1014
  -8410621.38348  -6548832.57844  22972181.9654   22972177.5234
      1346.3684
   -381183.26249   -283561.81646  22217354.6684   22217353.3164
     -2345.5124
  -5497927.75849  -4279735.78547  21567724.5664   21567723.3794
      -788.4394
 04  9 10 17 15 30.0040000  0  6G20G11G16G23G25G 1
 -12646900.55149  -9850013.91046  21842567.4734   21842565.2974
       931.2494
   7669674.43049   5977870.74644  23543968.3554   23543965.7664
     -3183.5324
  -1110139.00045   -860174.84442  24923477.0124   24923476.7624
      2252.0284
  -8430767.45348  -6564530.80144  22968347.9344   22968344.0474
      1343.0714
   -345898.75049   -256067.39846  22224069.2934   22224067.4964
     -2352.3014
  -5486038.12149  -4270471.14546  21569986.7774   21569985.9614
      -792.6424
 04  9 10 17 15 45.0040000  0  6G20G11G16G23G25G 1
 -12660777.46949  -9860827.08646  21839926.8094   21839924.5314
       925.1284
   7717505.24249   6015141.49644  23553070.3794   23553067.9654
     -3188.7214
  -1143889.83646   -886474.13742  24917054.3404   24917054.4884
      2250.0564
  -8450865.81248  -6580191.84044  22964522.9804   22964519.2694
      1339.8914
   -310514.72349   -228495.45746  22230802.6524   22230801.1374
     -2358.9354
  -5474087.48849  -4261158.96546  21572261.3634   21572260.1764
      -796.7094
 04  9 10 17 16  0.0040000  0  6G20G11G16G23G25G 1
 -12674561.24249  -9871567.68446  21837303.6764   21837301.6094
       918.9184
   7765414.65249   6052473.48844  23562186.9104   23562184.7894
     -3193.9614
  -1177609.76246   -912749.37542  24910637.0124   24910638.2384
      2247.9954
  -8470915.31648  -6595814.81244  22960707.7074   22960704.0624
      1336.6344
   -275030.39849   -200845.34846  22237555.0434   22237553.4924
     -2365.6224
  -5462074.86349  -4251798.48447  21574547.4494   21574545.9264
      -800.8424
 04  9 10 17 16 15.0040000  0  6G20G11G16G23G25G 1
 -12688251.14149  -9882235.14146  21834698.8244   21834696.2894
       912.6604
   7813402.66848   6089866.71944  23571318.8634   23571316.9804
     -3199.2014
  -1211297.80946   -938999.79342  24904227.1764   24904227.4844
      2245.8704
  -8490915.62148  -6611399.45745  22956901.9344   22956898.5164
      1333.3544
   -239445.55949   -173116.91446  22244326.6914   22244325.0434
     -2372.3234
  -5449999.84449  -4242389.37147  21576845.2934   21576843.7854
      -805.0014
 04  9 10 17 16 30.0040000  0  6G20G11G16G23G25G 1
 -12701846.85949  -9892829.21146  21832111.5124   21832109.1374
       906.3814
   7861469.12548   6127321.08644  23580465.2234   23580464.0194
     -3204.4304
  -1244953.62546   -965225.07042  24897822.8094   24897822.2074
      2243.7214
  -8510866.54348  -6626945.60945  22953105.3794   22953101.8714
      1330.0614
   -203760.35549   -145310.28146  22251117.7624   22251115.5394
     -2379.0144
  -5437862.33249  -4232931.57446  21579154.8244   21579153.3054
      -809.1674
 04  9 10 17 16 45.0040000  0  6G20G11G16G23G25G 1
 -12715346.96549  -9903348.76646  21829542.4734   21829539.8754
       900.0074
   7909614.98048   6164837.30944  23589627.2624   23589625.5744
     -3209.7244
  -1278575.53147   -991423.94142  24891424.7234   24891424.2344
      2241.4604
  -8530766.76248  -6642452.25845  22949318.9024   22949315.0194
      1326.6814
   -167973.82049   -117424.68046  22257927.5194   22257925.2074
     -2385.7694
  -5425661.16449  -4223424.18446  21581476.7774   21581475.3484
      -813.4114
 04  9 10 17 17  0.0040000  0  6G20G11G16G23G25G 1
 -12728752.28549  -9913794.47346  21826991.6844   21826989.3554
       893.6884
   7957838.78548   6202414.27744  23598803.8794   23598803.1254
     -3214.9204
  -1312164.21147  -1017596.90242  24885032.8634   24885032.3554
      2239.2454
  -8550617.29748  -6657920.18745  22945540.9344   22945537.3634
      1323.3694
   -132087.26249    -89461.14546  22264756.4104   22264754.5164
     -2392.4374
  -5413397.47349  -4213868.05546  21583810.4414   21583808.9614
      -817.5794
